     2.11           OBSERVATION DATA    G (GPS)             RINEX VERSION / TYPE
teqc 2010Oct21 OPUS Account 20111027 19:10:59UTC            PGM / RUN BY / DATE
V 1525                                                      MARKER NAME
3030                                                        MARKER NUMBER
CSMIDDLETON NGS                                             OBSERVER / AGENCY
0220320152 TRIMBLE 5700 2.01                                REC # / TYPE / VERS
12214372 TRM41249.00 NONE                                   ANT # / TYPE
  -759363.1434 -5556633.3203  3027661.4744                  APPROX POSITION XYZ
        2.0000        0.0000        0.0000                  ANTENNA: DELTA H/E/N
     1     1                                                WAVELENGTH FACT L1/2
     5    L1    L2    C1    P1    P2                        # / TYPES OF OBSERV
    15                                                      LEAP SECONDS
  2011     8    19     0     0   30.0000000     GPS         TIME OF FIRST OBS
                                                            END OF HEADER
 11  8 19  0  0 30.0000000  0  7G12G17G10G05G04G09G02
 -17901529.28557 -13937693.12556  22165483.6884                   22165481.5004
 -30942683.29757 -24099262.02755  22819295.7814                   22819293.8444
 -26172408.50458 -20383361.57456  21122206.5784                   21122205.0554
 -12240495.30157  -9526133.12155  22955807.2814                   22955806.4144
 -32865692.00858 -25596681.27056  21124113.0234                   21124111.1414
 -15655051.14557 -12186759.92654  23077764.3284                   23077763.7544
 -30372316.62158 -23654593.36356  20776314.4454                   20776310.1334
 11  8 19  0  1  0.0000000  0  7G12G17G10G05G04G09G02
 -18006778.85248 -14019705.74646  22145455.3524                   22145453.6844
 -30924372.74647 -24084994.11745  22822780.4384                   22822778.6564
 -26229415.70748 -20427782.74246  21111358.4384                   21111356.5314
 -12369033.22747  -9626292.43745  22931347.6334                   22931347.0514
 -32825486.11348 -25565352.02346  21131763.9844                   21131762.1414
 -15616187.71947 -12156476.80545  23085158.9924                   23085158.9804
 -30415124.53548 -23687950.15247  20768168.3674                   20768164.0704
 11  8 19  0  1 30.0000000  0  7G12G17G10G05G04G09G02
 -18111701.95347 -14101463.98446  22125488.9144                   22125487.0394
 -30905918.84447 -24070614.50045  22826292.1564                   22826290.7424
 -26285820.63348 -20471734.58646  21100625.1334                   21100623.0354
 -12497391.92247  -9726312.09445  22906921.4844                   22906920.6914
 -32785021.37548 -25533821.07846  21139464.3754                   21139462.5944
 -15576978.48846 -12125924.19944  23092620.2114                   23092620.4064
 -30457578.18448 -23721030.90246  20760089.8134                   20760085.4884
 11  8 19  0  2  0.0000000  0  7G12G17G10G05G04G09G02
 -18216298.56248 -14182967.80946  22105585.2974                   22105582.9734
 -30887322.46147 -24056123.84845  22829830.6724                   22829828.8164
 -26341623.59048 -20515217.38346  21090006.1884                   21090004.1954
 -12625570.19947  -9826191.15645  22882529.7974                   22882529.6024
 -32744302.02348 -25502091.74246  21147213.1414                   21147211.3524
 -15537428.87547 -12095106.37144  23100146.5704                   23100147.2464
 -30499680.09448 -23753837.56246  20752078.3914                   20752073.9964
 11  8 19  0  2 30.0000000  0  7G12G17G10G05G04G09G02
 -18320568.82047 -14264217.33646  22085743.1954                   22085740.3914
 -30868586.31247 -24041524.26645  22833396.1414                   22833394.3794
 -26396826.03948 -20558232.24246  21079501.1884                   21079499.3914
 -12753567.94547  -9925929.53945  22858172.4064                   22858172.5744
 -32703333.28948 -25470168.08246  21155009.2734                   21155007.0514
 -15497545.07047 -12064028.14144  23107736.7274                   23107736.1724
 -30541434.04748 -23786373.07846  20744132.4774                   20744128.0204
 11  8 19  0  3  0.0000000  0  7G12G17G10G05G04G09G02
 -18424510.15248 -14345210.55546  22065963.5234                   22065961.1134
 -30849709.71547 -24026815.22345  22836987.9304                   22836985.9774
 -26451426.45748 -20600777.97746  21069111.0864                   21069108.6414
 -12881382.39547 -10025525.10245  22833850.3914                   22833849.6954
 -32662117.50448 -25438051.91046  21162852.2734                   21162850.3554
 -15457330.52046 -12032692.17244  23115389.5634                   23115388.7114
 -30582841.13748 -23818638.32846  20736252.9534                   20736248.6454
 11  8 19  0  3 30.0000000  0  7G12G17G10G05G04G09G02
 -18528118.44148 -14425944.25846  22046247.3674                   22046244.7854
 -30830690.48047 -24011995.06245  22840606.9924                   22840605.5904
 -26505421.54348 -20642852.03546  21058836.1884                   21058834.1094
 -13009009.12947 -10124974.39845  22809563.1724                   22809562.8984
 -32620655.40248 -25405743.78946  21170742.2584                   21170740.2344
 -15416786.96547 -12001099.84045  23123104.2734                   23123104.5824
 -30623900.55948 -23850632.65646  20728439.8284                   20728435.1724
 11  8 19  0  4  0.0000000  0  7G12G17G10G05G04G09G02
 -18631390.11347 -14506415.67246  22026595.8834                   22026593.1994
 -30811527.01647 -23997062.52745  22844254.2664                   22844252.5314
 -26558808.77048 -20684452.43746  21048676.9384                   21048674.9414
 -13136443.73847 -10224273.98045  22785313.4694                   22785313.0394
 -32578948.29748 -25373244.74646  21178678.9064                   21178676.8204
 -15375916.80547 -11969252.99645  23130881.5864                   23130881.3954
 -30664612.22748 -23882356.00846  20720692.4534                   20720687.9574
 11  8 19  0  4 30.0000000  0  7G12G17G10G05G04G09G02
 -18734321.56247 -14586621.97346  22007008.5784                   22007006.1024
 -30792217.57047 -23982016.27345  22847929.1094                   22847926.8324
 -26611585.93048 -20725577.46546  21038633.9454                   21038631.8954
 -13263682.29747 -10323420.80145  22761100.4924                   22761100.3444
 -32536997.52748 -25340555.85246  21186661.9614                   21186660.1884
 -15334722.44546 -11937153.55145  23138720.4694                   23138720.4844
 -30704975.99248 -23913808.27046  20713011.8284                   20713007.1604
 11  8 19  0  5  0.0000000  0  7G12G17G10G05G04G09G02
 -18836913.96147 -14666564.07446  21987485.5234                   21987483.3874
 -30772765.31647 -23966858.71545  22851630.6094                   22851628.9614
 -26663755.21948 -20766228.82446  21028706.3674                   21028704.3874
 -13390725.70347 -10422415.53945  22736924.4224                   22736924.4104
 -32494808.94548 -25307681.63346  21194690.2584                   21194688.3794
 -15293211.09846 -11904807.08644  23146620.1724                   23146620.2344
 -30744996.53548 -23944993.08646  20705395.6094                   20705391.3794
 11  8 19  0  5 30.0000000  0  7G12G17G10G05G04G09G02
 -18939161.43748 -14746237.40246  21968028.4534                   21968026.5164
 -30753166.38347 -23951586.85945  22855360.1724                   22855358.2034
 -26715312.23048 -20806403.10546  21018895.1564                   21018893.3954
 -13517567.93047 -10521253.52345  22712787.5784                   22712787.3204
 -32452381.92648 -25274621.62946  21202763.6644                   21202761.8244
 -15251382.50447 -11872213.43745  23154580.3364                   23154579.9884
 -30784671.49248 -23975908.61347  20697845.9144                   20697841.4064
 11  8 19  0  6  0.0000000  0  7G12G17G10G05G04G09G02
 -19041062.52047 -14825640.80946  21948637.3984                   21948635.3324
 -30733420.96947 -23936200.86345  22859116.7584                   22859115.5944
 -26766256.02748 -20846099.53946  21009200.7894                   21009198.7504
 -13644206.54347 -10619932.84845  22688688.8204                   22688688.6764
 -32409719.23048 -25241377.96946  21210882.1884                   21210880.0824
 -15209241.06647 -11839376.00845  23162599.8364                   23162599.3524
 -30824002.55948 -24006556.17647  20690361.2894                   20690356.7344
 11  8 19  0  6 30.0000000  0  8G12G30G17G10G05G04G09G02
 -19142617.80547 -14904774.77046  21929312.3284                   21929310.1644
   -193752.66456   -138825.22353  24378734.5944                   24378733.5474
 -30713531.80947 -23920702.87145  22862901.8364                   22862900.6334
 -26816588.75848 -20885319.82846  20999622.5944                   20999620.9304
 -13770641.98047 -10718453.84445  22664628.6484                   22664628.8054
 -32366826.85548 -25207955.34846  21219044.4534                   21219042.6094
 -15166793.60247 -11806300.11344  23170676.7664                   23170676.4844
 -30862993.87548 -24036939.00446  20682941.6954                   20682937.0394
 11  8 19  0  7  0.0000000  0  8G12G30G17G10G05G04G09G02
 -19243835.59448 -14983645.74246  21910050.9774                   21910048.5164
   -326591.83647   -242336.31643  24353455.9064                   24353455.3794
 -30693509.12547 -23905100.82045  22866712.0474                   22866710.3364
 -26866320.12548 -20924071.53146  20990159.1804                   20990157.0904
 -13896882.14547 -10816822.68745  22640606.2114                   22640605.6374
 -32323717.80548 -25174363.87946  21227247.5864                   21227245.6804
 -15124054.19147 -11772996.73044  23178809.8914                   23178810.1294
 -30901657.39848 -24067066.41046  20675584.2664                   20675579.4734
 11  8 19  0  7 30.0000000  0  8G12G30G17G10G05G04G09G02
 -19344714.90647 -15062252.95746  21890854.2584                   21890851.9924
   -459263.85546   -345717.13343  24328209.2344                   24328209.0274
 -30673353.58647 -23889395.24645  22870548.0864                   22870546.2464
 -26915450.06648 -20962354.57446  20980810.1414                   20980808.3634
 -14022925.45747 -10915038.15245  22616621.1644                   22616620.1454
 -32280395.71548 -25140606.41846  21235491.5704                   21235489.9304
 -15081027.76247 -11739469.69145  23186997.3834                   23186997.0744
 -30939995.39848 -24096940.15246  20668288.3284                   20668283.9264
 11  8 19  0  8  0.0000000  0  8G12G30G17G10G05G04G09G02
 -19445249.69147 -15140591.71146  21871723.1334                   21871720.7584
   -591762.52746   -448962.86743  24302996.3054                   24302995.9694
 -30653061.30147 -23873583.11745  22874410.0704                   22874407.4344
 -26963973.89848 -21000165.31646  20971576.3524                   20971574.3164
 -14148765.69147 -11013095.37545  22592674.3284                   22592673.9494
 -32236859.30148 -25106681.95346  21243776.2894                   21243774.5824
 -15037714.05147 -11705718.82044  23195240.4454                   23195239.6214
 -30978005.45348 -24126558.35546  20661055.6954                   20661050.8754
 11  8 19  0  8 30.0000000  0  8G12G30G17G10G05G04G09G02
 -19545432.38348 -15218656.10246  21852658.8914                   21852656.8134
   -724080.76646   -552067.94943  24277816.2274                   24277816.2504
 -30632627.44147 -23857660.66445  22878297.8364                   22878296.3244
 -27011886.12147 -21037499.48446  20962459.0084                   20962457.2344
 -14274395.20347 -11110988.39145  22568767.9064                   22568766.8954
 -32193106.71148 -25072589.04346  21252102.0004                   21252100.2074
 -14994111.96147 -11671743.20745  23203537.1334                   23203537.6914
 -31015684.05948 -24155918.29346  20653885.7814                   20653880.8834
 11  8 19  0  9  0.0000000  0  8G12G30G17G10G05G04G09G02
 -19645259.52047 -15296443.43746  21833662.3204                   21833660.2384
   -856214.13746   -655029.03542  24252672.2664                   24252671.4774
 -30612049.52747 -23841625.98045  22882213.3914                   22882212.1334
 -27059183.98048 -21074354.92246  20953458.5084                   20953456.4454
 -14399809.56247 -11208713.76645  22544902.0474                   22544901.2274
 -32149138.27348 -25038327.93446  21260469.2974                   21260467.6054
 -14950223.21147 -11637544.23444  23211888.6254                   23211888.7464
 -31053030.47348 -24185019.37947  20646778.9144                   20646773.9344
 11  8 19  0  9 30.0000000  0  8G12G30G17G10G05G04G09G02
 -19744724.29748 -15373948.41446  21814734.8204                   21814732.3874
   -988155.68746   -757840.58643  24227564.7114                   24227564.0634
 -30591322.96947 -23825475.46945  22886157.5314                   22886156.5204
 -27105862.01248 -21110727.39546  20944575.8134                   20944573.7934
 -14525001.45747 -11306265.77345  22521078.6954                   22521078.1054
 -32104952.26248 -25003897.28946  21268877.4384                   21268875.4184
 -14906047.28547 -11603121.50444  23220295.7584                   23220295.6724
 -31090041.34448 -24213859.00447  20639735.7504                   20639731.2304
 11  8 19  0 10  0.0000000  0  8G12G30G17G10G05G04G09G02
 -19843826.56648 -15451170.93446  21795876.2664                   21795873.7344
  -1119905.19946   -860502.44542  24202493.5004                   24202493.2304
 -30570449.21947 -23809210.22745  22890130.2114                   22890128.3444
 -27151921.12548 -21146617.57846  20935810.9384                   20935809.3204
 -14649970.41047 -11403644.07445  22497298.2114                   22497297.1954
 -32060553.27048 -24969300.69546  21277326.6644                   21277324.5274
 -14861589.92247 -11568479.44944  23228755.0394                   23228755.1884
 -31126720.07048 -24242439.80946  20632756.1024                   20632751.3364
 11  8 19  0 10 30.0000000  0  8G12G30G17G10G05G04G09G02
 -19942559.08248 -15528105.32046  21777088.1254                   21777085.6334
  -1251455.19746   -963008.93043  24177460.5784                   24177458.7734
 -30549422.98447 -23792826.17245  22894131.9454                   22894129.4574
 -27197355.91848 -21182021.28146  20927165.0634                   20927162.9844
 -14774708.80947 -11500842.71545  22473560.6724                   22473559.2234
 -32015938.71148 -24934536.10946  21285816.4224                   21285814.4654
 -14816849.88347 -11533617.14544  23237269.5084                   23237268.9454
 -31163063.35248 -24270759.23446  20625840.2344                   20625835.7934
 11  8 19  0 11  0.0000000  0  8G12G30G17G10G05G04G09G02
 -20040920.12148 -15604750.25446  21758370.5704                   21758367.8834
  -1382803.83646  -1065358.38343  24152465.7734                   24152464.8984
 -30528244.89847 -23776323.78545  22898161.7664                   22898160.1604
 -27242165.96948 -21216938.17246  20918638.0084                   20918636.1524
 -14899214.32447 -11597859.88745  22449868.0944                   22449866.9384
 -31971111.91048 -24899606.14546  21294346.4774                   21294344.6334
 -14771831.39146 -11498537.87144  23245835.7974                   23245835.4614
 -31199072.68448 -24298818.43746  20618987.5704                   20618983.2034
 11  8 19  0 11 30.0000000  0  9G12G30G17G10G05G04G25G09G02
 -20138907.53148 -15681104.04746  21739724.0944                   21739721.7854
  -1513949.02346  -1167549.34443  24127509.7114                   24127509.4064
 -30506914.84047 -23759702.98845  22902220.3674                   22902219.4224
 -27286351.20747 -21251368.18446  20910229.7584                   20910227.5124
 -15023485.10247 -11694694.14546  22426220.2974                   22426219.2464
 -31926075.61347 -24864512.93046  21302916.6024                   21302914.9304
   -190472.58657   -136774.73054  24619524.3674                   24619526.0434
 -14726538.78946 -11463245.00844  23254454.9454                   23254454.3164
 -31234749.67248 -24326618.67646  20612198.6414                   20612194.2854
 11  8 19  0 12  0.0000000  0  9G12G30G17G10G05G04G25G09G02
 -20236530.34048 -15757173.73046  21721147.2344                   21721144.5274
  -1644898.92646  -1269588.11343  24102590.2894                   24102590.6094
 -30485442.94547 -23742971.68745  22906306.4224                   22906305.2664
 -27329921.28148 -21285318.86746  20901938.6024                   20901936.8484
 -15147528.91847 -11791351.54745  22402615.3284                   22402614.3634
 -31880842.87548 -24829266.64846  21311524.2664                   21311521.9384
   -320902.50047   -238408.35544  24594703.9454                   24594706.3594
 -14680986.07046 -11427749.44544  23263122.8834                   23263123.1994
 -31270106.52048 -24354169.45346  20605470.6884                   20605465.7774
 11  8 19  0 12 30.0000000  0  9G12G30G17G10G05G04G25G09G02
 -20333787.47748 -15832958.47746  21702639.7504                   21702637.6804
  -1775652.12146  -1371473.63743  24077709.0554                   24077708.4654
 -30463830.16047 -23726130.57445  22910419.7734                   22910417.4024
 -27372876.52348 -21318790.45346  20893764.7584                   20893762.5124
 -15271344.11347 -11887830.81245  22379053.4774                   22379052.9184
 -31835417.66848 -24793870.39846  21320168.1804                   21320166.4344
   -451225.10947   -339958.35944  24569904.3914                   24569906.5944
 -14635178.05546 -11392054.93444  23271840.2424                   23271839.9774
 -31305145.35248 -24381472.43047  20598802.6884                   20598798.2464
 11  8 19  0 13  0.0000000  0  9G12G30G17G10G05G04G25G09G02
 -20430673.23048 -15908453.84446  21684203.0944                   21684200.3634
  -1906203.13747  -1473201.62144  24052865.7504                   24052866.2624
 -30442072.92247 -23709176.93445  22914559.2734                   22914557.6414
 -27415213.13748 -21351780.00446  20885708.1954                   20885706.1954
 -15394924.81647 -11984127.34846  22355537.2194                   22355536.5124
 -31789799.09848 -24758323.46546  21328849.1024                   21328847.2624
   -581435.28146   -441420.74644  24545126.0394                   24545128.4264
 -14589115.21547 -11356161.89144  23280605.7424                   23280605.2934
 -31339864.45348 -24408526.26247  20592195.9064                   20592191.3324
 11  8 19  0 13 30.0000000  0  9G12G30G17G10G05G04G25G09G02
 -20527181.88348 -15983655.36346  21665838.0314                   21665835.4304
  -2036545.84846  -1574767.27344  24028062.6484                   24028062.5744
 -30420167.93747 -23692108.14845  22918727.8984                   22918725.7624
 -27456926.94948 -21384284.25446  20877770.6414                   20877768.5744
 -15518265.15647 -12080236.60245  22332066.4304                   22332065.4414
 -31743986.37148 -24722625.24246  21337567.1884                   21337565.3324
   -711527.27046   -542791.04743  24520370.5234                   24520371.8594
 -14542798.02046 -11320070.62144  23289419.5554                   23289418.7854
 -31374261.61348 -24435329.23846  20585650.5784                   20585645.7624
 11  8 19  0 14  0.0000000  0  9G12G30G17G10G05G04G25G09G02
 -20623307.03548 -16058558.06646  21647545.7194                   21647543.3364
  -2166673.45346  -1676165.38344  24003300.2664                   24003299.1454
 -30398110.23447 -23674920.35945  22922925.3984                   22922923.3054
 -27498012.98048 -21416299.32446  20869951.9144                   20869949.4024
 -15641357.69147 -12176152.75445  22308642.3674                   22308641.1454
 -31697977.40648 -24686774.10946  21346322.3594                   21346320.6254
   -841494.52746   -644064.21143  24495638.6254                   24495638.5204
 -14496225.76246 -11283780.60544  23298281.8444                   23298281.9964
 -31408333.83248 -24461879.00846  20579166.8524                   20579162.0354
 11  8 19  0 14 30.0000000  0  9G12G30G17G10G05G04G25G09G02
 -20719046.32448 -16133160.08246  21629327.4304                   21629324.5164
  -2296583.54746  -1777393.98444  23978579.2974                   23978578.8984
 -30375899.26247 -23657613.14545  22927152.4224                   22927150.5664
 -27538470.57448 -21447824.70346  20862253.4924                   20862251.1454
 -15764199.99647 -12271873.93745  22285266.1884                   22285264.8914
 -31651774.60547 -24650771.93446  21355114.3914                   21355112.5864
   -971334.90646   -745238.44943  24470930.6024                   24470931.3954
 -14449402.10246 -11247294.73844  23307192.3914                   23307191.8914
 -31442082.48448 -24488176.64846  20572744.6334                   20572740.0704
 11  8 19  0 15  0.0000000  0  9G12G30G17G10G05G04G25G09G02
 -20814394.74647 -16207457.52746  21611183.1644                   21611180.7114
  -2426270.60946  -1878448.79744  23953900.0634                   23953900.1564
 -30353531.77347 -23640183.98445  22931408.4384                   22931406.8094
 -27578296.46548 -21478857.84046  20854674.5314                   20854672.2464
 -15886786.55147 -12367395.82445  22261938.6254                   22261937.6994
 -31605377.70348 -24614618.50846  21363943.6024                   21363941.9494
  -1101043.22746   -846309.78143  24446247.3914                   24446248.5784
 -14402327.67647 -11210613.41044  23316150.7274                   23316150.9104
 -31475505.91448 -24514220.86346  20566384.2194                   20566379.8834
 11  8 19  0 15 30.0000000  0  9G12G30G17G10G05G04G25G09G02
 -20909347.85547 -16281446.93446  21593114.0004                   21593111.3524
  -2555729.82846  -1979326.09044  23929264.0864                   23929264.5864
 -30331005.36347 -23622630.99645  22935695.4694                   22935694.0824
 -27617487.61348 -21509396.37946  20847216.6564                   20847214.3524
 -16009112.15647 -12462714.37945  22238661.1094                   22238660.1564
 -31558786.75848 -24578313.90246  21372809.3674                   21372807.3134
  -1230615.09846   -947274.78943  24421590.5944                   24421592.4384
 -14355003.98047 -11173737.88344  23325155.9924                   23325156.2384
 -31508602.88348 -24540010.69546  20560086.0164                   20560081.5514
 11  8 19  0 16  0.0000000  0  9G12G30G17G10G05G04G25G09G02
 -21003903.30547 -16355126.48046  21575120.7344                   21575118.2584
  -2684958.66446  -2080023.87143  23904673.2584                   23904672.1294
 -30308319.82447 -23604954.02045  22940012.7034                   22940011.0274
 -27656043.35948 -21539439.78946  20839879.5944                   20839877.5824
 -16131174.27747 -12557827.63345  22215432.8914                   22215432.1484
 -31512004.23448 -24541860.00446  21381711.8914                   21381709.5824
  -1360048.28546  -1048131.72343  24396960.3754                   24396962.5314
 -14307434.97346 -11136671.19544  23334208.4224                   23334208.4224
 -31541374.93448 -24565547.34846  20553849.7424                   20553845.1994
 11  8 19  0 16 30.0000000  0  9G12G30G17G10G05G04G25G09G02
 -21098060.53548 -16428495.71546  21557202.9144                   21557200.7504
  -2813956.10246  -2180541.30943  23880125.6564                   23880125.3284
 -30285475.91447 -23587153.64145  22944359.1804                   22944358.2424
 -27693964.84448 -21568988.98446  20832663.4144                   20832661.3444
 -16252971.84047 -12652734.73446  22192255.4924                   22192254.3094
 -31465033.96147 -24505259.80546  21390649.8984                   21390647.9454
  -1489341.85946  -1148879.90243  24372356.7504                   24372358.4964
 -14259625.44946 -11099417.10244  23343305.6094                   23343306.1054
 -31573824.80948 -24590832.95346  20547674.6484                   20547670.0634
 11  8 19  0 17  0.0000000  0  9G12G30G17G10G05G04G25G09G02
 -21191814.20347 -16501550.49246  21539362.7344                   21539360.0554
  -2942716.62846  -2280874.20743  23855624.1484                   23855622.1134
 -30262470.60947 -23569227.49645  22948737.2114                   22948735.7704
 -27731248.74648 -21598041.35546  20825568.2734                   20825566.2704
 -16374499.19547 -12747431.27345  22169129.7344                   22169128.9534
 -31417875.57048 -24468513.03946  21399623.8914                   21399621.9184
  -1618490.74646  -1249515.33644  24347780.7504                   24347782.8984
 -14211576.46547 -11061976.41844  23352448.6334                   23352449.6294
 -31605950.94948 -24615866.30546  20541561.3524                   20541556.9694
 11  8 19  0 17 30.0000000  0  9G12G30G17G10G05G04G25G09G02
 -21285161.23847 -16574288.42246  21521599.6484                   21521596.2194
  -3071236.76246  -2381019.75443  23831167.0314                   23831165.1454
 -30239302.67647 -23551174.58645  22953145.8204                   22953144.3484
 -27767893.46948 -21626595.66846  20818595.5004                   20818593.0864
 -16495752.64847 -12841914.39545  22146055.8674                   22146055.0354
 -31370530.27748 -24431620.60945  21408633.5314                   21408631.6954
  -1747491.78547  -1350035.59844  24323232.6174                   24323234.7464
 -14163290.64147 -11024351.18744  23361637.7194                   23361637.7624
 -31637753.57048 -24640647.55546  20535509.6564                   20535504.6414
 11  8 19  0 18  0.0000000  0  9G12G30G17G10G05G04G25G09G02
 -21378102.52747 -16646710.17646  21503913.0084                   21503910.6054
  -3199516.76646  -2480978.22743  23806755.6414                   23806754.3554
 -30215974.33646 -23532996.68745  22957584.7584                   22957583.9694
 -27803901.15248 -21654653.58646  20811743.0784                   20811740.9924
 -16616732.14547 -12936184.04345  22123033.9064                   22123032.9734
 -31323003.63347 -24394586.87946  21417677.2274                   21417675.4024
  -1876345.53947  -1450441.09844  24298712.4534                   24298714.8954
 -14114774.44146 -10986546.42644  23370870.4844                   23370870.7114
 -31669236.68748 -24665179.84046  20529518.2734                   20529513.7154
 11  8 19  0 18 30.0000000  0  9G12G30G17G10G05G04G25G09G02
 -21470633.03947 -16718811.83646  21486305.0864                   21486302.3244
  -3327551.49246  -2580745.47743  23782391.6094                   23782391.3404
 -30192482.86747 -23514691.70345  22962055.8594                   22962054.4924
 -27839268.98048 -21682212.91846  20805012.8674                   20805010.6174
 -16737432.64847 -13030236.29746  22100065.4224                   22100064.3244
 -31275295.11748 -24357411.43745  21426755.9924                   21426754.2274
  -2005047.19147  -1550728.07044  24274221.3054                   24274223.0314
 -14066029.09847 -10948563.12144  23380146.6024                   23380146.2074
 -31700399.52748 -24689462.55146  20523588.3524                   20523583.7624
 11  8 19  0 19  0.0000000  0  9G12G30G17G10G05G04G25G09G02
 -21562750.62547 -16790591.73846  21468775.6254                   21468772.8134
  -3455338.65647  -2680319.85243  23758075.2584                   23758073.9734
 -30168828.17647 -23496259.55945  22966557.0554                   22966555.6884
 -27873997.20348 -21709273.84846  20798404.2034                   20798402.1454
 -16857851.66847 -13124069.19945  22077150.6884                   22077149.4654
 -31227407.51648 -24320096.43745  21435868.8284                   21435867.1644
  -2133594.53547  -1650894.82845  24249759.6644                   24249761.7274
 -14017058.30947 -10910404.12944  23389465.6254                   23389465.5044
 -31731243.26648 -24713496.61746  20517718.7734                   20517714.3524
 11  8 19  0 19 30.0000000  0  9G12G30G17G10G05G04G25G09G02
 -21654454.28547 -16862049.11746  21451324.8984                   21451322.5274
  -3582876.39847  -2779699.91043  23733805.6094                   23733804.0824
 -30145010.75847 -23477700.61345  22971089.0234                   22971087.8014
 -27908086.10248 -21735836.60546  20791917.3834                   20791915.6024
 -16977987.25047 -13217681.24246  22054289.4454                   22054288.3444
 -31179343.91448 -24282644.29745  21445014.9144                   21445012.7584
  -2261986.17247  -1750940.25845  24225327.5084                   24225329.6844
 -13967866.51247 -10872072.95344  23398826.0634                   23398825.6844
 -31761770.39848 -24737283.98446  20511909.9384                   20511905.2274
 11  8 19  0 20  0.0000000  0  9G12G30G17G10G05G04G25G09G02
 -21745740.98847 -16933181.57446  21433953.4064                   21433950.8364
  -3710161.55147  -2878883.13344  23709583.9454                   23709581.3874
 -30121029.71547 -23459014.18745  22975652.9224                   22975651.1374
 -27941534.75447 -21761900.46546  20785552.2664                   20785550.1254
 -17097836.09847 -13311069.85546  22031483.0164                   22031481.4614
 -31131106.08248 -24245056.39145  21454194.4774                   21454192.5864
  -2390219.25447  -1850862.15644  24200925.7894                   24200927.6994
 -13918456.71547 -10833571.88744  23408228.6724                   23408228.6414
 -31791981.08248 -24760824.76647  20506160.9924                   20506156.2034
 11  8 19  0 20 30.0000000  0  9G12G30G17G10G05G04G25G09G02
 -21836608.53147 -17003987.41846  21416662.1024                   21416659.7894
  -3837191.23847  -2977867.29344  23685410.3754                   23685409.8094
 -30096883.99247 -23440199.40644  22980247.3524                   22980245.9924
 -27974342.20748 -21787464.69146  20779309.1024                   20779307.3674
 -17217395.17647 -13404232.68746  22008731.5634                   22008730.3834
 -31082695.96948 -24207334.24645  21463406.7894                   21463404.8444
  -2518290.93447  -1950658.25044  24176554.2274                   24176556.5744
 -13868832.32847 -10794903.62544  23417671.7894                   23417672.9574
 -31821876.65647 -24784120.00846  20500471.6724                   20500467.5744
 11  8 19  0 21  0.0000000  0  9G12G30G17G10G05G04G25G09G02
 -21927055.20347 -17074465.32446  21399450.6884                   21399447.8014
  -3963963.31246  -3076650.68444  23661286.8984                   23661285.9224
 -30072573.89847 -23421256.53544  22984873.9304                   22984872.2304
 -28006508.65247 -21812529.43446  20773188.1254                   20773185.7974
 -17336662.43447 -13497168.13346  21986035.5864                   21986034.2584
 -31034116.12548 -24169479.84845  21472651.1024                   21472649.1764
  -2646199.49246  -2050327.27044  24152214.1644                   24152216.0594
 -13818997.44147 -10756071.33244  23427155.2664                   23427155.8714
 -31851458.92248 -24807171.10546  20494842.6094                   20494838.3014
 11  8 19  0 21 30.0000000  0  9G12G30G17G10G05G04G25G09G02
 -22017080.82447 -17144615.13746  21382319.2274                   21382316.6254
  -4090477.47347  -3175233.09844  23637212.2424                   23637211.2584
 -30048101.39847 -23402187.08244  22989530.2274                   22989529.1764
 -28038036.28548 -21837096.38746  20767188.8284                   20767186.9344
 -17455637.23447 -13589875.67246  21963395.0784                   21963393.7624
 -30985371.45748 -24131497.00846  21481926.7584                   21481924.8204
  -2773944.98846  -2149869.14543  24127904.7814                   24127906.2424
 -13768958.15247 -10717079.74644  23436676.4304                   23436677.3954
 -31880731.57048 -24829980.94947  20489272.2034                   20489267.2274
 11  8 19  0 22  0.0000000  0  9G12G30G17G10G05G04G25G09G02
 -22106682.45747 -17214434.57446  21365268.6414                   21365265.8364
  -4216730.10547  -3273611.73044  23613187.3674                   23613186.0004
 -30023465.17647 -23382990.03144  22994219.2344                   22994216.9734
 -28068923.78148 -21861164.53946  20761310.8594                   20761308.6294
 -17574316.19147 -13682352.69946  21940811.4614                   21940809.7544
 -30936463.36748 -24093386.82046  21491233.6414                   21491232.3834
  -2901523.91046  -2249281.28943  24103626.7974                   24103627.5634
 -13718716.91047 -10677930.80144  23446237.8444                   23446237.9454
 -31909694.71548 -24852549.61746  20483760.5084                   20483756.2114
 11  8 19  0 22 30.0000000  0  9G12G30G17G10G05G04G25G09G02
 -22195855.89147 -17283920.33246  21348299.3594                   21348296.7664
  -4342716.89547  -3371783.20344  23589212.6644                   23589211.0434
 -29998663.15247 -23363663.80145  22998938.4454                   22998937.1954
 -28099169.10947 -21884732.30946  20755555.4534                   20755553.1174
 -17692694.77047 -13774595.66846  21918284.6564                   21918283.1564
 -30887392.02048 -24055149.42646  21500572.1724                   21500570.0474
  -3028932.25046  -2348560.55143  24079382.4614                   24079383.3244
 -13668275.74647 -10638626.08644  23455836.9774                   23455837.1484
 -31938348.02348 -24874876.86346  20478308.1414                   20478303.5474
 11  8 19  0 23  0.0000000  0  9G12G30G17G10G05G04G25G09G02
 -22284601.00447 -17353072.35546  21331412.2504                   21331408.8484
  -4468436.91046  -3469746.77043  23565287.6954                   23565287.4494
 -29973696.59447 -23344209.35944  23003689.5164                   23003688.0164
 -28128774.19147 -21907801.17246  20749921.8674                   20749919.6414
 -17810771.99247 -13866603.80945  21895815.4774                   21895814.2664
 -30838161.66848 -24016788.12546  21509940.3984                   21509938.1564
  -3156169.28147  -2447706.28943  24055169.8364                   24055170.6484
 -13617640.03146 -10599169.73444  23465472.4224                   23465473.1454
 -31966694.42247 -24896964.96147  20472913.8364                   20472909.4384
 11  8 19  0 23 30.0000000  0  9G12G30G17G10G05G04G25G09G02
 -22372913.01247 -17421886.88746  21314606.4774                   21314604.0554
  -4593885.02046  -3567498.49243  23541416.7814                   23541415.9804
 -29948562.88747 -23324624.71944  23008472.2344                   23008470.9924
 -28157735.89847 -21930368.72346  20744410.4844                   20744408.3554
 -17928542.50447 -13958372.95746  21873404.0864                   21873403.0664
 -30788771.94948 -23978302.64846  21519338.9614                   21519336.5784
  -3283230.17646  -2546714.77343  24030991.1414                   24030992.1604
 -13566810.89547 -10559562.70744  23475145.3674                   23475145.2154
 -31994732.69547 -24918812.94946  20467578.2344                   20467573.7114
 11  8 19  0 24  0.0000000  0  9G12G30G17G10G05G04G25G09G02
 -20885366.35247 -16262759.59846  21597677.6644                   21597674.8484
  -3143633.87946  -2437432.59443  23817390.0394                   23817389.3164
 -28347841.66447 -22077309.55944  23313079.4844                   23313078.1644
 -26610633.00447 -20724833.97746  21038814.3834                   21038812.3054
 -16470579.59847 -12822297.89846  22150845.4534                   22150843.8094
 -29163806.23048 -22712095.62146  21828559.6094                   21828557.1484
  -1834687.81247  -1417980.40244  24306639.5084                   24306640.3834
 -11940372.98447  -9292208.58244  23784646.0864                   23784646.4264
 -30447043.07047 -23712821.01246  20762093.8914                   20762089.0274
 11  8 19  0 24 30.0000000  0  9G12G30G17G10G05G04G25G09G02
 -20972801.38348 -16330890.77346  21581039.2584                   21581036.3874
  -3268525.98846  -2534751.03143  23793623.7734                   23793623.4694
 -28322367.84847 -22057459.88345  23317927.6724                   23317925.1174
 -26638303.76647 -20746395.58646  21033548.7424                   21033547.0274
 -16587724.86347 -12913579.83646  22128553.2814                   22128551.5984
 -29114100.25048 -22673363.71145  21838018.4144                   21838015.7344
  -1961385.00847  -1516705.48044  24282530.3284                   24282531.1294
 -11889163.28147  -9252304.98444  23794391.6644                   23794391.5204
 -30474465.10548 -23734188.81646  20756875.5784                   20756870.8714
 11  8 19  0 25  0.0000000  0  9G12G30G17G10G05G04G25G09G02
 -21059794.99648 -16398677.99246  21564484.7974                   21564482.2304
  -3393136.23846  -2631849.81243  23769911.1484                   23769910.3364
 -28296723.55547 -22037477.30545  23322807.1884                   23322805.7114
 -26665328.87947 -20767454.09046  21028406.1174                   21028404.1254
 -16704553.50447 -13004615.07046  22106321.3834                   22106320.4614
 -29064239.38347 -22634511.11745  21847506.4694                   21847504.2384
  -2087896.74247  -1615286.01644  24258455.8204                   24258456.8674
 -11837768.74246  -9212257.34444  23804171.4304                   23804171.1764
 -30501581.10947 -23755318.15246  20751715.8914                   20751711.1884
 11  8 19  0 25 30.0000000  0  9G12G30G17G10G05G04G25G09G02
 -21146347.42248 -16466121.41846  21548014.5864                   21548011.7584
  -3517464.53546  -2728728.94143  23746252.1414                   23746251.6684
 -28270910.80547 -22017363.47345  23327718.8674                   23327717.3834
 -26691711.07847 -20788011.62546  21023385.5554                   21023383.3364
 -16821065.10247 -13095403.25846  22084150.0474                   22084148.2894
 -29014228.57048 -22595541.68746  21857023.1804                   21857021.0594
  -2214223.35547  -1713722.30944  24234416.3594                   24234417.8714
 -11786195.73447  -9172070.65644  23813985.8674                   23813985.2384
 -30528395.07447 -23776212.12946  20746612.8984                   20746608.6414
 11  8 19  0 26  0.0000000  0  9G12G30G17G10G05G04G25G09G02
 -21232455.11747 -16533218.30546  21531628.3984                   21531625.6094
  -3641506.65647  -2825385.06643  23722647.8444                   23722646.6294
 -28244927.94147 -21997117.12145  23332663.8674                   23332662.6604
 -26717448.59847 -20808066.82446  21018487.9844                   21018485.7854
 -16937255.69147 -13185941.30946  22062039.3754                   22062038.2464
 -28964068.54348 -22556455.98045  21866568.1024                   21866566.5234
  -2340360.77047  -1812011.16044  24210413.3364                   24210415.0514
 -11734446.31647  -9131746.48444  23823832.7584                   23823833.2854
 -30554906.62948 -23796870.47346  20741568.2974                   20741563.5864
 11  8 19  0 26 30.0000000  0  9G12G30G17G10G05G04G25G09G02
 -21318112.61347 -16599964.38746  21515328.3364                   21515325.6914
  -3765256.63747  -2921813.57443  23699098.9224                   23699097.6684
 -28218771.04747 -21976735.17245  23337640.6024                   23337640.2304
 -26742538.25847 -20827617.19146  21013713.4614                   21013711.5274
 -17053119.18447 -13276224.48446  22039991.5394                   22039989.7154
 -28913758.04748 -22517253.04745  21876142.0634                   21876140.2034
  -2466303.30547  -1910148.14845  24186446.9924                   24186449.5234
 -11682520.81646  -9091285.11344  23833713.7974                   23833715.0234
 -30581113.56648 -23817291.44546  20736581.2114                   20736576.2464
 11  8 19  0 27  0.0000000  0  9G12G30G17G10G05G04G25G09G02
 -21403320.66447 -16666360.24246  21499113.8134                   21499111.2734
  -3888715.28947  -3018015.03944  23675605.1804                   23675603.9224
 -28192443.25447 -21956220.08245  23342650.8134                   23342650.2274
 -26766983.54748 -20846665.45346  21009061.8914                   21009059.8204
 -17168656.39147 -13366253.39846  22018005.3204                   22018003.9774
 -28863302.68048 -22477937.20345  21885743.2974                   21885741.4774
  -2592051.92647  -2008134.00444  24162517.8364                   24162519.8674
 -11630425.73847  -9050691.62544  23843627.6024                   23843628.2274
 -30607020.83248 -23837478.91447  20731651.3444                   20731646.5394
 11  8 19  0 27 30.0000000  0  9G12G30G17G10G05G04G25G09G02
 -21488076.16447 -16732403.47346  21482985.6094                   21482982.8094
  -4011878.30547  -3113986.14144  23652168.0004                   23652166.9224
 -28165942.61347 -21935570.29345  23347693.0394                   23347693.1604
 -26790782.47347 -20865210.05546  21004532.9844                   21004530.5594
 -17283862.94547 -13456024.66846  21996082.1564                   21996080.7194
 -28812702.84848 -22438508.80545  21895372.3364                   21895370.4694
  -2717602.50847  -2105965.53944  24138626.2344                   24138627.9414
 -11578163.42647  -9009967.81644  23853572.3364                   23853573.0594
 -30632628.17647 -23857432.67246  20726778.3914                   20726773.6524
 11  8 19  0 28  0.0000000  0  9G12G30G17G10G05G04G25G09G02
 -21572376.76647 -16798092.24246  21466943.6174                   21466940.9774
  -4134742.74247  -3209724.56643  23628788.0944                   23628786.4224
 -28139268.54747 -21914785.36745  23352770.2034                   23352768.9964
 -26813935.06247 -20883251.01246  21000127.2344                   21000124.8634
 -17398736.12947 -13545536.17646  21974222.7424                   21974220.9304
 -28761960.57848 -22398969.40245  21905028.2344                   21905025.9224
  -2842952.42247  -2203640.69944  24114772.5474                   24114773.9224
 -11525737.12147  -8969116.20744  23863549.5554                   23863549.3674
 -30657936.51247 -23877153.43446  20721962.5864                   20721957.6764
 11  8 19  0 28 30.0000000  0  9G12G30G17G10G05G04G25G09G02
 -21656218.50047 -16863423.44946  21450988.9144                   21450986.3984
  -4257304.35247  -3305227.04344  23605465.2504                   23605463.6844
 -28112418.91847 -21893863.65644  23357879.0864                   23357878.2544
 -26836439.69948 -20900787.06646  20995844.6954                   20995842.4924
 -17513271.57847 -13634784.50446  21952427.2664                   21952425.1484
 -28711076.35248 -22359319.40245  21914711.0864                   21914709.6564
  -2968097.54346  -2301156.27744  24090958.3594                   24090960.0004
 -11473148.83247  -8928138.39844  23873557.2504                   23873556.8634
 -30682945.61747 -23896641.03546  20717203.3054                   20717198.5594
 11  8 19  0 29  0.0000000  0  9G12G30G17G10G05G04G25G09G02
 -21739598.00047 -16928394.46546  21435122.3444                   21435119.9064
  -4379558.85547  -3400490.18044  23582201.0784                   23582199.7934
 -28085391.66447 -21872803.53544  23363022.1024                   23363020.9184
 -26858294.94948 -20917817.11346  20991685.9614                   20991683.5704
 -17627464.44147 -13723765.88346  21930697.0634                   21930695.4264
 -28660050.52747 -22319559.05945  21924420.9064                   21924419.3364
  -3093033.77346  -2398509.09044  24067183.3674                   24067185.0824
 -11420400.14147  -8887035.59044  23883594.2974                   23883594.4454
 -30707655.14847 -23915895.20346  20712501.2034                   20712496.4144
 11  8 19  0 29 30.0000000  0  9G12G30G17G10G05G04G25G09G02
 -21822512.70347 -16993003.30546  21419344.2034                   21419341.4574
  -4501503.45346  -3495511.83244  23558995.5314                   23558994.4844
 -28058186.73047 -21851604.93044  23368199.6804                   23368197.7584
 -26879501.05548 -20934341.32846  20987650.4384                   20987648.1414
 -17741312.84847 -13812478.85546  21909032.4694                   21909031.2814
 -28608885.42248 -22279690.18745  21934157.3674                   21934155.8484
  -3217758.67646  -2495697.18744  24043449.0474                   24043450.3874
 -11367494.66847  -8845810.62944  23893662.1484                   23893662.4414
 -30732066.54747 -23934917.05946  20707855.7194                   20707850.7274
 11  8 19  0 30  0.0000000  0  9G12G30G17G10G05G04G25G09G02
 -21904961.50047 -17057249.10246  21403654.3134                   21403652.4144
  -4623136.18446  -3590290.44944  23535849.0234                   23535848.5314
 -28030803.87546 -21830267.68444  23373409.6414                   23373408.3714
 -26900058.71148 -20950360.25846  20983738.0314                   20983736.3164
 -17854814.54347 -13900921.67646  21887433.5704                   21887431.9884
 -28557583.41848 -22239714.62145  21943920.0634                   21943918.2234
  -3342270.30946  -2592719.14544  24019755.6414                   24019756.7774
 -11314436.81646  -8804466.90644  23903758.2194                   23903758.8674
 -30756181.53148 -23953707.94546  20703266.7424                   20703262.3094
 11  8 19  0 30 30.0000000  0  9G12G30G17G10G05G04G25G09G02
 -21986943.88747 -17121131.46146  21388053.7424                   21388051.2194
  -4744456.05946  -3684825.28144  23512762.4454                   23512761.9344
 -28003244.74647 -21808793.09844  23378653.8984                   23378653.5514
 -26919969.87548 -20965875.43746  20979949.1644                   20979946.8794
 -17967968.54747 -13989093.56246  21865901.4304                   21865899.6484
 -28506148.40648 -22199635.41845  21953707.5314                   21953705.8204
  -3466567.90647  -2689574.30544  23996102.1174                   23996103.8954
 -11261231.46547  -8763008.25844  23913883.0864                   23913883.6134
 -30780003.35548 -23972270.39146  20698733.9384                   20698728.7384
 11  8 19  0 31  0.0000000  0  9G12G30G17G10G05G04G25G09G02
 -22068456.78548 -17184647.98846  21372542.4694                   21372539.7814
  -4865459.35946  -3779113.45344  23489736.5164                   23489735.9144
 -27975508.14847 -21787180.20745  23383932.9384                   23383931.5864
 -26939233.62948 -20980886.14546  20976283.5864                   20976281.2814
 -18080770.85547 -14076991.39546  21844435.3284                   21844433.4574
 -28454581.46948 -22159453.40245  21963520.3594                   21963519.2304
  -3590648.08247  -2786260.04744  23972490.7114                   23972492.4184
 -11207881.38347  -8721436.86344  23924035.2274                   23924036.1174
 -30803532.19548 -23990604.53946  20694256.3204                   20694251.6564
 11  8 19  0 31 30.0000000  0  9G12G30G17G10G05G04G25G09G02
 -22149495.27348 -17247794.83646  21357121.2424                   21357118.7814
  -4986140.63747  -3873150.70344  23466771.6094                   23466770.8094
 -27947590.66047 -21765426.36744  23389245.6254                   23389243.9844
 -26957847.43048 -20995390.39546  20972741.3284                   20972739.1484
 -18193215.89847 -14164610.85246  21823037.7974                   21823036.2664
 -28402882.01647 -22119168.13745  21973358.9454                   21973357.2234
  -3714505.49247  -2882772.20344  23948921.4694                   23948921.8244
 -11154387.33246  -8679753.29344  23934215.2814                   23934215.1294
 -30826766.71147 -24008709.35546  20689834.9384                   20689830.2734
 11  8 19  0 32  0.0000000  0  9G12G30G17G10G05G04G25G09G02
 -22230060.76248 -17310573.11346  21341790.0084                   21341787.6334
  -5106500.53146  -3966937.55144  23443867.6484                   23443866.5004
 -27919495.21947 -21743533.85944  23394591.3204                   23394590.1724
 -26975815.09048 -21009391.16046  20969322.2114                   20969319.9534
 -18305305.07047 -14251953.00846  21801707.9924                   21801706.3284
 -28351055.11748 -22078783.55145  21983220.9144                   21983219.4144
  -3838140.91447  -2979111.40244  23925394.7034                   23925395.6454
 -11100756.07047  -8637962.79344  23944421.1644                   23944420.9344
 -30849711.34448 -24026588.28146  20685468.9774                   20685464.0704
 11  8 19  0 32 30.0000000  0  9G12G30G17G10G05G04G25G09G02
 -22310149.55548 -17372979.93446  21326549.9384                   21326547.1524
  -5226534.53147  -4060470.44544  23421025.5004                   23421024.9964
 -27891219.57847 -21721500.92644  23399972.5554                   23399970.3444
 -26993134.86748 -21022887.07846  20966026.6804                   20966024.1564
 -18417033.51648 -14339014.07446  21780446.8914                   21780444.8484
 -28299101.25448 -22038300.04345  21993107.8674                   21993106.1844
  -3961550.09847  -3075274.26244  23901910.1724                   23901911.3244
 -11046989.39547  -8596066.78944  23954652.6094                   23954653.5164
 -30872365.60948 -24044240.95746  20681157.5234                   20681152.9304
 11  8 19  0 33  0.0000000  0  9G12G30G17G10G05G04G25G09G02
 -22389755.14848 -17435010.23846  21311401.7584                   21311398.9144
  -5346235.68047  -4153744.01644  23398247.4924                   23398246.6174
 -27862758.90247 -21699323.82444  23405387.8364                   23405386.4384
 -27009803.13348 -21035875.33246  20962854.6954                   20962852.1524
 -18528394.63747 -14425788.91846  21759255.2814                   21759253.4224
 -28247017.86747 -21997715.61745  22003018.5234                   22003017.2384
  -4084726.22347  -3171255.53944  23878470.4144                   23878471.7304
 -10993086.44547  -8554064.58244  23964910.1644                   23964910.7034
 -30894726.53148 -24061665.03946  20676902.6484                   20676897.6804
 11  8 19  0 33 30.0000000  0  9G12G30G17G10G05G04G25G09G02
 -22468878.46548 -17496664.74246  21296344.7664                   21296341.8674
  -5465604.25847  -4246758.41044  23375532.5314                   23375531.1764
 -27834116.25047 -21677004.91844  23410839.0864                   23410837.5594
 -27025822.73848 -21048358.11746  20959806.3284                   20959804.0864
 -18639388.48047 -14512277.57446  21738134.1484                   21738132.3714
 -28194810.14147 -21957034.29345  22012953.5084                   22012952.0744
  -4207669.77347  -3267055.57444  23855074.8364                   23855075.9494
 -10939053.53946  -8511961.12144  23975192.2974                   23975193.1134
 -30916798.64148 -24078864.07846  20672701.8914                   20672697.6334
 11  8 19  0 34  0.0000000  0  9G12G30G17G10G05G04G25G09G02
 -22547516.22748 -17557940.89146  21281380.3984                   21281377.5824
  -5584636.01647  -4339510.38344  23352881.5634                   23352879.8754
 -27805289.44947 -21654542.54744  23416324.1254                   23416323.3754
 -27041192.68748 -21060334.68046  20956881.3674                   20956879.1644
 -18750010.89547 -14598476.79346  21717083.1644                   21717081.1054
 -28142478.30948 -21916256.26245  22022911.8444                   22022910.3834
  -4330376.66047  -3362671.23045  23831725.2274                   23831725.5394
 -10884892.85246  -8469758.12544  23985498.1724                   23985499.5594
 -30938581.59048 -24095837.79746  20668557.0784                   20668552.4734
 11  8 19  0 34 30.0000000  0  9G12G30G17G10G05G04G25G09G02
 -22625667.00048 -17618837.55946  21266508.7344                   21266505.8554
  -5703329.26247  -4431998.57844  23330294.8984                   23330293.0004
 -27776279.36347 -21631937.31644  23421844.7894                   23421843.5634
 -27055914.45348 -21071806.17646  20954079.6334                   20954077.8164
 -18860260.16847 -14684385.27046  21696103.1884                   21696101.3674
 -28090025.59048 -21875384.02345  22032893.2344                   22032891.6334
  -4452845.28547  -3458101.21144  23808419.7194                   23808420.7384
 -10830608.63747  -8427458.84044  23995828.6884                   23995829.1914
 -30960077.52348 -24112587.87146  20664466.4534                   20664461.7504
 11  8 19  0 35  0.0000000  0  9G12G30G17G10G05G04G25G09G02
 -22703329.42648 -17679353.69546  21251730.3054                   21251727.4024
  -5821681.58247  -4524221.15244  23307773.1254                   23307771.4494
 -27747085.82447 -21609189.14845  23427400.2114                   23427400.0664
 -27069988.94948 -21082773.30546  20951401.6724                   20951399.3554
 -18970134.28547 -14770001.41846  21675194.7504                   21675193.1174
 -28037453.98448 -21834419.14545  22042897.0864                   22042895.6954
  -4575073.53947  -3553343.92644  23785160.2894                   23785161.1684
 -10776204.73847  -8385066.29744  24006181.1644                   24006182.1214
 -30981288.12548 -24129115.61346  20660430.5004                   20660425.6414
 11  8 19  0 35 30.0000000  0  9G12G30G17G10G05G04G25G09G02
 -22780499.89848 -17739486.50446  21237045.2504                   21237042.1134
  -5939688.78147  -4616174.78544  23285316.9144                   23285315.4264
 -27717706.73447 -21586296.42245  23432991.2034                   23432990.5784
 -27083414.96948 -21093235.12546  20948846.7894                   20948844.5354
 -19079628.90647 -14855321.84846  21654358.5704                   21654357.0164
 -27984764.00047 -21793362.02745  22052924.0634                   22052922.7344
  -4697057.28147  -3648396.07444  23761946.8054                   23761948.9454
 -10721682.92246  -8342581.90244  24016557.1644                   24016557.5164
 -31002213.14148 -24145420.81646  20656448.4454                   20656443.5314
 11  8 19  0 36  0.0000000  0  9G12G30G17G10G05G04G25G09G02
 -22857177.93748 -17799235.59446  21222453.8914                   21222450.6884
  -6057349.60547  -4707858.53944  23262926.6724                   23262925.6454
 -27688143.32847 -21563260.09444  23438616.7194                   23438615.8834
 -27096194.13348 -21103192.90646  20946414.8134                   20946412.3914
 -19188742.97347 -14940345.73446  21633595.0784                   21633593.6254
 -27931959.12147 -21752215.39545  22062972.3754                   22062970.9534
  -4818795.48447  -3743256.91845  23738780.6644                   23738782.5824
 -10667048.35547  -8300009.66444  24026953.7424                   24026954.4264
 -31022855.60248 -24161505.84446  20652520.2194                   20652515.4304
 11  8 19  0 36 30.0000000  0  9G12G30G17G10G05G04G25G09G02
 -22933360.93048 -17858598.93746  21207956.4774                   21207953.5274
  -6174660.52047  -4799269.63744  23240603.2814                   23240602.6524
 -27658394.25046 -21540079.04744  23444277.7194                   23444277.7934
 -27108326.32848 -21112646.55546  20944106.3204                   20944103.5004
 -19297473.08648 -15025070.44546  21612904.4454                   21612902.4064
 -27879040.28547 -21710979.95345  22073042.6724                   22073040.8404
  -4940284.68747  -3837923.75845  23715661.9924                   23715664.1414
 -10612303.55947  -8257351.48444  24037370.4614                   24037371.9774
 -31043215.79748 -24177370.93046  20648645.9844                   20648641.3554
 11  8 19  0 37  0.0000000  0  9G12G30G17G10G05G04G25G09G02
 -23009044.49248 -17917573.12146  21193554.3674                   21193551.4734
  -6291616.66847  -4890404.25044  23218347.2504                   23218346.4024
 -27628457.06247 -21516751.44144  23449974.5474                   23449974.2544
 -27119809.84848 -21121594.72346  20941920.8524                   20941918.3364
 -19405814.21947 -15109492.05946  21592288.0164                   21592285.5514
 -27826007.30947 -21669655.58645  22083134.3204                   22083132.9344
  -5061520.11747  -3932392.87145  23692592.1414                   23692593.1214
 -10557449.54746  -8214608.27044  24047809.1884                   24047811.1644
 -31063292.76648 -24193015.32846  20644825.4454                   20644820.8444
 11  8 19  0 37 30.0000000  0  9G12G30G17G10G05G04G25G09G02
 -23084228.01248 -17976157.64846  21179247.7584                   21179244.3014
  -6408216.29347  -4981261.07844  23196159.1334                   23196157.8444
 -27598332.25047 -21493277.61344  23455707.7894                   23455706.8874
 -27130646.53548 -21130038.87546  20939858.5784                   20939856.4184
 -19513764.97348 -15193609.46546  21571745.0864                   21571743.4654
 -27772863.18447 -21628244.59845  22093247.3834                   22093245.2704
  -5182500.31247  -4026663.12945  23669571.3834                   23669571.4574
 -10502491.00846  -8171783.60944  24058267.5314                   24058268.9024
 -31083089.02348 -24208440.98846  20641058.4304                   20641053.9064
 11  8 19  0 38  0.0000000  0  9G12G30G17G10G05G04G25G09G02
 -23158908.20348 -18034349.98846  21165036.1414                   21165033.5704
  -6524455.63747  -5071837.15244  23174039.0634                   23174038.4734
 -27568018.69547 -21469656.69944  23461476.5394                   23461475.1564
 -27140836.07448 -21137978.75846  20937919.5784                   20937917.2464
 -19621321.59447 -15277419.76646  21551277.6484                   21551276.2974
 -27719608.38347 -21586747.36745  22103381.4614                   22103379.8834
  -5303221.47347  -4120731.55145  23646597.9774                   23646599.0824
 -10447430.33646  -8128879.32044  24068744.9774                   24068746.3634
 -31102604.43448 -24223647.80946  20637344.3984                   20637339.7774
 11  8 19  0 38 30.0000000  0  9G12G30G17G10G05G04G25G09G02
 -23233083.88748 -18092149.19146  21150921.0554                   21150918.3324
  -6640332.79747  -5162131.02044  23151988.9304                   23151987.8244
 -27537516.89847 -21445889.14845  23467280.8754                   23467279.9224
 -27150379.69948 -21145415.32846  20936103.6564                   20936101.2274
 -19728482.43048 -15360921.65246  21530885.6174                   21530883.8244
 -27666245.84047 -21545166.18445  22113536.4144                   22113534.2814
  -5423682.06647  -4214596.90245  23623674.6174                   23623675.9734
 -10392271.67647  -8085898.65644  24079242.5634                   24079242.7974
 -31121841.42248 -24238637.68446  20633683.9304                   20633679.1214
 11  8 19  0 39  0.0000000  0  9G12G30G17G10G05G04G25G09G02
 -23306752.68048 -18149553.41046  21136902.4774                   21136899.3134
  -6755844.55546  -5252140.12944  23130007.8134                   23130006.3164
 -27506825.75847 -21421974.03544  23473120.3444                   23473120.1254
 -27159277.18748 -21152348.41446  20934410.4534                   20934408.1524
 -19835243.93448 -15444112.37946  21510569.4534                   21510567.6334
 -27612776.76647 -21503501.97745  22123710.9454                   22123709.4534
  -5543878.69147  -4308256.59044  23600802.0164                   23600802.9774
 -10337017.57047  -8042843.66044  24089757.1024                   24089757.0234
 -31140800.62548 -24253411.08646  20630076.4614                   20630071.3014
 11  8 19  0 39 30.0000000  0  9G12G30G17G10G05G04G25G09G02
 -23379908.25848 -18206557.73046  21122981.1334                   21122978.3014
  -6870983.78146  -5341858.96944  23108097.2274                   23108095.8204
 -27475940.26647 -21397907.46144  23478997.9224                   23478996.8914
 -27167525.04348 -21158775.29346  20932840.9844                   20932838.5744
 -19941599.71548 -15526986.95746  21490330.8134                   21490329.0594
 -27559198.63347 -21461752.79745  22133906.5164                   22133904.9224
  -5663804.37947  -4401705.18744  23577981.0314                   23577981.3324
 -10281667.21947  -7999713.65644  24100290.2894                   24100290.4224
 -31159478.85248 -24267965.55546  20626521.8054                   20626517.0164
 11  8 19  0 40  0.0000000  0  9G12G30G17G10G05G04G25G09G02
 -23452549.43448 -18263161.21946  21109158.1414                   21109155.1804
  -6985748.32447  -5431285.81644  23086257.8594                   23086257.1414
 -27444860.77346 -21373689.73844  23484912.2664                   23484911.1214
 -27175124.36348 -21164696.82046  20931394.9694                   20931392.3914
 -20047547.58248 -15609543.68046  21470169.4454                   21470167.8054
 -27505513.61347 -21419920.34045  22144122.4774                   22144121.0784
  -5783457.22747  -4494941.19144  23555212.5314                   23555212.5704
 -10226224.48846  -7956511.64544  24110840.0634                   24110841.0474
 -31177878.02348 -24282302.58246  20623020.6564                   20623015.8404
 11  8 19  0 40 30.0000000  0  9G12G30G17G10G05G04G25G09G02
 -23524677.61348 -18319364.96946  21095432.4844                   21095429.5594
  -7100138.59447  -5520421.04344  23064490.5634                   23064489.4494
 -27413590.04346 -21349322.96944  23490862.8364                   23490861.9184
 -27182078.92648 -21170115.94546  20930071.4614                   20930069.1604
 -20153088.08648 -15691782.98446  21450085.7504                   21450084.0084
 -27451726.85248 -21378008.60545  22154358.0004                   22154356.6914
  -5902837.73047  -4587964.95744  23532494.9534                   23532495.0744
 -10170695.69146  -7913242.60243  24121406.9454                   24121408.2424
 -31196002.51248 -24296425.57046  20619571.8444                   20619566.8164
 11  8 19  0 41  0.0000000  0  9G12G30G17G10G05G04G25G09G02
 -23596290.05548 -18375166.86346  21081805.3594                   21081802.1484
  -7214151.24247  -5609262.02044  23042794.9224                   23042793.6684
 -27382126.98047 -21324806.31244  23496850.3914                   23496849.1214
 -27188388.78948 -21175032.70746  20928870.6334                   20928868.5314
 -20258218.08648 -15773702.41446  21430080.2974                   21430078.3364
 -27397839.48847 -21336018.48045  22164612.5864                   22164610.9614
  -6021942.53147  -4680773.91044  23509829.6564                   23509829.7734
 -10115083.77046  -7869908.80544  24131989.6174                   24131990.7704
 -31213852.87548 -24310334.94146  20616174.5864                   20616170.2384
 11  8 19  0 41 30.0000000  0  9G12G30G17G10G05G04G25G09G02
 -23667385.71548 -18430566.05546  21068275.8674                   21068273.0044
  -7327784.50447  -5697807.37544  23021170.7504                   23021170.2734
 -27350472.14547 -21300140.25844  23502873.4844                   23502872.0824
 -27194055.58648 -21179448.38346  20927792.5164                   20927790.1914
 -20362935.99648 -15855300.73046  21410153.1094                   21410151.2664
 -27343853.99247 -21293951.88345  22174885.5084                   22174883.7974
  -6140769.99247  -4773366.71144  23487217.5084                   23487218.7304
 -10059393.08646  -7826513.57444  24142587.3754                   24142588.9964
 -31231431.54348 -24324032.60246  20612829.8594                   20612824.7814
 11  8 19  0 42  0.0000000  0  9G12G30G17G10G05G04G25G09G02
 -23737962.08648 -18485560.60946  21054845.7664                   21054842.9454
  -7441034.72347  -5786054.23844  22999619.7114                   22999618.4774
 -27318624.36347 -21275323.82844  23508934.4304                   23508933.4144
 -27199079.27048 -21183362.92646  20926836.2114                   20926834.4884
 -20467238.19948 -15936575.11746  21390305.0084                   21390303.2114
 -27289771.22347 -21251809.50045  22185177.3134                   22185175.1884
  -6259316.50447  -4865740.59844  23464659.0394                   23464660.1724
 -10003625.97746  -7783058.82043  24153199.3914                   24153200.8634
 -31248738.34448 -24337518.41846  20609536.5084                   20609531.7074
 11  8 19  0 42 30.0000000  0  9G12G30G17G10G05G04G25G09G02
 -23808016.19548 -18540148.20746  21041514.8284                   21041512.0274
  -7553898.25447  -5873999.78144  22978142.6024                   22978141.4064
 -27286582.03946 -21250355.84844  23515032.5004                   23515031.0514
 -27203459.71948 -21186776.24246  20926002.9224                   20926000.3914
 -20571121.27348 -16017522.91446  21370536.4694                   21370534.2814
 -27235592.26247 -21209592.15645  22195487.3134                   22195485.1684
  -6377578.51647  -4957892.75844  23442154.2344                   23442155.7774
  -9947784.65246  -7739546.20343  24163825.8204                   24163826.4304
 -31265773.98448 -24350792.93046  20606294.8204                   20606289.6604
 11  8 19  0 43  0.0000000  0  9G12G30G17G10G05G04G25G09G02
 -23877547.09048 -18594328.10546  21028283.3834                   21028280.8284
  -7666372.85547  -5961642.28144  22956740.2114                   22956738.5514
 -27254345.72346 -21225236.70344  23521165.6804                   23521165.9344
 -27207198.01248 -21189689.18046  20925291.1484                   20925289.0004
 -20674582.90248 -16098142.31246  21350848.5634                   21350846.5234
 -27181319.07447 -21167301.37145  22205814.6954                   22205813.2934
  -6495554.00047  -5049821.68044  23419704.7034                   23419705.7894
  -9891872.84846  -7695978.69543  24174466.1174                   24174466.5554
 -31282540.51248 -24363857.74246  20603104.3284                   20603099.4774
 11  8 19  0 43 30.0000000  0  9G12G30G17G10G05G04G25G09G02
 -23946552.43048 -18648098.49246  21015152.2194                   21015149.6334
  -7778455.92647  -6048979.69544  22935410.7734                   22935409.5634
 -27221914.75846 -21199965.88744  23527338.0004                   23527337.2544
 -27210294.98448 -21192102.39146  20924702.1414                   20924699.8094
 -20777620.70348 -16178431.45346  21331240.9534                   21331239.5084
 -27126953.41447 -21124938.54345  22216160.0394                   22216158.3714
  -6613240.17247  -5141525.16445  23397309.2974                   23397310.3524
  -9835893.85546  -7652358.85243  24185118.0394                   24185119.8164
 -31299038.73048 -24376713.48846  20599964.4774                   20599959.5044
 11  8 19  0 44  0.0000000  0  9G12G30G17G10G05G04G25G09G02
 -24015030.59448 -18701458.09846  21002121.5554                   21002118.5474
  -7890144.71147  -6136009.90644  22914157.6174                   22914155.8444
 -27189288.93746 -21174543.22344  23533545.6414                   23533546.0474
 -27212752.00848 -21194016.94946  20924234.6174                   20924232.0474
 -20880232.72748 -16258388.82046  21311714.4774                   21311712.5984
 -27072497.03147 -21082505.03145  22226522.4534                   22226521.3634
  -6730634.56647  -5233001.28544  23374970.1254                   23374970.3324
  -9779850.98046  -7608689.20343  24195782.8914                   24195783.9144
 -31315269.91848 -24389361.15246  20596875.7034                   20596870.9454
 11  8 19  0 44 30.0000000  0  9G12G30G17G10G05G04G25G09G02
 -24082980.04348 -18754405.71546  20989191.0864                   20989188.3754
  -8001436.59847  -6222730.80944  22892978.7424                   22892978.0704
 -27156467.70346 -21148968.27744  23539791.7974                   23539791.4144
 -27214569.59848 -21195433.23846  20923888.4064                   20923886.0554
 -20982416.18448 -16338012.23846  21292269.7344                   21292267.4614
 -27017951.42247 -21040002.00845  22236902.8444                   22236901.4694
  -6847734.37547  -5324247.83244  23352686.6414                   23352687.5704
  -9723747.54347  -7564972.39844  24206459.5394                   24206460.1134
 -31331235.41448 -24401801.80146  20593837.8284                   20593832.7234
 11  8 19  0 45  0.0000000  0  9G12G30G17G10G05G04G25G09G02
 -24150399.23448 -18806940.15246  20976361.4064                   20976358.5824
  -8112329.03147  -6309140.45744  22871876.6024                   22871875.6604
 -27123451.30146 -21123241.26644  23546075.3134                   23546074.4734
 -27215749.21548 -21196352.40646  20923664.1024                   20923661.8014
 -21084168.82448 -16417299.95346  21272906.8284                   21272904.9774
 -26963318.78947 -20997431.15245  22247298.9924                   22247297.3674
  -6964537.46147  -5415263.17645  23330459.3524                   23330460.8444
  -9667587.33246  -7521211.33243  24217146.4534                   24217147.1214
 -31346936.72348 -24414036.57446  20590849.7194                   20590845.0474
 11  8 19  0 45 30.0000000  0  9G12G30G17G10G05G04G25G09G02
 -24217288.54748 -18859061.69146  20963633.1804                   20963630.0124
  -8222821.60247  -6395238.51644  22850850.6804                   22850849.2504
 -27090241.08247 -21097363.19544  23552394.5004                   23552393.7074
 -27216293.46148 -21196776.48446  20923561.0004                   20923558.2074
 -21185489.82048 -16496251.33246  21253625.7894                   21253623.6994
 -26908602.66047 -20954795.23445  22257710.7664                   22257709.7854
  -7081043.07447  -5506046.69545  23308288.9454                   23308291.2384
  -9611375.71146  -7477410.26643  24227843.3284                   24227844.9804
 -31362377.37148 -24426068.24246  20587911.5474                   20587906.7934
 11  8 19  0 46  0.0000000  0  9G12G30G17G10G05G04G25G09G02
 -24283641.78948 -18910765.52346  20951006.2814                   20951003.2854
  -8332907.10247  -6481019.40244  22829902.0944                   22829900.6994
 -27056832.69547 -21071330.72744  23558752.4454                   23558751.2734
 -27216199.14148 -21196702.96546  20923578.6804                   20923576.4774
 -21286372.86348 -16574861.43746  21234428.2974                   21234426.5864
 -26853800.63747 -20912092.40245  22268139.7274                   22268138.1724
  -7197244.39147  -5596593.12145  23286177.3674                   23286177.9144
  -9555111.23046  -7433567.93743  24238549.9774                   24238551.1414
 -31377554.11348 -24437894.26247  20585023.7584                   20585018.7734
 11  8 19  0 46 30.0000000  0  9G12G30G17G10G05G04G25G09G02
 -24349460.65248 -18962052.94146  20938481.2194                   20938478.4414
  -8442586.75047  -6566484.02044  22809031.0634                   22809029.4454
 -27023229.35546 -21045146.33644  23565146.2734                   23565145.6454
 -27215471.46148 -21196135.92246  20923716.7974                   20923714.6214
 -21386819.31648 -16653131.35246  21215314.0784                   21215312.0634
 -26798917.73047 -20869326.54345  22278583.7664                   22278581.6414
  -7313142.43047  -5686903.23045  23264122.4144                   23264123.5394
  -9498800.78946  -7389689.85243  24249266.0704                   24249267.6764
 -31392472.09848 -24449518.65647  20582184.8984                   20582179.7704
 11  8 19  0 47  0.0000000  0  9G12G30G17G10G05G04G25G09G02
 -24414743.84848 -19012922.96946  20926058.5634                   20926055.8284
  -8551857.72747  -6651630.20744  22788237.2974                   22788235.4774
 -26989430.78546 -21018809.80944  23571578.2424                   23571577.5664
 -27214111.03948 -21195075.85546  20923975.8364                   20923973.5394
 -21486826.41448 -16731058.91046  21196283.4304                   21196281.2774
 -26743955.87147 -20826499.16045  22289042.5084                   22289040.7854
  -7428734.52347  -5776974.93045  23242126.5004                   23242127.1174
  -9442447.73046  -7345778.57043  24259988.9384                   24259990.7424
 -31407132.25448 -24460942.14546  20579394.9304                   20579389.9024
 11  8 19  0 47 30.0000000  0  9G12G30G17G10G05G04G25G09G02
 -24479486.85248 -19063372.05946  20913738.3284                   20913735.3284
  -8660714.42647  -6736453.55944  22767522.0944                   22767520.7664
 -26955433.41846 -20992318.38344  23578048.1484                   23578047.2154
 -27212115.84448 -21193521.15246  20924355.3984                   20924353.3284
 -21586388.69948 -16808639.86346  21177337.1254                   21177335.3634
 -26688913.50847 -20783609.03945  22299516.7974                   22299514.9454
  -7544015.01247  -5866803.82045  23220188.3204                   23220190.5044
  -9386052.22346  -7301834.16843  24270720.9384                   24270722.5704
 -31421532.84048 -24472163.37147  20576654.6334                   20576650.1024
 11  8 19  0 48  0.0000000  0  9G12G30G17G10G05G04G25G09G02
 -24543691.95348 -19113402.01246  20901520.7114                   20901517.6884
  -8769158.29347  -6820955.22344  22746885.9844                   22746884.6994
 -26921241.10946 -20965675.08644  23584554.7194                   23584553.3404
 -27209491.10547 -21191475.89846  20924854.8754                   20924852.7894
 -21685508.21548 -16885875.81246  21158475.6724                   21158473.5864
 -26633796.32847 -20740660.60945  22310005.4384                   22310003.8054
  -7658985.42247  -5956391.09045  23198310.7194                   23198311.1994
  -9329621.76246  -7257862.58243  24281459.9224                   24281460.8164
 -31435679.05148 -24483186.39146  20573962.4774                   20573957.7624
 11  8 19  0 48 30.0000000  0  9G12G30G17G10G05G04G25G09G02
 -24607353.70748 -19163008.57446  20889406.1254                   20889403.0354
  -8877183.05147  -6905130.32444  22726329.8524                   22726327.9844
 -26886850.12546 -20938876.89544  23591099.0474                   23591098.0864
 -27206234.28147 -21188938.12546  20925474.6024                   20925472.2034
 -21784178.67248 -16962761.82846  21139698.8134                   21139697.2624
 -26578602.42247 -20697652.43445  22320508.5634                   22320506.3794
  -7773639.52747  -6045731.88745  23176492.3284                   23176493.1644
  -9273155.85245  -7213863.34043  24292204.6094                   24292206.4734
 -31449569.14548 -24494009.83246  20571319.5634                   20571314.5044
 11  8 19  0 49  0.0000000  0  9G12G30G17G10G05G04G25G09G02
 -24670473.10948 -19212192.52046  20877394.8054                   20877392.1214
  -8984788.75447  -6988978.87144  22705853.3284                   22705851.4104
 -26852262.68446 -20911925.67644  23597680.7814                   23597680.5704
 -27202348.78547 -21185910.46946  20926214.1884                   20926211.5824
 -21882400.35548 -17039298.15246  21121008.1644                   21121006.2194
 -26523335.96547 -20654587.68045  22331025.0314                   22331023.3794
  -7887977.27047  -6134826.18045  23154734.7114                   23154734.9144
  -9216660.20746  -7169840.94943  24302956.5944                   24302958.3014
 -31463206.77048 -24504636.53546  20568724.3834                   20568719.4964
 11  8 19  0 49 30.0000000  0  9G12G30G17G10G05G04G25G09G02
 -24733045.77348 -19260950.43046  20865487.7974                   20865485.1254
  -9091970.00447  -7072496.69144  22685457.3054                   22685455.5204
 -26817475.75846 -20884818.99244  23604300.1564                   23604299.2544
 -27197833.48048 -21182392.05946  20927073.3834                   20927071.3674
 -21980168.23048 -17115480.86746  21102403.4144                   21102401.1994
 -26467995.78147 -20611465.48845  22341556.3204                   22341554.3634
  -8001993.34447  -6223669.82845  23133037.9614                   23133038.5274
  -9160135.60946  -7125795.98844  24313712.7504                   24313714.3794
 -31476590.28948 -24515065.24247  20566177.5864                   20566172.6954
 11  8 19  0 50  0.0000000  0  9G12G30G17G10G05G04G25G09G02
 -24795071.93748 -19309282.49646  20853684.5314                   20853681.5554
  -9198725.30947  -7155682.56645  22665141.9384                   22665140.6374
 -26782490.30946 -20857557.68044  23610957.2034                   23610957.1294
 -27192690.78948 -21178384.77046  20928051.9924                   20928049.7544
 -22077481.08248 -17191309.02046  21083885.2344                   21083883.1844
 -26412584.49247 -20568287.88345  22352100.4534                   22352099.0354
  -8115686.21147  -6312261.59445  23111402.8754                   23111403.8444
  -9103586.30146  -7081731.78544  24324473.4534                   24324475.4064
 -31489722.12148 -24525297.82847  20563678.5704                   20563673.7074
 11  8 19  0 50 30.0000000  0  9G12G30G17G10G05G04G25G09G02
 -24856547.06248 -19357185.17246  20841985.9144                   20841983.3014
  -9305049.64147  -7238532.61745  22644909.4534                   22644908.3364
 -26747303.37946 -20830139.30943  23617653.0004                   23617652.7704
 -27186919.46947 -21173887.62546  20929150.4224                   20929147.9654
 -22174334.16448 -17266778.91046  21065454.6254                   21065452.4454
 -26357101.49247 -20525054.39845  22362658.6724                   22362657.0044
  -8229050.84047  -6400597.62145  23089830.0554                   23089830.7734
  -9047013.09846  -7037648.95744  24335239.1954                   24335241.5274
 -31502600.94948 -24535333.27346  20561227.9844                   20561222.7384
 11  8 19  0 51  0.0000000  0  9G12G30G17G10G05G04G25G09G02
 -24917473.00848 -19404659.92246  20830392.4224                   20830389.0274
  -9410943.68447  -7321047.40245  22624758.6954                   22624756.7934
 -26711918.04746 -20802566.34444  23624386.7344                   23624386.0944
 -27180524.05948 -21168904.19146  20930367.1644                   20930365.2734
 -22270727.99648 -17341890.93746  21047111.5634                   21047109.5784
 -26301551.34047 -20481768.59445  22373229.4924                   22373227.8134
  -8342087.96547  -6488678.45345  23068319.7194                   23068320.3134
  -8990422.36746  -6993552.47744  24346008.3204                   24346010.3014
 -31515231.56648 -24545175.30546  20558824.2424                   20558819.6094
 11  8 19  0 51 30.0000000  0  9G12G30G17G10G05G04G25G09G02
 -24977848.89548 -19451706.05146  20818903.2114                   20818900.1724
  -9516405.75847  -7403225.59845  22604689.7734                   22604688.1054
 -26676334.70746 -20774839.11744  23631159.3364                   23631156.8014
 -27173506.48448 -21163435.96546  20931702.5474                   20931700.4104
 -22366661.57848 -17416644.34046  21028855.6884                   21028854.0084
 -26245936.51247 -20438432.38345  22383812.3754                   22383811.3594
  -8454795.75447  -6576502.64544  23046872.5164                   23046872.5784
  -8933817.94546  -6949445.35244  24356780.1724                   24356782.5164
 -31527615.71948 -24554825.29346  20556467.5784                   20556463.1254
 11  8 19  0 52  0.0000000  0  9G12G30G17G10G05G04G25G09G02
 -25037671.24248 -19498320.84846  20807519.3674                   20807516.4144
  -9621431.09047  -7485063.45344  22584703.7974                   22584702.5904
 -26640551.14547 -20746955.81244  23637967.7584                   23637966.3324
 -27165865.85248 -21157482.22746  20933156.8594                   20933154.6174
 -22462130.75848 -17491035.85946  21010688.2664                   21010686.4734
 -26190256.32447 -20395045.24245  22394408.5164                   22394406.7194
  -8567169.44147  -6664066.52045  23025488.2344                   23025489.0594
  -8877200.97746  -6905328.43444  24367553.8284                   24367556.2344
 -31539752.97348 -24564282.89846  20554158.1414                   20554153.3054
 11  8 19  0 52 30.0000000  0  9G12G30G17G10G05G04G25G09G02
 -25096940.50848 -19544504.67646  20796240.8914                   20796237.7074
  -9726018.97347  -7566560.46145  22564801.2114                   22564800.8554
 -26604569.16847 -20718917.92244  23644815.3364                   23644814.1214
 -27157605.59847 -21151045.66846  20934728.1954                   20934726.2894
 -22557134.74648 -17565064.89546  20992610.1884                   20992607.7234
 -26134514.21547 -20351609.85545  22405016.0004                   22405014.4144
  -8679208.33647  -6751369.50444  23004168.1644                   23004168.5864
  -8820576.39546  -6861205.57443  24378329.0634                   24378331.1604
 -31551646.35548 -24573550.46546  20551894.8444                   20551889.9694
 11  8 19  0 53  0.0000000  0  9G12G30G17G10G05G04G25G09G02
 -25155655.10548 -19590256.29746  20785067.6024                   20785064.5864
  -9830166.80947  -7647714.55145  22544982.6024                   22544981.4454
 -26568388.07447 -20690724.88344  23651700.4694                   23651699.4264
 -27148726.89548 -21144127.18446  20936417.9924                   20936415.7704
 -22651671.31648 -17638729.71546  20974620.1094                   20974618.1374
 -26078711.69547 -20308127.41045  22415634.8984                   22415632.4454
  -8790909.67247  -6838409.45344  22982911.1174                   22982912.4774
  -8763947.39146  -6817079.28144  24389105.8204                   24389107.7814
 -31563296.79348 -24582628.72746  20549678.0474                   20549672.8834
 11  8 19  0 53 30.0000000  0  9G12G30G17G10G05G04G25G09G02
 -23638391.61748 -18407973.05146  21073793.2814                   21073790.0084
  -8358448.38747  -6500920.91444  22825041.4924                   22825039.8634
 -24956588.93447 -19434777.57044  23958416.2424                   23958414.9534
 -25563811.35548 -19909128.06246  21238017.3594                   21238015.0664
 -21170314.94948 -16484426.01246  21256513.1884                   21256511.2344
 -24447431.89147 -19037000.28545  22726056.8134                   22726055.0354
  -7326847.16847  -5697581.44945  23261513.5634                   23261514.1884
  -7131899.02046  -5545353.49643  24699674.2974                   24699676.0944
 -29999285.10248 -23363918.32446  20847299.5084                   20847294.5354
 11  8 19  0 54  0.0000000  0  9G12G30G17G10G05G04G25G09G02
 -23695991.41448 -18452856.00446  21062832.1484                   21062829.5234
  -8461707.18447  -6581382.25044  22805391.2584                   22805390.0434
 -24920007.95347 -19406272.93744  23965376.9924                   23965376.9734
 -25553698.59448 -19901247.98846  21239941.5234                   21239939.5274
 -21263908.59448 -16557356.07046  21238702.5784                   21238700.6724
 -24391511.67247 -18993426.14845  22736698.4224                   22736696.8554
  -7437864.50047  -5784088.41845  23240387.9774                   23240388.3364
  -7075269.38346  -5501226.69143  24710450.9534                   24710452.1644
 -30010452.44948 -23372620.14147  20845174.3524                   20845169.2464
 11  8 19  0 54 30.0000000  0  9G12G30G17G10G05G04G25G09G02
 -23753031.07048 -18497302.48046  21051978.1644                   21051975.3404
  -8564517.12547  -6661493.81644  22785827.4144                   22785825.9694
 -24883226.10547 -19377611.80144  23972376.1884                   23972375.4024
 -25542970.37948 -19892888.33246  21241983.1254                   21241980.8284
 -21357026.74648 -16629915.62946  21220983.0234                   21220980.5004
 -24335534.20747 -18949807.37545  22747350.1024                   22747348.9144
  -7548535.40647  -5870325.43745  23219327.7664                   23219328.4654
  -7018643.50446  -5457102.84443  24721226.8054                   24721227.9774
 -30021379.19148 -23381134.48846  20843095.0944                   20843090.2344
 11  8 19  0 55  0.0000000  0  9G12G30G17G10G05G04G25G09G02
 -23809510.34848 -18541312.29746  21041230.5944                   21041227.6914
  -8666876.60247  -6741254.39844  22766349.1804                   22766346.9454
 -24846243.80146 -19348794.46544  23979413.1724                   23979414.0434
 -25531629.12948 -19884050.98046  21244141.6334                   21244139.3444
 -21449668.42248 -16702103.90246  21203353.5084                   21203351.2234
 -24279502.01647 -18906145.96544  22758012.6884                   22758011.1524
  -7658858.18447  -5956291.17645  23198334.0164                   23198334.8874
  -6962025.37946  -5412985.02343  24732001.0084                   24732002.1254
 -30032068.00448 -23389463.43046  20841060.9144                   20841056.1764
 11  8 19  0 55 30.0000000  0  9G12G30G17G10G05G04G25G09G02
 -23865425.91048 -18584882.85946  21030589.9694                   21030587.0314
  -8768781.36347  -6820660.62545  22746957.6094                   22746956.2624
 -24809059.28546 -19319819.53144  23986489.0314                   23986489.3914
 -25519674.25848 -19874735.49646  21246416.4224                   21246413.6954
 -21541829.42648 -16773917.62546  21185816.2894                   21185813.8204
 -24223414.83247 -18862441.69944  22768685.8754                   22768684.7074
  -7768828.52747  -6041982.29345  23177407.3134                   23177407.8204
  -6905416.50446  -5368874.39143  24742773.1564                   24742775.2234
 -30042518.10948 -23397606.36746  20839072.2664                   20839067.4774
 11  8 19  0 56  0.0000000  0  9G12G30G17G10G05G04G25G09G02
 -23920776.09848 -18628012.87946  21020057.4694                   21020054.2664
  -8870228.78547  -6899710.49644  22727651.9694                   22727650.9774
 -24771672.31646 -19290686.87944  23993604.2584                   23993604.2154
 -25507107.45748 -19864943.16046  21248807.7114                   21248805.2974
 -21633507.51648 -16845355.05946  21168369.9844                   21168368.0044
 -24167273.78547 -18818695.46945  22779368.9064                   22779368.2304
  -7878443.68747  -6127396.64545  23156547.8984                   23156548.5634
  -6848819.64546  -5324773.19543  24753543.1644                   24753544.7544
 -30052730.81248 -23405564.32046  20837129.0784                   20837124.0784
 11  8 19  0 56 30.0000000  0  9G12G30G17G10G05G04G25G09G02
 -23975561.86348 -18670703.08646  21009632.0704                   21009628.8484
  -8971217.92247  -6978403.25845  22708434.9924                   22708433.3634
 -24734084.37147 -19261397.59844  24000757.4304                   24000756.8984
 -25493931.91048 -19854676.49246  21251314.9924                   21251312.6804
 -21724702.12148 -16916415.73446  21151016.3754                   21151013.9224
 -24111082.02747 -18774909.71145  22790062.4454                   22790060.8794
  -7987702.66447  -6212533.46545  23135756.7344                   23135757.3134
  -6792239.55146  -5280685.02743  24764309.4844                   24764312.0904
 -30062708.96548 -23413339.50447  20835230.3754                   20835225.6094
 11  8 19  0 57  0.0000000  0  9G12G30G17G10G05G04G25G09G02
 -24029779.67248 -18712950.73046  20999314.9614                   20999311.7704
  -9071744.60247  -7056735.66444  22689305.0004                   22689303.2934
 -24696293.30547 -19231950.02344  24007949.0164                   24007947.6764
 -25480147.19948 -19843935.14146  21253938.2034                   21253935.6884
 -21815409.57448 -16987096.82046  21133755.4844                   21133753.2974
 -24054839.29747 -18731084.24245  22800765.0864                   22800763.6094
  -8096601.16447  -6297389.38345  23115034.8524                   23115034.5394
  -6735677.77046  -5236611.10943  24775074.5554                   24775075.5944
 -30072452.00448 -23420931.47746  20833376.0314                   20833371.1524
 11  8 19  0 57 30.0000000  0  9G12G30G17G10G05G04G25G09G02
 -24083431.64848 -18754757.46546  20989105.2584                   20989102.0784
  -9171809.66847  -7134708.39545  22670264.0164                   22670261.1844
 -24658302.20346 -19202346.59044  24015178.1254                   24015177.4344
 -25465758.18748 -19832722.91046  21256676.3524                   21256673.8134
 -21905631.15648 -17057399.30947  21116586.5864                   21116584.1374
 -23998550.21947 -18687222.65645  22811476.4774                   22811474.9144
  -8205140.01247  -6381965.02045  23094379.4774                   23094380.6134
  -6679140.60946  -5192556.41843  24785832.2504                   24785834.7154
 -30081964.37548 -23428343.71946  20831565.9224                   20831561.3834
 11  8 19  0 58  0.0000000  0  9G12G30G17G10G05G04G25G09G02
 -24136516.01648 -18796121.90646  20979003.4064                   20979000.3484
  -9271410.02047  -7212318.99245  22651309.7974                   22651307.9774
 -24620110.07446 -19172586.48443  24022446.1024                   24022444.7034
 -25450766.02748 -19821040.69946  21259529.0634                   21259526.8404
 -21995363.69948 -17127320.71546  21099511.1254                   21099508.8484
 -23942215.61347 -18643325.59045  22822196.4844                   22822195.3054
  -8313315.87547  -6466257.84045  23073794.1334                   23073795.3284
  -6622630.30146  -5148522.64143  24796585.4844                   24796588.6884
 -30091246.60948 -23435576.63346  20829799.8134                   20829794.8324
 11  8 19  0 58 30.0000000  0  9G12G30G17G10G05G04G25G09G02
 -24189031.72748 -18837043.23446  20969009.8674                   20969007.0594
  -9370543.67647  -7289565.94545  22632445.4534                   22632444.4224
 -24581717.53146 -19142670.25444  24029751.5474                   24029750.5164
 -25435172.81248 -19808890.12946  21262496.4304                   21262494.0514
 -22084605.57048 -17196859.78946  21082529.0944                   21082526.7304
 -23885837.06647 -18599394.30545  22832925.0554                   22832923.9144
  -8421126.78147  -6550266.25845  23053278.4454                   23053279.3674
  -6566150.42246  -5104512.62143  24807333.9384                   24807336.8754
 -30100300.48048 -23442631.61346  20828076.7734                   20828072.2584
 11  8 19  0 59  0.0000000  0  9G12G30G17G10G05G04G25G09G02
 -24240976.85248 -18877519.94946  20959125.2584                   20959122.1334
  -9469207.22347  -7366446.56245  22613670.3754                   22613668.8164
 -24543123.24646 -19112596.79744  24037095.8524                   24037094.2154
 -25418979.03148 -19796271.59846  21265578.4224                   21265575.9884
 -22173354.25848 -17266014.56646  21065640.3674                   21065638.2774
 -23829415.38347 -18555429.39144  22843661.6954                   22843660.6294
  -8528569.09447  -6633987.46145  23032832.8754                   23032833.8984
  -6509702.94946  -5060527.81643  24818075.6954                   24818077.6644
 -30109126.38348 -23449508.94947  20826397.2034                   20826392.4964
 11  8 19  0 59 30.0000000  0  9G12G30G17G10G05G04G25G09G02
 -24292352.76648 -18917553.14146  20949348.8204                   20949345.8754
  -9567400.83647  -7442961.01245  22594984.6804                   22594982.9574
 -24504329.54746 -19082367.98044  24044477.9694                   24044476.9224
 -25402189.08248 -19783188.51646  21268773.0234                   21268770.7624
 -22261609.95348 -17334785.19146  21048845.8134                   21048843.9304
 -23772954.27047 -18511433.75045  22854406.0784                   22854404.6914
  -8635642.83247  -6717421.46945  23012457.5234                   23012458.4574
  -6453293.46546  -5016572.62543  24828810.7194                   24828813.1254
 -30117728.09848 -23456211.59046  20824760.5944                   20824755.8634
 11  8 19  1  0  0.0000000  0  9G12G30G17G10G05G04G25G09G02
 -24343156.62548 -18957140.56246  20939681.2194                   20939677.7034
  -9665120.39147  -7519106.04745  22576388.7664                   22576387.6804
 -24465334.82846 -19051982.48444  24051898.7274                   24051897.9494
 -25384802.73048 -19769640.69946  21272081.5784                   21272079.0204
 -22349368.78148 -17403168.64846  21032146.1334                   21032144.1804
 -23716453.44147 -18467407.17244  22865158.1414                   22865155.9344
  -8742343.82447  -6800565.03145  22992152.6644                   22992153.3164
  -6396923.57846  -4972648.28543  24839538.3284                   24839540.4304
 -30126104.79748 -23462738.89846  20823166.1174                   20823161.5394
 11  8 19  1  0 30.0000000  0  9G12G30G17G10G05G04G25G09G02
 -24393389.46948 -18996283.03147  20930122.1644                   20930118.8014
  -9762365.78547  -7594881.61345  22557883.6334                   22557881.9654
 -24426140.96147 -19021441.84844  24059357.3754                   24059355.3674
 -25366823.95748 -19755631.26246  21275503.0634                   21275500.1764
 -22436631.32048 -17471165.39146  21015540.5554                   21015538.4304
 -23659916.38747 -18423352.36744  22875916.9924                   22875915.0394
  -8848671.73447  -6883417.88745  22971919.3284                   22971919.7814
  -6340598.45746  -4928758.81643  24850255.8984                   24850259.0164
 -30134260.26248 -23469093.80947  20821614.5164                   20821609.6454
 11  8 19  1  1  0.0000000  0  9G12G30G17G10G05G04G25G09G02
 -24443048.36348 -19034978.27746  20920672.3674                   20920669.0634
  -9859132.87947  -7670284.48045  22539469.8524                   22539468.0314
 -24386745.93747 -18990744.42244  24066853.7424                   24066853.2734
 -25348252.82048 -19741160.24646  21279036.9534                   21279034.0904
 -22523393.70348 -17538772.39546  20999030.2814                   20999028.1994
 -23603342.71147 -18379268.98844  22886682.0864                   22886679.5124
  -8954622.35247  -6965976.73045  22951757.6484                   22951757.7894
  -6284319.29347  -4884905.15643  24860965.9304                   24860968.3914
 -30142193.77048 -23475275.77347  20820104.6644                   20820099.8754
 11  8 19  1  1 30.0000000  0  9G12G30G17G10G05G04G25G09G02
 -24492132.45748 -19073225.61346  20911331.5944                   20911328.6214
  -9955419.39847  -7745312.87945  22521146.7504                   22521144.9654
 -24347150.00446 -18959890.40644  24074387.8834                   24074387.4734
 -25329091.34848 -19726229.21546  21282682.9924                   21282680.4654
 -22609653.77048 -17605987.99246  20982615.4224                   20982612.9064
 -23546734.04747 -18335158.38344  22897454.3364                   22897452.5664
  -9060193.21547  -7048239.68445  22931668.1334                   22931668.4494
  -6228089.12946  -4841089.64843  24871665.8524                   24871669.5084
 -30149906.79348 -23481285.92646  20818637.1094                   20818632.2384
 11  8 19  1  2  0.0000000  0  9G12G30G17G10G05G04G25G09G02
 -24540638.67248 -19111022.64846  20902101.2974                   20902098.2274
 -10051220.94947  -7819963.39845  22502916.7814                   22502914.9774
 -24307350.93046 -18928878.15244  24081961.3444                   24081961.0664
 -25309339.20348 -19710837.93446  21286441.9384                   21286439.4574
 -22695407.89548 -17672809.33646  20966297.1094                   20966294.7344
 -23490089.93747 -18291020.14544  22908233.4774                   22908231.7034
  -9165379.79747  -7130203.18745  22911651.9224                   22911652.4844
  -6171909.00047  -4797313.12144  24882357.2114                   24882360.2704
 -30157398.60548 -23487123.70746  20817211.3754                   20817206.5164
 11  8 19  1  2 30.0000000  0  9G12G30G17G10G05G04G25G09G02
 -24588566.06648 -19148368.66446  20892981.1884                   20892977.8674
 -10146535.41447  -7894234.34445  22484778.4454                   22484777.4344
 -24267348.53546 -18897707.47744  24089572.8524                   24089573.4304
 -25288998.15648 -19694987.75046  21290312.4144                   21290310.0944
 -22780654.12948 -17739234.93446  20950074.9064                   20950072.5274
 -23433411.45747 -18246855.12144  22919018.3364                   22919017.1484
  -9270179.82847  -7211865.50045  22891709.4304                   22891709.6914
  -6115782.17647  -4753578.14144  24893037.4064                   24893041.2624
 -30164670.51648 -23492790.13746  20815827.2424                   20815822.7974
 11  8 19  1  3  0.0000000  0  9G12G30G17G10G05G04G25G09G02
 -24635913.50848 -19185262.76646  20883971.5474                   20883968.2424
 -10241360.44547  -7968123.93045  22466733.8914                   22466732.5664
 -24227142.95346 -18866378.49644  24097223.9384                   24097224.7664
 -25268070.06648 -19678680.14146  21294295.1334                   21294292.6454
 -22865390.56648 -17805263.27746  20933950.1804                   20933947.7424
 -23376699.95347 -18202664.39544  22929810.6954                   22929809.9304
  -9374590.69147  -7293224.55545  22871840.3914                   22871840.4064
  -6059711.52747  -4709886.96944  24903708.6884                   24903711.1174
 -30171723.83648 -23498286.22346  20814485.6954                   20814480.8754
 11  8 19  1  3 30.0000000  0  9G12G30G17G10G05G04G25G09G02
 -24682681.93448 -19221705.68446  20875071.4304                   20875068.2974
 -10335695.52347  -8041631.73845  22448782.7424                   22448780.9454
 -24186735.86746 -18834892.49644  24104913.2114                   24104913.9924
 -25246558.94947 -19661918.21546  21298388.6484                   21298386.3714
 -22949617.54348 -17870894.64146  20917922.2344                   20917919.8134
 -23319958.70347 -18158450.45344  22940608.4924                   22940606.9964
  -9478611.78947  -7374279.91045  22852045.7974                   22852046.2034
  -6003701.77347  -4666243.20344  24914366.3364                   24914369.9964
 -30178561.32048 -23503614.13746  20813184.3134                   20813179.7194
 11  8 19  1  4  0.0000000  0  8G12G30G17G10G05G04G25G02
 -24728867.33648 -19257694.28947  20866282.6484                   20866279.6804
 -10429535.37947  -8114753.68045  22430925.5394                   22430923.4144
 -24146124.16846 -18803247.04744  24112641.1564                   24112640.9494
 -25224463.50848 -19644700.98846  21302593.2114                   21302590.6564
 -23033329.79748 -17936124.93046  20901992.7894                   20901989.7504
 -23263185.63347 -18114211.69944  22951411.6644                   22951410.4734
  -9582237.66848  -7455027.29745  22832326.4924                   22832326.3554
 -30185181.39848 -23508772.64546  20811924.6334                   20811920.0274
 11  8 19  1  4 30.0000000  0  8G12G30G17G10G05G04G25G02
 -24774471.82448 -19293230.24647  20857604.4224                   20857601.4414
 -10522880.64547  -8187490.20345  22413162.4304                   22413161.0204
 -24105310.48846 -18771444.16444  24120408.0234                   24120408.3364
 -25201788.46947 -19627032.11746  21306907.8594                   21306905.8164
 -23116528.48048 -18000955.03546  20886160.1334                   20886157.8324
 -23206385.18047 -18069951.62944  22962221.1484                   22962219.3204
  -9685468.61347  -7535466.94945  22812681.9534                   22812682.2384
 -30191588.06648 -23513764.85546  20810705.4304                   20810700.8524
 11  8 19  1  5  0.0000000  0  8G12G30G17G10G05G04G25G02
 -24819485.68048 -19328305.95746  20849038.6094                   20849035.4264
 -10615720.50447  -8259832.92245  22395495.2584                   22395493.5704
 -24064286.12946 -18739477.17244  24128214.7974                   24128215.3524
 -25178527.10547 -19608906.37946  21311334.4304                   21311331.9534
 -23199203.20348 -18065376.85946  20870427.6254                   20870425.0274
 -23149550.01647 -18025664.49244  22973036.6024                   22973035.2034
  -9788293.74247  -7615590.39145  22793114.9454                   22793115.4414
 -30197773.92648 -23518585.01246  20809528.0784                   20809523.3244
 11  8 19  1  5 30.0000000  0  8G12G30G17G10G05G04G25G02
 -24863904.64148 -19362918.11346  20840585.7664                   20840583.0664
 -10708049.31247  -8331777.43445  22377925.8594                   22377924.3054
 -24023048.08246 -18707343.61743  24136062.5864                   24136061.5824
 -25154677.93048 -19590322.61346  21315873.3134                   21315870.8284
 -23281348.43048 -18129386.09046  20854795.9304                   20854793.1724
 -23092678.30147 -17981348.87144  22983858.5784                   22983857.3094
  -9890707.16047  -7695392.99645  22773626.3984                   22773626.8204
 -30203736.73048 -23523231.36746  20808393.4534                   20808388.3204
 11  8 19  1  6  0.0000000  0  8G12G30G17G10G05G04G25G02
 -24907730.12948 -19397067.83647  20832246.0004                   20832243.1174
 -10799866.83247  -8403323.52745  22360453.6024                   22360452.2814
 -23981597.97746 -18675044.78143  24143949.6334                   24143949.0004
 -25130245.08248 -19571284.02746  21320522.3834                   21320519.9184
 -23362964.63348 -18192983.09846  20839264.8524                   20839262.2734
 -23035772.78547 -17937006.95344  22994687.4534                   22994685.7274
  -9992708.37547  -7774874.44545  22754216.3914                   22754216.7664
 -30209479.91448 -23527706.57446  20807300.5864                   20807295.9694
 11  8 19  1  6 30.0000000  0  8G12G30G17G10G05G04G25G02
 -24950964.00448 -19430756.55146  20824018.8364                   20824016.0124
 -10891174.02047  -8474471.96145  22343078.6334                   22343076.6094
 -23939938.94946 -18642583.23043  24151877.4844                   24151876.8244
 -25105233.71147 -19551794.64846  21325281.7274                   21325279.0704
 -23444053.20748 -18256168.95346  20823833.9064                   20823831.8754
 -22978838.28147 -17892642.44544  23005521.7274                   23005520.4734
 -10094298.22347  -7854035.31245  22734883.9774                   22734884.4884
 -30215008.20348 -23532014.34046  20806248.4694                   20806244.1994
 11  8 19  1  7  0.0000000  0  8G12G30G17G10G05G04G25G02
 -24993608.14148 -19463985.73847  20815904.0784                   20815900.9384
 -10981970.89147  -8545222.75445  22325800.9534                   22325798.6844
 -23898073.26247 -18609960.63343  24159844.6094                   24159843.5784
 -25079648.02047 -19531857.75046  21330150.4694                   21330148.0704
 -23524614.59448 -18318944.02046  20808503.7274                   20808501.4924
 -22921877.99646 -17848257.82844  23016360.1024                   23016359.3094
 -10195476.30947  -7932875.37145  22715630.6094                   22715630.4574
 -30220324.42648 -23536156.85546  20805237.1724                   20805232.4774
 11  8 19  1  7 30.0000000  0  8G12G30G17G10G05G04G25G02
 -25035663.46948 -19496756.10246  20807901.4304                   20807898.3364
 -11072257.13347  -8615575.65245  22308619.6174                   22308617.7504
 -23856002.64546 -18577178.24243  24167849.9384                   24167848.2034
 -25053491.88347 -19511476.33646  21335127.9924                   21335125.2774
 -23604648.89148 -18381308.36347  20793273.9774                   20793271.4734
 -22864894.88746 -17803855.45344  23027204.5864                   23027202.5434
 -10296242.22347  -8011394.23445  22696455.1954                   22696455.8134
 -30225431.48448 -23540136.37946  20804264.9064                   20804260.5274
 11  8 19  1  8  0.0000000  0  8G12G30G17G10G05G04G25G02
 -25077130.59848 -19529068.14546  20800010.3984                   20800007.3984
 -11162031.94147  -8685530.02045  22291535.9144                   22291534.2424
 -23813728.20746 -18544237.07843  24175895.2274                   24175893.2894
 -25026768.79348 -19490653.14546  21340213.5164                   21340210.8204
 -23684156.06248 -18443261.95747  20778144.0554                   20778141.5704
 -22807891.76647 -17759437.44144  23038051.0314                   23038050.2344
 -10396594.87147  -8089591.07845  22677358.8054                   22677359.6334
 -30230332.14548 -23543955.07846  20803332.4614                   20803328.0314
 11  8 19  1  8 30.0000000  0  8G12G30G17G10G05G04G25G02
 -25118010.78948 -19560922.83246  20792230.9304                   20792227.9534
 -11251295.47347  -8755085.99645  22274549.8054                   22274547.8874
 -23771252.42246 -18511139.02043  24183978.3204                   24183976.6334
 -24999483.26648 -19469391.69146  21345405.4534                   21345402.9844
 -23763136.42648 -18504805.05546  20763114.4384                   20763111.9264
 -22750872.10947 -17715006.55144  23048902.2034                   23048900.5474
 -10496534.13747  -8167465.82845  22658340.9534                   22658341.8164
 -30235030.32848 -23547615.99646  20802439.0944                   20802433.7424
 11  8 19  1  9  0.0000000  0  8G12G30G17G10G05G04G25G02
 -25158302.33648 -19592318.83247  20784564.0234                   20784560.8714
 -11340044.56247  -8824241.11345  22257661.1484                   22257659.2114
 -23728574.37246 -18477883.40244  24192098.9144                   24192097.9964
 -24971636.04348 -19447692.55946  21350704.6334                   21350702.0234
 -23841587.19148 -18565935.47747  20748186.0474                   20748183.2424
 -22693835.87946 -17670562.77744  23059755.6024                   23059754.4884
 -10596056.61747  -8245015.77345  22639402.7584                   22639403.0984
 -30239525.90248 -23551119.03946  20801583.1724                   20801578.1914
 11  8 19  1  9 30.0000000  0  8G12G30G17G10G05G04G25G02
 -25198005.17248 -19623256.09846  20777008.7194                   20777005.4494
 -11428277.37147  -8892993.92645  22240871.1804                   22240868.8554
 -23685694.19147 -18444470.19944  24200259.6954                   24200258.0084
 -24943229.56248 -19425557.64546  21356110.3134                   21356107.8324
 -23919507.14848 -18626652.28547  20733358.2814                   20733355.5984
 -22636784.89847 -17626107.50844  23070612.3054                   23070610.5274
 -10695160.17648  -8322239.30545  22620544.0314                   22620543.9964
 -30243820.25048 -23554465.28546  20800766.1334                   20800761.1644
 11  8 19  1 10  0.0000000  0  8G12G30G17G10G05G04G25G02
 -25237119.39148 -19653734.69946  20769565.8524                   20769562.3324
 -11515993.00847  -8961343.73445  22224179.4064                   22224177.4414
 -23642613.42246 -18410900.75443  24208456.8594                   24208455.7734
 -24914267.42648 -19402989.75046  21361621.4614                   21361619.4844
 -23996896.01248 -18686955.26247  20718631.8594                   20718628.8914
 -22579721.41847 -17581642.46544  23081471.7584                   23081469.7234
 -10793843.75047  -8399135.56245  22601764.6804                   22601764.9414
 -30247915.94948 -23557656.72746  20799986.2734                   20799981.9614
 11  8 19  1 10 30.0000000  0  8G12G30G17G10G05G04G25G02
 -25275643.78948 -19683753.69546  20762234.6884                   20762231.6884
 -11603188.40247  -9029288.16045  22207586.8204                   22207584.6644
 -23599330.66446 -18377173.91043  24216693.5474                   24216692.1094
 -24884750.51247 -19379989.54746  21367238.3674                   21367236.2274
 -24073750.90648 -18746842.14847  20704006.3444                   20704003.8914
 -22522645.36346 -17537167.62944  23092331.7424                   23092330.6564
 -10892103.80147  -8475701.80945  22583066.7734                   22583066.9884
 -30251812.87548 -23560693.29346  20799245.0474                   20799240.0474
 11  8 19  1 11  0.0000000  0  8G12G30G17G10G05G04G25G02
 -25313578.47748 -19713313.19146  20755015.7504                   20755012.6334
 -11689862.59047  -9096826.45345  22191093.2734                   22191091.3094
 -23555847.21546 -18343290.66843  24224968.8054                   24224966.2034
 -24854681.90248 -19356559.47346  21372960.5634                   21372957.6294
 -24150071.36348 -18806312.59447  20689483.4534                   20689480.6564
 -22465559.18446 -17492684.95744  23103195.0634                   23103194.4694
 -10989939.13347  -8551937.10245  22564449.3834                   22564449.7814
 -30255513.53948 -23563576.91846  20798540.6644                   20798536.0904
 11  8 19  1 11 30.0000000  0  8G12G30G17G10G05G04G25G02
 -25350923.56648 -19742413.25046  20747909.5554                   20747906.3634
 -11776013.90647  -9163957.32045  22174699.1804                   22174697.2344
 -23512163.46146 -18309251.37943  24233280.9304                   24233280.2074
 -24824064.38348 -19332701.66446  21378786.4454                   21378784.0314
 -24225856.25048 -18865365.71146  20675062.0864                   20675059.0594
 -22408464.49647 -17448195.63344  23114060.5704                   23114058.9804
 -11087347.89147  -8627839.99645  22545913.0164                   22545913.3874
 -30259019.47348 -23566308.80146  20797873.6804                   20797868.6684
 11  8 19  1 12  0.0000000  0  8G12G30G17G10G05G04G25G02
 -25387678.32848 -19771053.32046  20740915.0554                   20740911.6094
 -11861640.30547  -9230679.15645  22158404.5084                   22158403.2384
 -23468279.11346 -18275055.80943  24241631.3524                   24241630.9654
 -24792900.27048 -19308417.93745  21384716.8984                   21384714.3914
 -24301104.00048 -18924000.28147  20660742.3444                   20660739.8914
 -22351362.30147 -17403700.43044  23124926.0704                   23124924.9884
 -11184327.65248  -8703408.61745  22527458.3204                   22527457.9694
 -30262331.98848 -23568889.97346  20797243.0234                   20797238.6564
 11  8 19  1 12 30.0000000  0  8G12G30G17G10G05G04G25G02
 -25423841.52048 -19799232.42646  20734033.2274                   20734030.3014
 -11946739.14147  -9296989.90645  22142210.9384                   22142209.4414
 -23424194.03546 -18240703.80144  24250021.4224                   24250019.9104
 -24761191.25448 -19283709.60946  21390750.8834                   21390748.5314
 -24375812.76648 -18982214.86347  20646525.7894                   20646523.5554
 -22294252.94146 -17359199.63744  23135793.3594                   23135792.1804
 -11280875.39147  -8778640.58245  22509085.8364                   22509086.0704
 -30265451.41048 -23571320.68446  20796649.6094                   20796644.6374
 11  8 19  1 13  0.0000000  0  8G12G30G17G10G05G04G25G02
 -25459413.75048 -19826951.03947  20727264.2274                   20727261.0634
 -12031309.66447  -9362888.97345  22126117.4614                   22126115.9924
 -23379909.28946 -18206196.19144  24258448.3364                   24258447.5274
 -24728940.56647 -19258579.20345  21396888.0234                   21396885.3324
 -24449982.12548 -19040009.12547  20632411.8284                   20632409.3444
 -22237138.97747 -17314695.28144  23146662.3204                   23146660.8984
 -11376990.09047  -8853535.12545  22490795.7894                   22490796.2664
 -30268380.03548 -23573602.71546  20796092.2814                   20796087.5594
 11  8 19  1 13 30.0000000  0  8G12G30G17G10G05G04G25G02
 -25494392.59848 -19854207.27747  20720607.7424                   20720604.6374
 -12115347.77347  -9428373.16845  22110125.6024                   22110124.7234
 -23335422.93046 -18171531.44544  24266913.6884                   24266913.4614
 -24696148.25047 -19233026.75446  21403128.2584                   21403125.1764
 -24523608.35248 -19097380.17247  20618400.9844                   20618398.6094
 -22180019.44547 -17270186.57444  23157531.7504                   23157530.5514
 -11472667.37547  -8928088.80945  22472588.6884                   22472589.6094
 -30271116.92248 -23575735.34446  20795571.8134                   20795566.5004
 11  8 19  1 14  0.0000000  0  9G12G30G17G10G05G04G25G29G02
 -25528780.79348 -19881003.27747  20714064.1564                   20714060.8984
 -12198854.70347  -9493443.46945  22094235.2274                   22094233.0164
 -23290737.90246 -18136711.97344  24275417.0634                   24275416.5124
 -24662819.82847 -19207056.55945  21409470.3134                   21409467.8404
 -24596692.90248 -19154329.12947  20604493.6884                   20604491.2974
 -22122898.40246 -17225676.68744  23168401.8284                   23168400.0314
 -11567908.08647  -9002302.32045  22454465.2584                   22454465.5354
   2998571.66457   2346065.57054  24593412.9224                   24593412.9614
 -30273666.48448 -23577722.00446  20795086.1414                   20795081.6254
 11  8 19  1 14 30.0000000  0  9G12G30G17G10G05G04G25G29G02
 -25562583.12548 -19907342.76247  20707631.6884                   20707628.5394
 -12281834.03947  -9558102.65645  22078444.6174                   22078442.5394
 -23245860.34447 -18101742.37544  24283956.3284                   24283955.8954
 -24628963.14847 -19180674.73445  21415913.1804                   21415910.5514
 -24669240.18748 -19210859.43747  20590688.2814                   20590685.9574
 -22065782.49246 -17181170.80944  23179270.0234                   23179268.8874
 -11662715.38747  -9076178.08245  22436424.1024                   22436424.0984
   2893935.27047   2264530.77744  24573501.2814                   24573500.4774
 -30276035.38348 -23579567.88746  20794635.5864                   20794630.8984
 11  8 19  1 15  0.0000000  0  9G12G30G17G10G05G04G25G29G02
 -25595802.21547 -19933227.76646  20701310.3834                   20701307.2934
 -12364286.51247  -9622351.32045  22062754.4844                   22062751.9614
 -23200792.61346 -18066624.62144  24292532.5864                   24292532.7774
 -24594583.23047 -19153885.18445  21422455.4844                   21422452.7464
 -24741251.64548 -19266972.22747  20576985.0634                   20576982.4064
 -22008675.46946 -17136671.85544  23190137.3444                   23190137.2544
 -11757089.81647  -9149716.55945  22418465.4694                   22418465.5864
   2789224.80547   2182938.24244  24553576.3674                   24553574.9024
 -30278227.46947 -23581275.98846  20794218.4384                   20794213.4024
 11  8 19  1 15 30.0000000  0  9G12G30G17G10G05G04G25G29G02
 -25628436.81648 -19958657.33647  20695100.2424                   20695097.2584
 -12446209.72747  -9686187.55945  22047164.3444                   22047162.7704
 -23155534.11346 -18031358.22344  24301145.2114                   24301144.6684
 -24559681.93447 -19126689.37145  21429096.7034                   21429094.6094
 -24812725.28948 -19322665.93047  20563384.0164                   20563381.4104
 -21951577.89446 -17092180.34444  23201002.5784                   23201002.6484
 -11851028.50847  -9222915.50845  22400589.2504                   22400589.5084
   2684441.36347   2101288.87144  24533636.6484                   24533634.6604
 -30280243.54747 -23582846.94946  20793834.7114                   20793829.9774
 11  8 19  1 16  0.0000000  0  9G12G30G17G10G05G04G25G29G02
 -25660482.48848 -19983627.99247  20689002.2974                   20688998.8984
 -12527597.46547  -9749606.55545  22031677.3134                   22031675.2114
 -23110080.96146 -17995940.12144  24309793.8594                   24309794.1954
 -24524257.31247 -19099085.77045  21435838.1954                   21435835.7424
 -24883655.14148 -19377935.90247  20549886.3054                   20549883.5204
 -21894486.51646 -17047693.60944  23211866.5164                   23211866.6334
 -11944524.94547  -9295769.83245  22382797.1564                   22382797.4104
   2579589.26247   2019586.00443  24513683.2194                   24513681.0554
 -30282080.19948 -23584278.09846  20793485.1954                   20793480.2974
 11  8 19  1 16 30.0000000  0  9G12G30G17G10G05G04G25G29G02
 -25691938.21548 -20008138.94947  20683016.4694                   20683013.1604
 -12608447.30547  -9812606.39845  22016292.1804                   22016289.6764
 -23064432.59446 -17960369.92643  24318480.6724                   24318480.6914
 -24488310.99647 -19071075.63745  21442678.2034                   21442675.5554
 -24954039.53948 -19432780.85247  20536492.7664                   20536489.9304
 -21837401.81646 -17003212.10944  23222729.8834                   23222729.1454
 -12037576.34047  -9368277.36745  22365090.1564                   22365090.2074
   2474669.78546   1937830.59843  24493716.7734                   24493716.0984
 -30283738.08648 -23585569.95746  20793169.4454                   20793165.0554
 11  8 19  1 17  0.0000000  0  9G12G30G17G10G05G04G25G29G02
 -25722802.82848 -20032189.29747  20677142.9614                   20677139.8914
 -12688756.30547  -9875184.82845  22001009.5234                   22001007.9964
 -23018588.12946 -17924646.94943  24327204.4774                   24327204.1414
 -24451844.08647 -19042659.85545  21449617.5784                   21449614.9184
 -25023876.15248 -19487198.95347  20523203.0164                   20523200.6644
 -21780323.71946 -16958735.69544  23233591.9224                   23233590.6094
 -12130179.27047  -9440435.46945  22347468.2584                   22347468.4064
   2369684.93846   1856024.26243  24473739.7974                   24473739.1644
 -30285217.04348 -23586722.38346  20792888.1414                   20792883.5904
 11  8 19  1 17 30.0000000  0  9G12G30G17G10G05G04G25G29G02
 -25753075.63347 -20055778.50046  20671382.0554                   20671379.3834
 -12768522.39848  -9937340.20345  21985830.8984                   21985829.1764
 -22972547.59046 -17888771.14543  24335965.9384                   24335964.7704
 -24414859.04747 -19013840.35245  21456655.7664                   21456653.1134
 -25093163.16848 -19541188.80147  20510018.3134                   20510015.6134
 -21723252.90246 -16914264.95744  23244452.3134                   23244451.1334
 -12222331.36347  -9512242.26245  22329932.3984                   22329933.1254
   2264634.99246   1774167.29743  24453749.2194                   24453748.3404
 -30286518.28947 -23587736.34046  20792640.4144                   20792636.0164
 11  8 19  1 18  0.0000000  0  9G12G30G17G10G05G04G25G29G02
 -25782753.44948 -20078904.07046  20665734.6024                   20665731.7304
 -12847740.94948  -9999068.93445  21970756.1094                   21970753.9104
 -22926307.93446 -17852740.08642  24344764.8054                   24344763.1414
 -24377355.47347 -18984616.78945  21463792.1334                   21463789.6644
 -25161896.44948 -19594747.15647  20496938.7504                   20496936.2854
 -21666187.87546 -16869798.72744  23255311.4844                   23255309.9264
 -12314027.52347  -9583693.78545  22312483.4224                   22312483.5634
   2159523.49646   1692262.29743  24433746.6024                   24433745.1954
 -30287639.81648 -23588610.25846  20792427.0314                   20792422.7464
 11  8 19  1 18 30.0000000  0  9G12G30G17G10G05G04G25G29G02
 -25811836.54348 -20101566.22747  20660200.3284                   20660197.4064
 -12926410.89848 -10060370.18445  21955785.6484                   21955782.9184
 -22879870.12946 -17816554.67243  24353601.2114                   24353599.9384
 -24339336.42648 -18954991.57045  21471027.2424                   21471025.2154
 -25230075.60248 -19647873.73047  20483964.7734                   20483962.0004
 -21609129.90247 -16825338.00444  23266169.1094                   23266167.8754
 -12405266.40247  -9654788.99245  22295121.1174                   22295121.1994
   2054350.12145   1610309.06642  24413732.9144                   24413731.2974
 -30288583.56248 -23589345.64846  20792247.7424                   20792242.8554
 11  8 19  1 19  0.0000000  0  9G12G30G17G10G05G04G25G29G02
 -25840325.00848 -20123765.02747  20654779.0554                   20654776.2384
 -13004530.58247 -10121242.64145  21940919.8444                   21940917.7854
 -22833234.41046 -17780215.08243  24362476.7424                   24362475.0554
 -24300804.39547 -18924966.62145  21478359.2734                   21478357.0664
 -25297699.73048 -19700567.81647  20471096.1804                   20471093.5744
 -21552080.39547 -16780883.85244  23277025.4534                   23277023.4144
 -12496045.78147  -9725526.14845  22277846.1564                   22277846.4844
   1949115.13746   1528307.87542  24393706.9774                   24393705.8364
 -30289350.65648 -23589943.39546  20792101.8984                   20792097.2194
 11  8 19  1 19 30.0000000  0  9G12G30G17G10G05G04G25G29G02
 -25868217.72348 -20145499.59046  20649471.5234                   20649468.5864
 -13082097.25048 -10181684.18745  21926159.6724                   21926157.0434
 -22786399.98046 -17743720.66443  24371387.1804                   24371386.8554
 -24261760.97747 -18894543.19545  21485788.7974                   21485786.8364
 -25364766.32448 -19752827.46147  20458333.7034                   20458331.3754
 -21495039.13347 -16736436.13744  23287879.5944                   23287878.3594
 -12586362.59047  -9795902.85545  22260659.4694                   22260659.9734
   1843820.38346   1446260.05943  24373670.7274                   24373668.4534
 -30289941.37948 -23590403.69146  20791989.5314                   20791984.8754
 11  8 19  1 20  0.0000000  0  9G12G30G17G10G05G04G25G29G02
 -25895514.80948 -20166770.04347  20644277.0474                   20644273.9574
 -13159109.55547 -10241693.76645  21911504.4694                   21911502.5704
 -22739367.28946 -17707071.78943  24380337.5944                   24380338.1764
 -24222208.98447 -18863723.47345  21493315.5474                   21493313.4024
 -25431274.78148 -19804652.19547  20445677.7664                   20445674.8594
 -21438007.53147 -16691995.96544  23298732.1094                   23298731.7814
 -12676215.05547  -9865917.74246  22243561.0004                   22243561.0824
   1738466.06346   1364165.88744  24353622.1414                   24353621.6564
 -30290357.08648 -23590727.63346  20791910.2814                   20791905.6524
 11  8 19  1 20 30.0000000  0  9G12G30G17G10G05G04G25G29G02
 -25922216.53548 -20187576.56247  20639195.5704                   20639192.9304
 -13235565.92248 -10301270.14845  21896955.0784                   21896953.3284
 -22692136.87146 -17670268.80543  24389326.1644                   24389325.1914
 -24182151.08247 -18832509.52345  21500938.6174                   21500936.2424
 -25497223.90248 -19856041.09047  20433127.8284                   20433124.7304
 -21380986.75047 -16647564.22344  23309582.8834                   23309582.3594
 -12765601.16047  -9935569.22745  22226551.4774                   22226551.6914
   1633052.50846   1282025.51643  24333562.2504                   24333561.7974
 -30290599.04748 -23590916.16846  20791864.2344                   20791859.4384
 11  8 19  1 21  0.0000000  0  8G12G30G10G05G04G25G29G02
 -25948319.71148 -20207916.68446  20634228.3284                   20634225.3794
 -13311461.87947 -10360409.83645  21882512.8204                   21882510.8364
 -24141586.97347 -18800901.12545  21508657.6954                   21508655.0394
 -25562609.87948 -19906991.15647  20420685.1564                   20420682.5744
 -21323974.91846 -16603139.47744  23320431.4844                   23320432.3244
 -12854515.95747 -10004853.46146  22209632.0084                   22209632.2114
   1527583.00046   1199841.51644  24313492.4534                   24313491.3554
 -30290665.71148 -23590968.11746  20791851.3594                   20791846.7154
 11  8 19  1 21 30.0000000  0  8G12G30G10G05G04G25G29G02
 -25973825.04348 -20227790.94547  20629374.9454                   20629371.8754
 -13386796.66448 -10419112.25445  21868176.8444                   21868175.1604
 -24100519.78548 -18768900.73045  21516472.1174                   21516470.0744
 -25627432.29748 -19957502.10947  20408349.9774                   20408347.3164
 -21266973.98446 -16558723.22344  23331278.7194                   23331278.7274
 -12942958.24647 -10073769.50846  22192801.7274                   22192801.8364
   1422057.21946   1117613.66444  24293411.4694                   24293410.6644
 -30290558.68748 -23590884.72346  20791871.6414                   20791867.1844
 11  8 19  1 22  0.0000000  0  8G12G30G10G05G04G25G29G02
 -25998725.71548 -20247194.05147  20624636.4144                   20624633.3874
 -13461561.43048 -10477370.48845  21853950.0314                   21853947.5594
 -24058945.03547 -18736504.83245  21524384.1884                   21524381.4654
 -25691683.29348 -20007567.77747  20396123.3524                   20396120.7464
 -21209977.56646 -16514310.49644  23342125.1334                   23342124.9654
 -13030918.80948 -10142310.17645  22176062.9384                   22176063.4454
   1316482.92247   1035348.02044  24273321.2114                   24273320.1884
 -30290272.24648 -23590661.53546  20791926.4144                   20791921.6604
 11  8 19  1 22 30.0000000  0  8G12G30G10G05G04G25G29G02
 -26023018.19548 -20266123.23847  20620013.9224                   20620010.6414
 -13535751.53547 -10535180.93445  21839831.2194                   21839829.5274
 -24016862.17648 -18703712.99645  21532392.3754                   21532389.7344
 -25755358.31248 -20057184.64147  20384006.4144                   20384004.0124
 -21152983.62146 -16469899.64844  23352970.9454                   23352969.8554
 -13118392.46547 -10210471.43045  22159417.5784                   22159418.2074
   1210863.74647    953047.39144  24253223.1644                   24253221.9924
 -30289804.15248 -23590296.78146  20792015.4614                   20792010.5234
 11  8 19  1 23  0.0000000  0  8G12G30G10G05G04G25G29G02
 -26046704.60948 -20284580.16447  20615506.3444                   20615503.2704
 -13609367.28547 -10592543.84445  21825822.9454                   21825820.6374
 -23974275.63348 -18670528.66845  21540496.1954                   21540494.0314
 -25818458.48448 -20106353.56247  20371998.9844                   20371996.3244
 -21095994.77047 -16425492.78944  23363816.4614                   23363814.4924
 -13205379.06247 -10278253.17645  22142864.4844                   22142864.8594
   1105198.65246    870710.97744  24233115.6174                   24233114.7304
 -30289157.62548 -23589792.98846  20792138.1644                   20792133.9064
 11  8 19  1 23 30.0000000  0  8G12G30G10G05G04G25G29G02
 -26069789.96948 -20302568.73846  20611113.3284                   20611110.0824
 -13682412.18748 -10649461.91045  21811923.1484                   21811921.0044
 -23931193.14847 -18636957.89545  21548694.1644                   21548691.5204
 -25880987.83648 -20155077.70747  20360099.7424                   20360097.0944
 -21039016.95747 -16381094.49244  23374658.7424                   23374657.1254
 -13291881.56247 -10345657.70745  22126403.8754                   22126402.7074
    999483.08646    788335.25444  24212997.8524                   24212997.2974
 -30288338.56248 -23589154.75046  20792294.2424                   20792289.8164
 11  8 19  1 24  0.0000000  0  8G12G30G10G05G04G25G29G02
 -26092273.67248 -20320088.48446  20606834.7584                   20606831.7344
 -13754884.41847 -10705933.74645  21798131.7664                   21798129.8874
 -23887616.93747 -18603002.39845  21556985.9844                   21556984.5704
 -25942945.20748 -20203356.14847  20348310.0004                   20348307.2424
 -20982051.16847 -16336705.56244  23385498.3594                   23385497.2074
 -13377897.76647 -10412683.29745  22110035.2584                   22110034.8874
    893717.64546    705920.65244  24192871.5554                   24192870.6724
 -30287347.85548 -23588382.77346  20792482.8594                   20792478.3754
 11  8 19  1 24 30.0000000  0  8G12G30G10G05G04G25G29G02
 -24538739.39848 -19109542.28146  20902462.4454                   20902459.6374
 -12251363.39148  -9534358.89845  22084242.2344                   22084240.4734
 -22268134.47747 -17341068.00445  21865163.7814                   21865161.1334
 -24428910.35248 -19023588.69547  20636421.1644                   20636418.3954
 -19349683.23847 -15064730.58643  23696127.6644                   23696125.6374
 -11888006.07847  -9251728.71145  22393552.3054                   22393551.9964
   2363323.36346   1851067.99244  24472527.9924                   24472527.1214
 -28710769.91448 -22359880.47746  21092495.4224                   21092490.7734
 11  8 19  1 25  0.0000000  0  8G12G30G10G05G04G25G29G02
 -24560027.75048 -19126130.58647  20898411.5164                   20898408.5004
 -12322691.88748  -9589939.52045  22070669.4844                   22070667.3204
 -22223584.91447 -17306354.06245  21873641.3984                   21873638.7154
 -24489726.46948 -19070977.84447  20624847.9844                   20624845.1174
 -19292749.94547 -15020367.02043  23706962.0944                   23706960.3054
 -11973049.74647  -9317996.46145  22377368.4924                   22377369.0044
   2257454.34846   1768572.71144  24452381.8984                   24452380.8874
 -28709445.14548 -22358848.18746  21092747.7664                   21092742.9924
 11  8 19  1 25 30.0000000  0  8G12G30G10G05G04G25G29G02
 -24580720.13748 -19142254.51247  20894473.9144                   20894470.9344
 -12393448.08247  -9645074.18045  22057204.7504                   22057202.2974
 -22178554.78947 -17271265.65645  21882210.3914                   21882207.7114
 -24549972.56648 -19117922.82447  20613383.6884                   20613380.7114
 -19235835.96946 -14976018.48443  23717791.2664                   23717790.9654
 -12057605.94547  -9383884.37145  22361278.2664                   22361278.7234
   2151532.75846   1686036.46144  24432225.8594                   24432224.8324
 -28707956.93048 -22357688.53546  21093031.0554                   21093026.3834
 11  8 19  1 26  0.0000000  0  8G12G30G10G05G04G25G29G02
 -24600818.52748 -19157915.58247  20890649.3914                   20890646.1764
 -12463632.21548  -9699763.07445  22043849.1334                   22043847.3284
 -22133048.11347 -17235805.90245  21890869.6644                   21890867.7384
 -24609649.51647 -19164424.31247  20602027.4534                   20602024.2894
 -19178943.84046 -14931686.98443  23728617.9304                   23728617.1484
 -12141674.43047  -9449392.25846  22345280.5944                   22345281.1334
   2045557.28946   1603458.23443  24412058.8134                   24412058.1174
 -28706307.94547 -22356403.60546  21093344.6724                   21093340.0314
 11  8 19  1 26 30.0000000  0  8G12G30G10G05G04G25G29G02
 -24620319.81648 -19173111.38746  20886938.1174                   20886935.0084
 -12533239.87948  -9754002.78145  22030602.8204                   22030601.3834
 -22087064.36747 -17199974.41045  21899620.4614                   21899617.9184
 -24668753.47348 -19210479.31247  20590780.2344                   20590777.5944
 -19122071.64846 -14887371.04743  23739440.2424                   23739440.2194
 -12225250.23847  -9514516.22745  22329376.5944                   22329376.6994
   1939531.68046   1520840.96943  24391882.3524                   24391882.1054
 -28704496.16047 -22354991.81646  21093689.3284                   21093684.7304
 11  8 19  1 27  0.0000000  0  8G12G30G10G05G04G25G29G02
 -24639226.03148 -19187843.48846  20883340.6484                   20883337.5084
 -12602271.35548  -9807793.52045  22017466.9304                   22017464.8204
 -22040608.01248 -17163774.65645  21908460.2114                   21908458.1294
 -24727285.16848 -19256088.39547  20579642.3364                   20579639.4144
 -19065221.67646 -14843072.41843  23750258.7424                   23750258.0744
 -12308333.12548  -9579256.10245  22313566.7034                   22313566.5944
   1833455.09846   1438183.96943  24371696.4694                   24371695.7384
 -28702524.22348 -22353455.23446  21094064.5784                   21094060.2774
 11  8 19  1 27 30.0000000  0  8G12G30G10G05G04G25G29G02
 -24657539.41448 -19202113.65646  20879855.6954                   20879852.3094
 -12670727.23448  -9861135.71945  22004440.4454                   22004438.0514
 -21993683.76248 -17127210.30945  21917390.0314                   21917387.2974
 -24785245.52348 -19301252.27347  20568612.5004                   20568609.6024
 -19008396.76247 -14798793.30544  23761073.1564                   23761072.1994
 -12390923.09448  -9643611.88746  22297849.9614                   22297850.3754
   1727326.24246   1355486.14543  24351501.4614                   24351499.0594
 -28700395.19148 -22351796.24246  21094470.1414                   21094465.1254
 11  8 19  1 28  0.0000000  0  8G12G30G10G05G04G25G29G02
 -24675258.39548 -19215920.64846  20876483.5474                   20876480.5164
 -12738604.11348  -9914026.75845  21991523.1414                   21991521.2774
 -21946292.37547 -17090281.96545  21926408.3054                   21926406.3524
 -24842632.10248 -19345969.05947  20557692.0234                   20557689.6724
 -18951596.03547 -14754533.04744  23771881.8594                   23771879.8914
 -12473016.30548  -9707580.58245  22282228.3284                   22282228.2704
   1621147.50446   1272749.50043  24331296.1094                   24331295.5594
 -28698108.16847 -22350014.13746  21094905.2194                   21094900.4024
 11  8 19  1 28 30.0000000  0  8G12G30G10G05G04G25G29G02
 -24692382.81248 -19229264.35947  20873225.0864                   20873221.8794
 -12805900.34848  -9966465.35545  21978717.2734                   21978715.6724
 -21898436.24648 -17052991.48045  21935514.8054                   21935512.6214
 -24899443.80148 -19390237.88347  20546881.1254                   20546878.6414
 -18894819.56647 -14710291.68744  23782686.2974                   23782684.9224
 -12554610.52048  -9771160.45746  22266701.3284                   22266701.0554
   1514920.20746   1189975.03143  24311082.6954                   24311079.8244
 -28695663.83648 -22348109.46146  21095370.2274                   21095365.5864
 11  8 19  1 29  0.0000000  0  8G12G30G10G05G04G25G29G02
 -24708912.86348 -19242144.92647  20870079.7034                   20870076.3164
 -12872614.81648 -10018450.62145  21966021.9224                   21966019.8984
 -21850118.17247 -17015341.03545  21944709.3284                   21944707.0784
 -24955680.04347 -19434058.30147  20536179.9384                   20536177.0274
 -18838068.55547 -14666070.19544  23793485.6334                   23793484.0904
 -12635704.07848  -9834350.21546  22251269.7274                   22251269.6134
   1408644.56346   1107162.83244  24290858.7274                   24290857.2734
 -28693063.50448 -22346083.21546  21095865.1804                   21095860.0434
 11  8 19  1 29 30.0000000  0  8G12G30G10G05G04G25G29G02
 -24724847.94948 -19254561.88746  20867047.2504                   20867044.0204
 -12938744.84448 -10069980.48445  21953438.1884                   21953435.3914
 -21801339.57848 -16977331.76245  21953992.3754                   21953989.6024
 -25011338.77048 -19477428.70747  20525588.3754                   20525585.7344
 -18781342.31247 -14621868.01644  23804279.8444                   23804279.0784
 -12716293.70748  -9897147.28946  22235934.2814                   22235933.8634
   1302322.80546   1024314.82044  24270625.9064                   24270625.4264
 -28690306.69948 -22343935.05546  21096389.8594                   21096384.7704
 11  8 19  1 30  0.0000000  0  8G12G30G10G05G04G25G29G02
 -24740188.95348 -19266515.91046  20864128.1414                   20864124.7544
 -13004289.90648 -10121054.53145  21940965.2734                   21940963.2424
 -21752103.92648 -16938966.32845  21963361.3054                   21963358.3524
 -25066419.82448 -19520348.97347  20515106.7894                   20515104.1094
 -18724642.46547 -14577686.35944  23815069.5164                   23815068.5434
 -12796378.35548  -9959550.87146  22220694.5164                   22220694.6214
   1195955.17647    941430.98044  24250385.7584                   24250383.8594
 -28687395.06648 -22341666.23846  21096943.6724                   21096938.9844
 11  8 19  1 30 30.0000000  0  8G12G30G10G05G04G25G29G02
 -24754937.32448 -19278008.16846  20861321.6334                   20861318.2664
 -13069249.48048 -10171672.36745  21928604.0784                   21928601.6094
 -21702414.48447 -16900247.28545  21972816.7504                   21972814.0944
 -25120923.59048 -19562819.40647  20504735.1334                   20504732.3014
 -18667970.39846 -14533526.35944  23825853.6254                   23825852.4064
 -12875956.82848 -10021560.05146  22205551.2424                   22205551.6414
   1089541.56347    858511.32044  24230135.5554                   24230134.6884
 -28684330.16848 -22339278.00446  21097527.1094                   21097522.1414
 11  8 19  1 31  0.0000000  0  8G12G30G10G05G04G25G29G02
 -24769095.10948 -19289040.21946  20858627.1884                   20858624.2894
 -13133624.21548 -10221834.47746  21916353.4694                   21916351.6334
 -21652275.98848 -16861178.34445  21982357.9694                   21982355.6844
 -25174850.90648 -19604840.65647  20494473.4774                   20494470.1644
 -18611328.89546 -14489390.14843  23836631.8914                   23836631.2194
 -12955029.30148 -10083174.93046  22190504.1094                   22190504.1524
    983080.80147    775554.92644  24209876.6334                   24209876.4614
 -28681115.02748 -22336772.68446  21098138.7734                   21098133.9064
 11  8 19  1 31 30.0000000  0  8G12G30G10G05G04G25G29G02
 -24782662.21948 -19299612.00846  20856045.6414                   20856042.3914
 -13197412.47348 -10271539.59845  21904214.9774                   21904212.6294
 -21601690.69147 -16821761.23845  21991984.0474                   21991981.5274
 -25228200.99248 -19646412.12147  20484320.7664                   20484317.6914
 -18554718.07846 -14445277.87543  23847404.7194                   23847403.6294
 -13033593.47348 -10144393.73446  22175554.0634                   22175554.0744
    876574.19947    692562.82444  24189608.6484                   24189607.6764
 -28677750.27748 -22334150.80146  21098778.8984                   21098774.3164
 11  8 19  1 32  0.0000000  0  8G12G30G10G05G04G25G29G02
 -24795637.41048 -19309722.55147  20853576.6954                   20853573.1724
 -13260611.12148 -10320785.28545  21892188.7344                   21892186.2384
 -21550659.54348 -16781996.71545  22001695.0704                   22001692.3794
 -25280971.27348 -19687531.78947  20474278.4924                   20474275.9304
 -18498136.84446 -14401188.65643  23858171.8284                   23858170.3674
 -13111645.66048 -10205213.58646  22160700.9304                   22160700.9414
    770024.10247    609536.81344  24169332.9064                   24169331.6524
 -28674235.07048 -22331411.67646  21099448.3674                   21099443.3794
 11  8 19  1 32 30.0000000  0  8G12G30G10G05G04G25G29G02
 -24808020.34848 -19319371.60547  20851220.1484                   20851217.0474
 -13323218.42248 -10369570.19146  21880275.0394                   21880273.3054
 -21499184.73047 -16741886.49245  22011490.4534                   22011487.7624
 -25333160.65648 -19728198.80947  20464347.3134                   20464344.8164
 -18441585.51647 -14357122.71544  23868933.6174                   23868933.1294
 -13189183.55148 -10265632.69146  22145946.1414                   22145945.8794
    663432.22347    526478.26244  24149048.9144                   24149048.3954
 -28670569.60548 -22328555.44946  21100145.6804                   21100140.8554
 11  8 19  1 33  0.0000000  0  8G12G30G10G05G04G25G29G02
 -24819812.72348 -19328560.48046  20848976.2504                   20848973.0234
 -13385234.26248 -10417894.21146  21868474.0394                   21868471.9614
 -21447270.02348 -16701433.48445  22021369.4384                   22021366.7504
 -25384769.38348 -19768413.37947  20454526.5704                   20454523.7384
 -18385065.61347 -14313081.30144  23879688.8524                   23879688.4454
 -13266206.28148 -10325650.38346  22131289.0554                   22131288.9264
    556798.39546    443387.00444  24128757.2274                   24128756.0124
 -28666756.08648 -22325583.85546  21100871.1884                   21100866.2074
 11  8 19  1 33 30.0000000  0  8G12G30G10G05G04G25G29G02
 -24831015.97748 -19337290.29746  20846844.1644                   20846840.8674
 -13446658.40248 -10465757.17245  21856785.0394                   21856783.1684
 -21394919.14148 -16660640.60545  22031331.4144                   22031328.8834
 -25435797.93448 -19808175.86347  20444816.1884                   20444813.0824
 -18328578.79747 -14269065.63344  23890438.0704                   23890437.6604
 -13342713.13348 -10385266.10246  22116730.2734                   22116730.0594
    450122.24646    360262.80944  24108457.6334                   24108456.1994
 -28662796.16048 -22322498.18746  21101624.6644                   21101619.8164
 11  8 19  1 34  0.0000000  0  8G12G30G10G05G04G25G29G02
 -24841630.46148 -19345561.32846  20844824.5314                   20844821.3554
 -13507489.53548 -10513158.05945  21845209.1884                   21845207.4964
 -21342134.55948 -16619509.78145  22041375.7424                   22041373.7384
 -25486245.63748 -19847485.73447  20435216.3834                   20435213.7734
 -18272125.54347 -14225076.11343  23901180.9534                   23901179.8204
 -13418702.09048 -10444478.25446  22102270.0474                   22102269.7274
    343404.78946    277106.41444  24088149.5944                   24088149.5044
 -28658690.10248 -22319298.64846  21102406.0704                   21102401.1134
 11  8 19  1 34 30.0000000  0  8G12G30G10G05G04G25G29G02
 -24851654.55948 -19353372.31646  20842916.4534                   20842913.6994
 -13567724.33248 -10560094.26645  21833746.9144                   21833744.5124
 -21288916.88747 -16578041.48045  22051503.0234                   22051500.9414
 -25536109.56648 -19886340.71547  20425727.5164                   20425724.8444
 -18215704.15247 -14181111.42244  23911917.6414                   23911916.3984
 -13494169.24648 -10503283.80546  22087908.9694                   22087909.3364
    236649.33646    193920.44544  24067834.9774                   24067833.4494
 -28654437.22348 -22315984.69946  21103215.5004                   21103210.3794
 11  8 19  1 35  0.0000000  0  8G12G30G10G05G04G25G29G02
 -24861089.96948 -19360724.59446  20841121.2814                   20841118.1484
 -13627362.79747 -10606565.78545  21822398.2274                   21822395.8364
 -21235269.62147 -16536238.42645  22061711.4924                   22061709.7154
 -25585390.42648 -19924741.35947  20416349.6174                   20416347.0784
 -18159316.35947 -14137172.89144  23922647.6954                   23922646.7464
 -13569113.93048 -10561682.24246  22073647.4454                   22073647.8524
    129855.67246    110704.71544  24047512.7344                   24047511.3054
 -28650039.33248 -22312557.75846  21104052.1334                   21104047.3484
 11  8 19  1 35 30.0000000  0  8G12G30G10G05G04G25G29G02
 -24869938.57448 -19367619.61746  20839437.2344                   20839434.1804
 -13686405.53947 -10652573.11745  21811162.6174                   21811160.3984
 -21181197.79347 -16494104.55545  22072001.2114                   22071998.3484
 -25634089.69948 -19962688.82047  20407082.6414                   20407079.5594
 -18102964.68047 -14093262.52044  23933371.7974                   23933370.1844
 -13643536.19148 -10619673.59446  22059485.2034                   22059484.9774
     23023.12546     27458.68444  24027183.5944                   24027182.2074
 -28645498.98448 -22309019.81246  21104916.2194                   21104911.5234
 11  8 19  1 36  0.0000000  0  8G12G30G10G05G04G25G29G02
 -24878201.68048 -19374058.39546  20837865.1024                   20837861.9414
 -13744851.63748 -10698115.52345  21800041.1884                   21800038.7384
 -21126703.99247 -16451641.89145  22082370.8284                   22082367.9104
 -25682206.76648 -20000182.61747  20397925.9924                   20397923.3284
 -18046649.82047 -14049380.84444  23944087.7344                   23944086.8754
 -13717434.37948 -10677256.58646  22045422.9924                   22045422.8834
    -83847.72346    -55817.20344  24006845.5474                   24006844.8594
 -28640816.78148 -22305371.33646  21105807.3204                   21105802.7624
 11  8 19  1 36 30.0000000  0  8G12G30G10G05G04G25G29G02
 -24885878.79348 -19380040.56246  20836404.2424                   20836400.7544
 -13802699.41448 -10743191.70346  21789032.9384                   21789030.6214
 -21071790.43447 -16408852.11745  22092820.7974                   22092818.3754
 -25729740.43448 -20037221.81247  20388880.5084                   20388877.9344
 -17990371.60947 -14005527.74644  23954796.8914                   23954795.8634
 -13790806.19148 -10734429.41446  22031460.8674                   22031460.7704
   -190755.10246   -139121.54344  23986501.3054                   23986501.4024
 -28635993.23848 -22301612.71546  21106724.7814                   21106720.3484
 11  8 19  1 37  0.0000000  0  8G12G30G10G05G04G25G29G02
 -24892972.40648 -19385568.05146  20835054.4384                   20835051.0944
 -13859949.26647 -10787801.96146  21778138.6644                   21778136.4224
 -21016461.00047 -16365738.28545  22103349.8444                   22103347.6054
 -25776691.82048 -20073807.28547  20379946.0944                   20379943.2424
 -17934131.98046 -13961704.70344  23965499.2034                   23965497.5664
 -13863651.31248 -10791191.83646  22017599.2114                   22017598.6884
   -297699.43746   -222454.72743  23966151.1644                   23966148.7274
 -28631030.86748 -22297745.92246  21107669.5474                   21107664.7304
 11  8 19  1 37 30.0000000  0  8G12G30G10G05G04G25G29G02
 -24899481.63748 -19390640.18446  20833815.7894                   20833812.4804
 -13916599.15247 -10831944.71946  21767358.3364                   21767356.2894
 -20960717.84447 -16322302.06645  22113957.2114                   22113954.7624
 -25823059.54348 -20109937.95347  20371122.7114                   20371119.6914
 -17877930.37546 -13917911.32843  23976193.2814                   23976192.8094
 -13935967.07048 -10847541.76246  22003837.8834                   22003837.3594
   -404679.07846   -305815.43744  23945793.8054                   23945791.7384
 -28625929.01648 -22293770.44546  21108640.1334                   21108635.3554
 11  8 19  1 38  0.0000000  0  8G12G30G10G05G04G25G29G02
 -24905406.42648 -19395256.89146  20832688.0394                   20832684.9694
 -13972647.14147 -10875618.46946  21756693.0234                   21756690.4654
 -20904562.75447 -16278544.87545  22124643.1174                   22124640.7704
 -25868842.05548 -20145612.60547  20362410.5474                   20362407.8364
 -17821766.64147 -13874147.35943  23986881.2194                   23986880.3634
 -14007750.89548 -10903477.20746  21990177.5944                   21990177.4884
   -511691.59047   -389201.74244  23925429.9144                   23925428.8054
 -28620687.85548 -22289686.42246  21109637.6954                   21109633.0634
 11  8 19  1 38 30.0000000  0  8G12G30G10G05G04G25G29G02
 -24910749.76248 -19399420.52746  20831671.4384                   20831668.4614
 -14028094.36747 -10918824.07046  21746141.2894                   21746139.2624
 -20848000.44147 -16234470.35245  22135406.3284                   22135403.9884
 -25914041.17648 -20180832.66847  20353809.3364                   20353806.5044
 -17765643.03146 -13830414.72343  23997561.6414                   23997560.8134
 -14079003.10948 -10958998.40246  21976619.0234                   21976618.5554
   -618738.37147   -472614.77044  23905059.3754                   23905056.1484
 -28615309.94548 -22285495.84046  21110661.1414                   21110656.3444
 11  8 19  1 39  0.0000000  0  8G12G30G10G05G04G25G29G02
 -24915510.31248 -19403130.04746  20830765.4384                   20830762.3594
 -14082937.92647 -10961559.27746  21735704.8754                   21735703.1454
 -20791031.65647 -16190079.10545  22146247.8134                   22146244.5664
 -25958654.79348 -20215596.50047  20345319.7664                   20345316.9024
 -17709558.39546 -13786712.41843  24008234.3984                   24008232.5664
 -14149720.21948 -11014102.62946  21963161.8834                   21963161.9654
   -725816.38347   -556052.17243  23884682.8054                   23884681.2424
 -28609794.29748 -22281197.94146  21111710.2194                   21111705.7974
 11  8 19  1 39 30.0000000  0  8G12G30G10G05G04G25G29G02
 -24919687.70348 -19406385.14546  20829970.6484                   20829967.4384
 -14137175.61347 -11003822.38746  21725384.0944                   21725381.7894
 -20733657.89547 -16145372.29745  22157165.0704                   22157162.3484
 -26002681.27748 -20249902.82447  20336941.7034                   20336939.1094
 -17653511.85546 -13743039.82443  24018899.2344                   24018899.1484
 -14219899.30548 -11068787.61746  21949807.1724                   21949806.9144
   -832923.27347   -639512.09444  23864301.2894                   23864298.6334
 -28604140.19948 -22276792.14846  21112786.6094                   21112781.6564
 11  8 19  1 40  0.0000000  0  8G12G30G10G05G04G25G29G02
 -24923285.71948 -19409188.79746  20829285.6884                   20829282.8244
 -14190809.90647 -11045615.31646  21715177.8444                   21715175.5664
 -20675885.21547 -16100354.62945  22168158.7194                   22168156.9454
 -26046123.62548 -20283753.97347  20328674.9224                   20328672.1294
 -17597507.11746 -13699399.80143  24029556.8914                   24029555.4614
 -14289542.08248 -11123054.69546  21936554.3754                   21936554.1024
   -940061.43447   -722996.37544  23843913.4144                   23843911.4414
 -28598351.94947 -22272281.82846  21113887.9384                   21113883.0904
 11  8 19  1 40 30.0000000  0  8G12G30G10G05G04G25G29G02
 -24926304.43448 -19411541.04346  20828711.3364                   20828708.2154
 -14243839.12147 -11086936.74646  21705086.4454                   21705084.4924
 -20617715.52747 -16055027.59845  22179227.8834                   22179226.3094
 -26088980.49248 -20317148.91047  20320519.6174                   20320516.6134
 -17541543.86746 -13655792.07443  24040205.7344                   24040205.6134
 -14358646.20348 -11176902.03946  21923404.4304                   21923404.3054
  -1047229.23047   -806503.71944  23823520.5314                   23823519.3874
 -28592429.50448 -22267666.94146  21115015.2274                   21115010.3874
 11  8 19  1 41  0.0000000  0  8G12G30G10G05G04G25G29G02
 -24928745.18048 -19413442.92246  20828246.9304                   20828244.2974
 -14296262.89847 -11127786.41846  21695110.5234                   21695108.4144
 -20559152.15647 -16009393.78945  22190372.3364                   22190370.7384
 -26131252.22348 -20350087.89547  20312475.4224                   20312472.6994
 -17485623.10247 -13612217.44943  24050847.7424                   24050846.9804
 -14427210.62548 -11230328.84446  21910357.1484                   21910356.8364
  -1154425.48447   -890033.28544  23803122.2034                   23803119.7194
 -28586373.78548 -22262948.20346  21116167.3914                   21116162.5204
 11  8 19  1 41 30.0000000  0  8G12G30G10G05G04G25G29G02
 -24930608.62548 -19414894.94946  20827892.5944                   20827889.1254
 -14348080.22748 -11168163.53546  21685250.2034                   21685248.4924
 -20500197.74647 -15963455.30545  22201591.2114                   22201589.0274
 -26172938.17648 -20382570.42647  20304542.7114                   20304540.1884
 -17429745.10947 -13568676.16443  24061481.9064                   24061480.2114
 -14495233.51248 -11283333.66446  21897412.8754                   21897412.6724
  -1261648.93047   -973584.01644  23782717.7274                   23782716.4064
 -28580185.43048 -22258126.11746  21117344.8674                   21117340.1524
 11  8 19  1 42  0.0000000  0  8G12G30G10G05G04G25G29G02
 -24931894.82448 -19415897.18746  20827647.4844                   20827644.5314
 -14399289.36348 -11208066.73046  21675505.3594                   21675503.1684
 -20440854.06247 -15917213.46945  22212883.6334                   22212881.6334
 -26214037.55548 -20414595.89147  20296721.6414                   20296719.0274
 -17373909.41847 -13525167.80943  24072105.9774                   24072104.4804
 -14562712.44948 -11335914.61746  21884571.6024                   21884571.8794
  -1368897.96947  -1057154.70344  23762308.6024                   23762308.0044
 -28573864.16448 -22253200.46946  21118547.7424                   21118542.9064
 11  8 19  1 42 30.0000000  0  8G12G30G10G05G04G25G29G02
 -24932605.05548 -19416450.60946  20827512.8204                   20827509.5784
 -14449890.00848 -11247495.78146  21665876.5004                   21665873.7664
 -20381124.47747 -15870670.93445  22224249.7584                   22224247.2704
 -26254550.50848 -20446164.40647  20289012.4614                   20289009.8794
 -17318116.62146 -13481692.93043  24082723.1174                   24082722.1374
 -14629646.43448 -11388070.94946  21871834.8054                   21871834.7114
  -1476171.65246  -1140744.56244  23741894.5474                   23741894.4534
 -28567411.51247 -22248172.44946  21119775.7034                   21119770.7814
 11  8 19  1 43  0.0000000  0  8G12G30G10G05G04G25G29G02
 -24932742.26648 -19416557.53146  20827486.1564                   20827483.1644
 -14499883.69548 -11286451.88345  21656362.8284                   21656360.2154
 -20321013.97747 -15823831.58645  22235688.2894                   22235685.9184
 -26294479.20348 -20477277.66047  20281414.1724                   20281411.6024
 -17262369.54346 -13438253.63343  24093331.5234                   24093330.2624
 -14696036.17648 -11439803.18046  21859201.1334                   21859201.1884
  -1583471.18447  -1224354.55144  23721477.1644                   23721476.0354
 -28560830.27348 -22243044.21546  21121028.0704                   21121023.6644
 11  8 19  1 43 30.0000000  0  8G12G30G10G05G04G25G29G02
 -24932306.50848 -19416217.97746  20827569.3834                   20827565.9104
 -14549268.54748 -11324933.56646  21646965.0554                   21646962.6024
 -20260524.29347 -15776696.76245  22247199.7114                   22247197.5664
 -26333822.41048 -20507934.68447  20273927.3834                   20273924.6374
 -17206667.50046 -13394849.49243  24103930.6884                   24103930.4574
 -14761879.15248 -11491109.35546  21846671.8984                   21846671.4064
  -1690794.30146  -1307982.94544  23701053.8284                   23701052.6174
 -28554119.59848 -22237815.12546  21122305.0634                   21122300.1684
 11  8 19  1 44  0.0000000  0  8G12G30G10G05G04G25G29G02
 -24931301.77048 -19415435.07046  20827760.3984                   20827757.3284
 -14598047.10948 -11362942.82445  21637682.7814                   21637680.7854
 -20199661.43747 -15729271.16045  22258781.8204                   22258779.1094
 -26372583.17248 -20538137.85947  20266551.3984                   20266548.7974
 -17151014.13346 -13351483.25843  24114521.9694                   24114521.2704
 -14827177.13348 -11541990.87146  21834245.8834                   21834245.8134
  -1798143.23446  -1391631.46944  23680625.6954                   23680624.5124
 -28547283.88348 -22232488.60546  21123606.1564                   21123601.0744
 11  8 19  1 44 30.0000000  0  8G12G30G10G05G04G25G29G02
 -24929725.96148 -19414207.16446  20828060.3134                   20828057.5084
 -14646215.30147 -11400476.47345  21628516.6644                   21628514.3794
 -20138424.78947 -15681554.30145  22270434.5164                   22270431.9804
 -26410758.11748 -20567884.55547  20259287.2344                   20259284.1524
 -17095406.37547 -13308152.52043  24125103.4924                   24125101.8984
 -14891925.29348 -11592443.95746  21821924.8204                   21821924.8714
  -1905513.21546  -1475296.34044  23660193.5394                   23660192.9774
 -28540320.26648 -22227062.40646  21124931.0474                   21124925.9614
 11  8 19  1 45  0.0000000  0  8G12G30G10G05G04G25G29G02
 -24927580.32848 -19412535.24246  20828468.6334                   20828465.4224
 -14693772.94148 -11437534.37146  21619466.5004                   21619464.3634
 -20076817.56247 -15633548.67245  22282157.5394                   22282155.6024
 -26448347.32048 -20597174.82047  20252134.1564                   20252131.0234
 -17039845.02746 -13264857.92644  24135676.7734                   24135675.7584
 -14956122.68048 -11642467.87146  21809708.1724                   21809708.3874
  -2012903.41447  -1558976.97344  23639757.9064                   23639757.3874
 -28533229.88348 -22221537.43446  21126280.0634                   21126275.2934
 11  8 19  1 45 30.0000000  0  8G12G30G10G05G04G25G29G02
 -24924866.24248 -19410420.37546  20828985.2664                   20828982.3014
 -14740719.99648 -11474116.48846  21610532.8524                   21610530.5274
 -20014842.96547 -15585256.78545  22293951.2974                   22293948.9104
 -26485351.27348 -20626009.05547  20245092.4304                   20245089.5274
 -16984331.22346 -13221600.40243  24146240.6414                   24146238.7384
 -15019768.43748 -11692061.95346  21797597.0394                   21797596.7194
  -2120313.32847  -1642672.94944  23619319.2974                   23619318.0474
 -28526013.73448 -22215914.46946  21127653.3594                   21127648.6334
 11  8 19  1 46  0.0000000  0  8G12G30G10G05G04G25G29G02
 -24921585.39848 -19407863.87146  20829609.3984                   20829606.6454
 -14787056.13748 -11510222.57446  21601715.6094                   21601713.7584
 -19952504.03947 -15536681.00045  22305814.1254                   22305811.6484
 -26521770.31648 -20654387.51247  20238162.1954                   20238159.2114
 -16928865.36346 -13178380.23843  24156795.4694                   24156793.6214
 -15082861.46548 -11741225.33646  21785590.8134                   21785590.9414
  -2227741.91847  -1726383.48044  23598875.9064                   23598874.1644
 -28518672.96148 -22210194.37946  21129050.2814                   21129045.6024
 11  8 19  1 46 30.0000000  0  8G12G30G10G05G04G25G29G02
 -24917738.06248 -19404865.94146  20830341.4774                   20830338.5474
 -14832780.18048 -11545851.69946  21593014.6884                   21593012.3204
 -19889803.29347 -15487823.28945  22317745.8284                   22317743.4064
 -26557603.85548 -20682309.72347  20231343.1174                   20231340.5204
 -16873447.13346 -13135197.20743  24167341.0234                   24167338.1484
 -15145399.82848 -11789956.51246  21773690.0704                   21773689.3054
  -2335187.60247  -1810107.34045  23578430.2664                   23578428.8984
 -28511207.75448 -22204377.34446  21130470.9774                   21130466.1764
 11  8 19  1 47  0.0000000  0  8G12G30G10G05G04G25G29G02
 -24913325.19148 -19401427.34446  20831181.1884                   20831178.5824
 -14877891.37148 -11581003.27346  21584430.4694                   21584428.1024
 -19826743.15647 -15438685.52745  22329745.6564                   22329742.9414
 -26592852.16848 -20709775.92247  20224635.8054                   20224632.9144
 -16818077.07847 -13092051.68444  24177877.6884                   24177876.6134
 -15207382.03948 -11838254.32046  21761895.1644                   21761895.0634
  -2442648.94547  -1893843.37544  23557980.6334                   23557979.2274
 -28503618.12548 -22198463.34446  21131915.2034                   21131910.8134
 11  8 19  1 47 30.0000000  0  8G12G30G10G05G04G25G29G02
 -24908348.27348 -19397549.21946  20832128.3674                   20832125.3714
 -14922389.55148 -11615677.18446  21575962.6024                   21575960.6134
 -19763326.80947 -15389270.20745  22341813.4844                   22341810.9774
 -26627515.21148 -20736786.05547  20218039.5634                   20218036.7504
 -16762755.25446 -13048943.77343  24188404.7894                   24188403.4264
 -15268807.10548 -11886117.99646  21750206.2114                   21750206.3984
  -2550124.95347  -1977590.85244  23537528.8754                   23537526.8014
 -28495905.18748 -22192453.26646  21133382.6804                   21133378.0434
 11  8 19  1 48  0.0000000  0  8G12G30G10G05G04G25G29G02
 -24902808.05548 -19393232.16446  20833182.4224                   20833179.5784
 -14966274.10548 -11649872.93046  21567611.4304                   21567609.3324
 -19699557.04347 -15339579.49645  22353948.6804                   22353945.8484
 -26661592.93048 -20763340.10247  20211554.8674                   20211551.7544
 -16707482.37146 -13005874.02344  24198923.1414                   24198922.2194
 -15329673.69948 -11933546.49646  21738624.0314                   21738623.7624
  -2657614.20347  -2061348.64844  23517074.2664                   23517071.6844
 -28488069.51648 -22186347.53946  21134873.8984                   21134869.2854
 11  8 19  1 48 30.0000000  0  9G12G30G26G10G05G04G25G29G02
 -24896708.16448 -19388478.99246  20834343.5164                   20834340.5164
 -15009546.62548 -11683591.77746  21559377.5864                   21559375.1954
   4556569.76655   3561096.57453  24746579.5004                   24746580.1914
 -19635438.56647 -15289617.07045  22366149.7034                   22366147.0904
 -26695087.25048 -20789439.54347  20205180.8834                   20205177.7424
 -16652260.56646 -12962844.05544  24209431.1414                   24209430.7234
 -15389982.49248 -11980540.34846  21727147.2814                   21727147.4384
  -2765117.41447  -2145117.35244  23496617.2974                   23496614.8364
 -28480113.82447 -22180148.28146  21136387.9774                   21136383.2344
 11  8 19  1 49  0.0000000  0  9G12G30G26G10G05G04G25G29G02
 -24890055.04347 -19383294.74646  20835609.8444                   20835606.3554
 -15052212.24248 -11716837.70345  21551257.9064                   21551256.3284
   4439962.42246   3470233.83643  24724390.7344                   24724389.8634
 -19570979.85247 -15239389.52345  22378415.7504                   22378413.8834
 -26728004.34448 -20815089.20747  20198916.7274                   20198914.1804
 -16597095.60546 -12919858.40243  24219928.8984                   24219927.5904
 -15449737.85948 -12027102.96546  21715776.2194                   21715775.9614
  -2872639.29347  -2228900.55944  23476156.1724                   23476154.2734
 -28472044.07848 -22173860.15246  21137923.3524                   21137918.3554
 11  8 19  1 49 30.0000000  0  9G12G30G26G10G05G04G25G29G02
 -24882852.14548 -19377682.10246  20836980.2584                   20836977.1644
 -15094272.42248 -11749611.85246  21543254.2974                   21543252.3954
   4323220.84446   3379266.51643  24702175.8204                   24702175.1644
 -19506185.66447 -15188900.56645  22390746.0474                   22390743.7154
 -26760345.97748 -20840290.46147  20192762.4844                   20192759.7034
 -16541989.74646 -12876918.82443  24230414.6174                   24230414.7974
 -15508940.44548 -12073234.83646  21704510.5864                   21704510.3634
  -2980180.05547  -2312698.50844  23455691.4694                   23455688.9964
 -28463862.86748 -22167485.17246  21139480.4454                   21139475.2384
 11  8 19  1 50  0.0000000  0  9G12G30G26G10G05G04G25G29G02
 -24875102.28148 -19371643.24246  20838454.8204                   20838451.6024
 -15135728.46548 -11781915.24646  21535365.4384                   21535363.0744
   4206346.32446   3288195.57443  24679935.0944                   24679933.6374
 -19441060.60247 -15138153.79745  22403138.4064                   22403136.8834
 -26792114.18448 -20865044.89547  20186717.1884                   20186714.5394
 -16486944.71946 -12834026.66443  24240888.9304                   24240888.9654
 -15567590.74248 -12118936.34446  21693349.4064                   21693349.5474
  -3087740.23047  -2396511.60244  23435223.9304                   23435222.2464
 -28455572.36348 -22161025.01646  21141057.9924                   21141053.4964
 11  8 19  1 50 30.0000000  0  9G12G30G26G10G05G04G25G29G02
 -24866799.76648 -19365173.75446  20840034.7274                   20840031.7664
 -15176573.31248 -11813742.38346  21527592.8054                   21527591.1414
   4089348.70346   3197028.69143  24657671.3834                   24657669.4224
 -19375600.68447 -15087146.10245  22415595.0634                   22415593.2034
 -26823302.23848 -20889347.26247  20180781.9534                   20180779.8164
 -16431954.29346 -12791177.03543  24251354.0394                   24251353.3874
 -15625680.87548 -12164201.35946  21682295.4064                   21682295.1764
  -3195312.11747  -2480333.80144  23414753.3134                   23414751.8524
 -28447166.45348 -22154474.94946  21142657.4844                   21142652.6684
 11  8 19  1 51  0.0000000  0  9G12G30G26G10G05G04G25G29G02
 -24857946.24648 -19358274.90646  20841719.5864                   20841716.2894
 -15216806.85248 -11845093.16846  21519936.9064                   21519934.9534
   3972230.40646   3105767.77343  24635383.8134                   24635381.9884
 -19309808.91047 -15035879.82845  22428115.1884                   22428112.5514
 -26853910.70748 -20913197.99647  20174957.7734                   20174954.9184
 -16377019.02346 -12748370.39843  24261808.8984                   24261806.8754
 -15683209.93448 -12209029.16446  21671347.8444                   21671347.4144
  -3302894.02347  -2564163.78144  23394281.2504                   23394279.8324
 -28438646.14848 -22147835.73446  21144278.9454                   21144274.0664
 11  8 19  1 51 30.0000000  0  9G12G30G26G10G05G04G25G29G02
 -24848540.64848 -19350945.87146  20843509.2344                   20843506.2934
 -15256426.68448 -11875965.72746  21512396.9614                   21512395.3014
   3854996.64846   3014416.87143  24613075.1334                   24613073.2624
 -19243685.75047 -14984355.30945  22440698.3284                   22440695.2424
 -26883937.61748 -20936595.57447  20169243.8674                   20169240.5394
 -16322136.80946 -12705605.01643  24272252.5704                   24272251.6994
 -15740174.60248 -12253417.19546  21660507.8054                   21660507.8054
  -3410482.69547  -2647999.06245  23373807.6884                   23373807.0354
 -28430009.40648 -22141105.78546  21145922.5164                   21145917.4924
 11  8 19  1 52  0.0000000  0  9G12G30G26G10G05G04G25G29G02
 -24838585.70348 -19343188.77746  20845403.9534                   20845400.4224
 -15295433.55548 -11906360.65246  21504974.4774                   21504971.9844
   3737649.40646   2922977.58643  24590744.9224                   24590741.4064
 -19177235.11747 -14932575.61345  22453343.0164                   22453340.5944
 -26913384.25448 -20959540.99647  20163640.4064                   20163637.3284
 -16267309.09847 -12662882.13744  24282685.8914                   24282683.8484
 -15796574.82448 -12297365.39546  21649775.0944                   21649775.0314
  -3518077.88747  -2731839.38745  23353332.3444                   23353331.5744
 -28421258.14548 -22134286.60946  21147587.7504                   21147582.8754
 11  8 19  1 52 30.0000000  0  9G12G30G26G10G05G04G25G29G02
 -24828080.10547 -19335002.59846  20847402.8834                   20847399.8674
 -15333824.85248 -11936275.91846  21497668.7344                   21497666.6054
   3620193.78546   2831453.84043  24568393.6884                   24568391.4774
 -19110457.45746 -14880541.12544  22466050.3204                   22466048.4964
 -26942248.61348 -20982032.69147  20158147.7034                   20158144.3914
 -16212533.59846 -12620199.91043  24293108.7424                   24293107.8554
 -15852407.17648 -12340871.07846  21639150.6644                   21639150.6484
  -3625675.89847  -2815681.94145  23332857.1024                   23332856.0744
 -28412390.51247 -22127376.73446  21149275.3594                   21149270.1954
 11  8 19  1 53  0.0000000  0  9G12G30G26G10G05G04G25G29G02
 -24817027.79748 -19326390.42246  20849506.0474                   20849502.7894
 -15371602.63348 -11965713.11346  21490480.1484                   21490477.3484
   3502630.45746   2739846.17243  24546022.0554                   24546020.6454
 -19043357.92247 -14828255.82044  22478819.1884                   22478816.9614
 -26970533.37548 -21004072.75047  20152765.3834                   20152762.3014
 -16157812.84446 -12577560.35243  24303520.9534                   24303521.4344
 -15907672.93748 -12383935.28146  21628634.1884                   21628633.7344
  -3733277.62947  -2899527.41445  23312381.7114                   23312379.4024
 -28403409.36348 -22120378.41046  21150984.3594                   21150979.4384
 11  8 19  1 53 30.0000000  0  9G12G30G26G10G05G04G25G29G02
 -24805428.31248 -19317351.87546  20851713.7114                   20851710.2504
 -15408765.08648 -11994670.83646  21483407.9454                   21483405.8794
   3384964.49246   2648158.53143  24523630.0704                   24523629.0514
 -18975937.87546 -14775720.74644  22491648.2974                   22491646.6524
 -26998237.24648 -21025660.16847  20147493.3284                   20147490.1804
 -16103145.53546 -12534962.48043  24313924.5234                   24313923.9844
 -15962369.35248 -12426555.82046  21618225.6024                   21618224.7814
  -3840880.14847  -2983373.48845  23291905.2584                   23291904.3794
 -28394313.42248 -22113290.64146  21152715.1414                   21152710.1374
 11  8 19  1 54  0.0000000  0  9G12G30G26G10G05G04G25G29G02
 -24793282.98448 -19307887.98446  20854024.5784                   20854021.3914
 -15445311.93448 -12023148.86346  21476453.3054                   21476451.1454
   3267198.84445   2556393.23843  24501220.1564                   24501218.7814
 -18908199.81646 -14722937.86344  22504539.0554                   22504536.8754
 -27025360.32048 -21046795.02047  20142332.0554                   20142329.2274
 -16048531.63746 -12492406.19543  24324317.0164                   24324317.0354
 -16016495.22748 -12468731.80146  21607925.8364                   21607925.1054
  -3948481.93747  -3067219.00045  23271429.4454                   23271428.2074
 -28385103.20748 -22106113.82846  21154467.6484                   21154462.8404
 11  8 19  1 54 30.0000000  0  9G12G30G26G10G05G04G25G29G02
 -24780590.68748 -19297997.89146  20856439.9144                   20856436.7814
 -15481240.66048 -12051145.25046  21469616.9144                   21469614.1954
   3149338.48445   2464554.20343  24478791.3984                   24478789.9734
 -18840144.58246 -14669907.81644  22517489.4534                   22517486.9064
 -27051900.70748 -21067475.82047  20137281.6254                   20137278.4884
 -15993969.07046 -12449889.89843  24334699.9844                   24334699.7584
 -16070047.42247 -12510460.75446  21597735.0784                   21597734.4844
  -4056079.31247  -3151061.07045  23250954.3594                   23250952.4734
 -28375776.68048 -22098846.38746  21156242.8134                   21156237.8164
 11  8 19  1 55  0.0000000  0  9G12G30G26G10G05G04G25G29G02
 -24767356.03148 -19287685.18746  20858958.4924                   20858955.2384
 -15516553.97348 -12078662.09846  21462896.6024                   21462894.2854
   3031383.98046   2372641.75443  24456345.2974                   24456343.9534
 -18771777.35546 -14616634.64844  22530499.3054                   22530496.4064
 -27077861.25448 -21087704.79747  20132341.5554                   20132338.3794
 -15939460.66847 -12407415.83643  24345073.4454                   24345072.9574
 -16123027.55548 -12551743.95746  21587653.4924                   21587652.6604
  -4163673.54747  -3234900.72345  23230480.4614                   23230479.0594
 -28366337.37548 -22091491.07446  21158038.6564                   21158033.8014
 11  8 19  1 55 30.0000000  0  9G12G30G26G10G05G04G25G29G02
 -24753579.31648 -19276950.09446  20861580.5234                   20861576.7894
 -15551250.34848 -12105698.20346  21456293.9144                   21456291.6134
   2913339.82846   2280659.38343  24433882.5164                   24433881.9384
 -18703099.82846 -14563119.73444  22543567.8834                   22543565.4264
 -27103241.43048 -21107481.53947  20127511.8674                   20127508.4144
 -15885005.38747 -12364983.10243  24355435.7344                   24355434.5704
 -16175433.42648 -12592579.66846  21577680.9534                   21577680.5784
  -4271262.01247  -3318735.86745  23210006.8834                   23210004.1524
 -28356784.48048 -22084047.25846  21159856.7814                   21159851.8404
 11  8 19  1 56  0.0000000  0  9G12G30G26G10G05G04G25G29G02
 -24739262.55148 -19265794.18446  20864304.3914                   20864301.1334
 -15585330.84848 -12132254.41446  21449808.8594                   21449806.8364
   2795207.87146   2188608.62143  24411403.1884                   24411401.6604
 -18634115.59447 -14509365.81244  22556695.4924                   22556693.3954
 -27128042.66848 -21126807.16847  20122792.2584                   20122789.2584
 -15830604.27747 -12322592.56243  24365787.2894                   24365786.4654
 -16227265.00448 -12632967.89546  21567817.6334                   21567817.4614
  -4378843.98447  -3402565.96545  23189534.7194                   23189533.0634
 -28347119.06647 -22076515.75846  21161695.5784                   21161691.2734
 11  8 19  1 56 30.0000000  0  9G12G30G26G10G05G04G25G29G02
 -24724407.63348 -19254218.93046  20867131.4454                   20867128.1604
 -15618795.57048 -12158330.81646  21443440.7584                   21443438.6054
   2676991.11747   2096491.75443  24388907.0004                   24388905.3874
 -18564827.78547 -14455375.32844  22569880.3364                   22569878.3204
 -27152265.42648 -21145682.02347  20118182.7814                   20118179.5434
 -15776257.84446 -12280244.61743  24376129.7584                   24376128.8874
 -16278521.75448 -12672908.19946  21558063.6024                   21558063.4574
  -4486418.40647  -3486390.16445  23169063.4144                   23169062.4184
 -28337342.16847 -22068897.39146  21163556.4304                   21163551.4574
 11  8 19  1 57  0.0000000  0  9G12G30G26G10G05G04G25G29G02
 -23133595.20348 -18014624.84446  21169852.8444                   21169849.6294
 -14076222.28548 -10956325.64546  21736982.2274                   21736980.1334
   4134117.79347   3231915.20343  24666189.4304                   24666187.7344
 -16919820.57847 -13173551.51244  22882914.6254                   22882912.5234
 -25600488.32448 -19936505.04347  20413476.1334                   20413473.0274
 -14146546.78946 -11010339.80942  24686252.3364                   24686251.6724
 -14753779.78548 -11484797.55946  21848212.2114                   21848212.0514
  -3018558.88747  -2342603.53145  23448388.5554                   23448386.6054
 -26752033.09048 -20833591.59846  21465230.5554                   21465226.0984
 11  8 19  1 57 30.0000000  0  9G12G30G26G10G05G04G25G29G02
 -23117669.28948 -18002215.04346  21172883.5164                   21172880.1454
 -14108456.49248 -10981443.21146  21730848.4694                   21730846.4884
   4015739.50447   3139672.41843  24643662.3914                   24643660.8444
 -16849935.09047 -13119095.28944  22896213.8204                   22896210.6804
 -25623556.91448 -19954480.56247  20409086.1094                   20409083.1764
 -14092310.82846 -10968078.04342  24696572.6334                   24696572.4344
 -14803885.00848 -11523840.57846  21838677.6804                   21838677.0204
  -3126114.79747  -2426413.30144  23427920.5084                   23427918.8634
 -26742035.25448 -20825801.06246  21467133.0944                   21467128.3954
 11  8 19  1 58  0.0000000  0  9G12G30G26G10G05G04G25G29G02
 -23101211.66448 -17989390.93446  21176015.3914                   21176011.8164
 -14140076.53948 -11006082.21146  21724831.4454                   21724829.2774
   3897284.35947   3047369.70743  24621121.3914                   24621118.1844
 -16779755.61747 -13064410.01644  22909568.0084                   22909565.5084
 -25646050.20748 -19972007.79347  20404805.8984                   20404802.9774
 -14038131.22745 -10925860.22742  24706882.4384                   24706882.0044
 -14853414.21947 -11562434.76246  21829252.6724                   21829252.5704
  -3233660.16046  -2510214.85245  23407455.4924                   23407453.3954
 -26731928.65247 -20817925.78546  21469056.0864                   21469051.5944
 11  8 19  1 58 30.0000000  0  9G12G30G26G10G05G04G25G29G02
 -23084223.46948 -17976153.38346  21179247.8834                   21179244.8834
 -14171082.19148 -11030242.47746  21718931.4304                   21718929.4804
   3778755.47747   2955009.53543  24598566.4304                   24598562.9104
 -16709285.09446 -13009497.94144  22922978.1644                   22922976.1844
 -25667968.56248 -19989087.02747  20400634.8444                   20400632.0234
 -13984007.94146 -10883686.27042  24717181.6644                   24717181.8364
 -14902366.40248 -11600579.32446  21819937.5864                   21819937.2734
  -3341193.16847  -2594006.79344  23386992.5634                   23386991.1094
 -26721713.24647 -20809965.72346  21471000.0474                   21470995.5084
 11  8 19  1 59  0.0000000  0  9G12G30G26G10G05G04G25G29G02
 -23066705.31648 -17962502.87946  21182581.5084                   21182578.7074
 -14201472.91448 -11053923.57046  21713148.1564                   21713146.2344
   3660156.67246   2862594.96943  24575997.2974                   24575995.4964
 -16638525.67646 -12954360.75044  22936443.6174                   22936441.4654
 -25689311.85248 -20005718.14847  20396573.3834                   20396570.5434
 -13929940.56646 -10841555.84443  24727471.0864                   24727470.1024
 -14950740.06647 -11638273.08646  21810732.3834                   21810731.8914
  -3448711.66447  -2677787.40245  23366532.5164                   23366530.7384
 -26711388.95747 -20801920.83246  21472964.9844                   21472959.7624
 11  8 19  1 59 30.0000000  0  9G12G30G26G10G05G04G25G29G02
 -23048659.10248 -17948440.90646  21186015.5864                   21186012.1174
 -14231248.73048 -11077125.51646  21707482.1484                   21707479.5984
   3541491.21946   2770128.44943  24553414.6484                   24553414.4104
 -16567479.84446 -12899000.38344  22949962.7584                   22949961.5394
 -25710080.72348 -20021901.68047  20392621.4224                   20392618.2664
 -13875928.99246 -10799468.93443  24737749.5164                   24737748.2734
 -14998534.35548 -11675515.39846  21801637.3674                   21801637.1914
  -3556214.53547  -2761555.84444  23346075.2504                   23346073.2894
 -26700956.29347 -20793791.49246  21474950.5084                   21474945.4064
 11  8 19  2  0  0.0000000  0  9G12G30G26G10G05G04G25G29G02
 -23030087.14548 -17933969.26246  21189549.9774                   21189546.5864
 -14260410.59048 -11099849.05146  21701932.6954                   21701930.8484
   3422761.41445   2677611.83243  24530821.5234                   24530820.9144
 -16496151.25446 -12843419.67244  22963536.5084                   22963534.7974
 -25730276.39848 -20037638.55947  20388778.4144                   20388775.2814
 -13821974.10247 -10757426.20343  24748017.1414                   24748015.1844
 -15045749.33248 -11712306.28546  21792652.9144                   21792652.7384
  -3663700.43046  -2845311.05944  23325621.2734                   23325619.6334
 -26690416.19147 -20785578.41846  21476955.9844                   21476951.1764
 11  8 19  2  0 30.0000000  0  9G12G30G26G10G05G04G25G29G02
 -23010991.07048 -17919089.20346  21193183.7734                   21193180.6174
 -14288958.61748 -11122094.28146  21696500.3754                   21696498.3524
   3303970.61346   2585047.71943  24508216.4844                   24508215.5904
 -16424542.94146 -12787620.98444  22977162.8674                   22977161.0164
 -25749899.39148 -20052929.19947  20385044.1094                   20385041.1914
 -13768075.91447 -10715427.64843  24758273.4454                   24758272.4734
 -15092384.19148 -11748645.14846  21783778.4144                   21783777.6054
  -3771167.90346  -2929051.91844  23305170.4694                   23305168.9844
 -26679768.94948 -20777281.86746  21478981.8054                   21478977.4654
 11  8 19  2  1  0.0000000  0  9G12G30G26G10G05G04G25G29G02
 -22991373.11748 -17903802.48046  21196916.7974                   21196913.4494
 -14316893.39848 -11143861.66046  21691184.2344                   21691182.3794
   3185121.40246   2492438.08243  24485600.1644                   24485599.8014
 -16352657.96546 -12731606.74644  22990842.1724                   22990840.1214
 -25768950.90248 -20067774.52347  20381418.8134                   20381415.7384
 -13714234.93047 -10673473.64143  24768519.0554                   24768518.5664
 -15138438.71548 -11784531.78946  21775014.4384                   21775014.1764
  -3878616.16046  -3012777.73444  23284723.6564                   23284721.9654
 -26669015.69548 -20768902.70746  21481028.1174                   21481023.6914
 11  8 19  2  1 30.0000000  0  9G12G30G26G10G05G04G25G29G02
 -22971236.39148 -17888111.53146  21200748.7114                   21200745.3404
 -14344216.75848 -11165152.59046  21685984.7424                   21685982.4614
   3066215.79746   2399784.49643  24462972.8364                   24462972.6764
 -16280500.62146 -12675380.27744  23004573.1334                   23004571.0234
 -25787433.31648 -20082176.38747  20377901.5634                   20377898.5004
 -13660452.56247 -10631565.28943  24778753.7034                   24778752.8914
 -15183913.66448 -11819966.82046  21766360.6884                   21766360.5124
  -3986044.63746  -3096488.17645  23264281.1644                   23264279.3874
 -26658158.07847 -20760442.23046  21483094.2814                   21483089.4924
 11  8 19  2  2  0.0000000  0  8G12G30G26G10G05G25G29G02
 -22950581.86348 -17872017.09446  21204678.9224                   21204675.8714
 -14370928.14847 -11185966.67246  21680901.6174                   21680899.6374
   2947257.58246   2307089.89544  24440335.7424                   24440335.0474
 -16208072.84446 -12618943.08644  23018356.5004                   23018354.1294
 -25805346.58248 -20096134.77347  20374492.3834                   20374489.6024
 -15228807.73848 -11854949.21146  21757817.9454                   21757817.2464
  -4093451.40246  -3180181.70745  23243842.1564                   23243840.7274
 -26647195.85547 -20751900.23446  21485180.4224                   21485175.6684
 11  8 19  2  2 30.0000000  0  8G12G30G26G10G05G25G29G02
 -22929410.07048 -17855519.58646  21208708.2584                   21208704.4774
 -14397026.41047 -11206302.98846  21675935.2974                   21675933.5824
   2828251.28546   2214357.84844  24417689.1724                   24417689.6844
 -16135376.18447 -12562296.34444  23032190.1094                   23032187.5274
 -25822690.00848 -20109649.10947  20371192.3054                   20371189.2774
 -15273118.84048 -11889477.34446  21749385.6414                   21749385.3094
  -4200833.59047  -3263856.05545  23223408.1484                   23223406.3444
 -26636127.72347 -20743275.71946  21487286.5944                   21487281.7034
 11  8 19  2  3  0.0000000  0  8G12G30G26G10G05G25G29G02
 -22907715.91048 -17838615.04746  21212836.0944                   21212833.3794
 -14422505.52047 -11226156.83246  21671087.0634                   21671084.8714
   2709206.66047   2121595.87144  24395037.2814                   24395035.7034
 -16062406.79346 -12505437.08244  23046076.0084                   23046073.3324
 -25839457.85248 -20122714.95747  20368001.4454                   20367998.6684
 -15316839.90248 -11923545.70746  21741065.7034                   21741064.9304
  -4308182.72347  -3347504.69145  23202980.2504                   23202978.0904
 -26624947.82048 -20734564.09846  21489414.1024                   21489409.3204
 11  8 19  2  3 30.0000000  0  8G12G30G26G10G05G25G29G02
 -22885498.18048 -17821302.52746  21217064.2734                   21217060.9924
 -14447361.93748 -11245525.46946  21666356.9774                   21666354.8054
   2590130.66047   2028809.48444  24372377.9614                   24372376.6054
 -15989163.44946 -12448364.32844  23060012.8364                   23060010.4414
 -25855647.16048 -20135329.98447  20364920.7504                   20364918.0004
 -15359966.58648 -11957150.90246  21732859.0004                   21732858.5554
  -4415493.57847  -3431123.48045  23182559.6484                   23182558.2664
 -26613652.58648 -20725762.61346  21491563.5164                   21491558.5554
 11  8 19  2  4  0.0000000  0  8G12G30G26G10G05G25G29G02
 -22862758.79348 -17803583.52746  21221391.0784                   21221387.9964
 -14471596.74648 -11264409.73446  21661745.4064                   21661742.9534
   2471025.93446   1936000.69943  24349712.6254                   24349710.9384
 -15915649.75046 -12391080.94144  23074002.4694                   23074000.8484
 -25871259.03548 -20147495.07047  20361949.6884                   20361946.5864
 -15402499.02048 -11990293.04746  21724765.1174                   21724765.5234
  -4522765.14147  -3514711.66845  23162146.6484                   23162144.6684
 -26602243.05548 -20716872.07846  21493734.5004                   21493729.8914
 11  8 19  2  4 30.0000000  0  8G12G30G26G10G05G25G29G02
 -22839504.08648 -17785462.97346  21225816.4454                   21225813.4414
 -14495215.15248 -11282813.68046  21657250.6884                   21657248.9344
   2351890.87946   1843168.22743  24327040.9384                   24327039.6214
 -15841873.16846 -12333592.72744  23088041.6254                   23088039.7854
 -25886299.47348 -20159214.86747  20359087.5084                   20359084.6134
 -15444441.55148 -12022975.53546  21716784.3204                   21716783.9344
  -4630000.84047  -3598271.89545  23141740.3674                   23141738.3364
 -26590724.48448 -20707896.56246  21495926.7584                   21495922.0664
 11  8 19  2  5  0.0000000  0  8G12G30G26G10G05G25G29G02
 -22815738.07848 -17766944.01646  21230339.2974                   21230335.9494
 -14518219.12947 -11300738.84446  21652873.3444                   21652871.2464
   2232727.42246   1750313.68043  24304364.6564                   24304363.1804
 -15767838.17246 -12275903.15244  23102130.0164                   23102127.6294
 -25900770.96548 -20170491.33647  20356333.7664                   20356330.6294
 -15485795.10548 -12055199.07046  21708914.4454                   21708914.2274
  -4737200.48447  -3681804.04745  23121340.9304                   23121339.1564
 -26579098.37148 -20698837.25446  21498139.1174                   21498134.1294
 11  8 19  2  5 30.0000000  0  8G12G30G26G10G05G25G29G02
 -22791464.40248 -17748029.45746  21234957.7194                   21234955.0434
 -14540611.38347 -11318187.34446  21648611.9694                   21648610.3554
   2113536.38746   1657437.67243  24281683.5784                   24281682.1214
 -15693549.87547 -12218016.16444  23116266.3914                   23116264.3054
 -25914676.34448 -20181326.67247  20353687.9774                   20353684.8674
 -15526561.55548 -12086965.11346  21701157.0944                   21701156.6724
  -4844364.54747  -3765308.45745  23100947.8754                   23100946.0784
 -26567367.48448 -20689696.28546  21500371.1724                   21500366.7034
 11  8 19  2  6  0.0000000  0  8G12G30G26G10G05G25G29G02
 -22766685.66848 -17728721.34846  21239673.4224                   21239670.3204
 -14562392.46548 -11335159.60946  21644467.4454                   21644465.4384
   1994320.97746   1564542.59443  24258997.9694                   24258995.2504
 -15619011.21547 -12159934.08244  23130451.1024                   23130448.2344
 -25928016.69948 -20191721.72747  20351149.4144                   20351145.9184
 -15566740.50048 -12118273.38346  21693511.2584                   21693511.3284
  -4951491.40647  -3848783.89545  23080562.5554                   23080561.0984
 -26555532.40648 -20680474.13746  21502623.3054                   21502618.5744
 11  8 19  2  6 30.0000000  0  8G12G30G26G10G05G25G29G02
 -22741404.50848 -17709021.76246  21244484.4694                   21244481.1094
 -14583564.17648 -11351657.03546  21640438.6254                   21640436.4774
   1875083.51246   1471630.35943  24236307.9694                   24236305.8634
 -15544226.13747 -12101660.00044  23144681.5394                   23144679.1484
 -25940794.34448 -20201678.30947  20348717.7584                   20348714.6054
 -15606332.77048 -12149124.47346  21685977.1334                   21685976.5984
  -5058580.90647  -3932230.22745  23060183.2894                   23060182.7814
 -26543594.40648 -20671171.77346  21504895.0394                   21504890.3014
 11  8 19  2  7  0.0000000  0  8G12G30G26G10G05G25G29G02
 -22715623.42648 -17688932.60546  21249390.1024                   21249386.8244
 -14604127.33248 -11367680.25846  21636525.5234                   21636523.1454
   1755826.78147   1378703.08243  24213613.9844                   24213611.6294
 -15469197.48847 -12043196.16444  23158959.7344                   23158956.5664
 -25953010.42248 -20211197.30947  20346393.1174                   20346389.9184
 -15645338.32848 -12179518.39846  21678554.3754                   21678553.9804
  -5165631.37147  -4015646.14545  23039813.0704                   23039811.1524
 -26531554.17248 -20661789.76246  21507186.5634                   21507181.9064
 11  8 19  2  7 30.0000000  0  8G12G30G26G10G05G25G29G02
 -22689343.24648 -17668454.55946  21254391.0864                   21254388.1214
 -14624081.60248 -11383229.03546  21632728.4224                   21632726.3284
   1636555.05147   1285764.13343  24190917.2664                   24190916.1994
 -15393927.27747 -11984544.09844  23173282.6334                   23173281.0704
 -25964664.92248 -20220278.71147  20344175.7114                   20344172.5204
 -15683755.84048 -12209454.10546  21671243.7504                   21671243.6484
  -5272640.53947  -4099029.89145  23019449.1884                   23019448.0164
 -26519411.17648 -20652327.67246  21509497.0314                   21509491.8554
 11  8 19  2  8  0.0000000  0  8G12G30G26G10G05G25G29G02
 -22662569.44948 -17647591.85546  21259485.9224                   21259483.2704
 -14643431.01647 -11398306.49646  21629046.3914                   21629044.0594
   1517268.20747   1192813.40644  24168217.9384                   24168216.7154
 -15318421.58647 -11925708.50044  23187651.2034                   23187648.4924
 -25975762.45348 -20228926.11347  20342063.4454                   20342060.4304
 -15721588.47748 -12238934.06246  21664044.4614                   21664044.2584
  -5379610.02347  -4182382.69545  22999093.8834                   22999092.4614
 -26507169.03947 -20642788.32846  21511826.5704                   21511821.9064
 11  8 19  2  8 30.0000000  0  8G12G30G26G10G05G25G29G02
 -22635303.09048 -17626345.35246  21264674.5234                   21264671.4694
 -14662175.21147 -11412912.35246  21625479.3284                   21625477.2894
   1397970.48447   1099854.20744  24145516.3364                   24145514.3054
 -15242682.06247 -11866690.71544  23202064.2344                   23202061.8834
 -25986302.69548 -20237139.27347  20340057.4144                   20340054.7274
 -15758834.89848 -12267957.23046  21656956.7734                   21656956.5274
  -5486537.02747  -4265702.42245  22978746.5704                   22978744.7384
 -26494826.87547 -20633171.03946  21514175.0314                   21514170.2234
 11  8 19  2  9  0.0000000  0  8G12G30G26G10G05G25G29G02
 -22607544.89148 -17604715.59446  21269957.3444                   21269953.8954
 -14680313.81647 -11427046.33246  21622027.9844                   21622025.0904
   1278666.51246   1006890.13744  24122813.3054                   24122812.1054
 -15166710.40247 -11807492.05944  23216521.3364                   23216518.9804
 -25996285.89848 -20244918.37947  20338158.1804                   20338155.0124
 -15795493.78548 -12296522.58246  21649980.8444                   21649980.6134
  -5593418.93747  -4348987.01645  22958407.3204                   22958405.7074
 -26482384.03548 -20623475.30946  21516543.2424                   21516538.2114
 11  8 19  2  9 30.0000000  0  8G12G30G26G10G05G25G29G02
 -22579296.98448 -17582704.25046  21275332.2274                   21275329.2934
 -14697847.25848 -11440708.74246  21618691.1254                   21618689.1334
   1159359.56346    913923.75043  24100109.5944                   24100108.2854
 -15090509.31247 -11748114.60944  23231021.8524                   23231019.3794
 -26005713.16848 -20252264.28147  20336364.1174                   20336361.3404
 -15831564.62948 -12324629.72346  21643116.8444                   21643116.2734
  -5700253.65247  -4432234.81245  22938077.3754                   22938075.6764
 -26469840.55548 -20613701.13746  21518929.9534                   21518924.9924
 11  8 19  2 10  0.0000000  0  8G12G30G26G10G05G25G29G02
 -22550564.61348 -17560315.39846  21280799.8674                   21280796.7624
 -14714779.27048 -11453902.52346  21615469.0634                   21615466.6884
   1040050.31346    820955.60543  24077405.3134                   24077404.0744
 -15014084.60947 -11688562.90244  23245564.9924                   23245561.6724
 -26014588.36748 -20259180.00847  20334675.0314                   20334672.3444
 -15867050.22748 -12352280.82046  21636364.0634                   21636363.8714
  -5807042.64547  -4515447.03545  22917756.4064                   22917754.6214
 -26457199.77348 -20603851.18446  21521335.1484                   21521330.4414
 11  8 19  2 10 30.0000000  0  8G12G30G26G10G05G25G29G02
 -22521345.95348 -17537547.62146  21286360.2974                   21286357.0634
 -14731107.32047 -11466625.66846  21612361.9774                   21612359.9064
    920745.21146    727990.68843  24054702.5084                   24054701.4924
 -14937435.43747 -11628836.31644  23260150.7814                   23260149.0084
 -26022909.00848 -20265663.61347  20333091.7894                   20333088.9964
 -15901947.00848 -12379473.09046  21629723.4924                   21629723.3324
  -5913780.73447  -4598619.58245  22897444.5554                   22897442.7114
 -26444458.57448 -20593922.98446  21523760.4534                   21523754.9494
 11  8 19  2 11  0.0000000  0  8G12G30G26G10G05G25G29G02
 -22491644.27748 -17514403.47346  21292012.2504                   21292008.7154
 -14746832.98847 -11478879.42646  21609369.6804                   21609367.2274
    801447.00846    635031.14543  24032000.2814                   24031998.8204
 -14860565.71547 -11568937.86744  23274778.1804                   23274775.9734
 -26030677.21548 -20271716.74647  20331613.2974                   20331610.0634
 -15936255.86348 -12406207.24246  21623194.5314                   21623194.3524
  -6020467.01247  -4681751.75445  22877143.1334                   22877141.2304
 -26431618.06248 -20583917.40246  21526203.4924                   21526198.7774
 11  8 19  2 11 30.0000000  0  8G12G30G26G10G05G25G29G02
 -22461462.33648 -17490885.07846  21297755.3834                   21297752.6684
 -14761958.03548 -11490665.16446  21606491.4774                   21606488.9414
    682158.02346    542078.77343  24009300.2814                   24009299.2114
 -14783478.92246 -11508870.29344  23289447.1644                   23289445.3834
 -26037895.14148 -20277341.09047  20330240.0474                   20330237.0004
 -15969977.36348 -12432483.72346  21616777.3524                   21616777.3524
  -6127100.43047  -4764842.71545  22856851.4774                   22856849.2704
 -26418679.67248 -20573835.54346  21528665.7734                   21528660.7894
 11  8 19  2 12  0.0000000  0  8G12G30G26G10G05G25G29G02
 -22430803.32048 -17466994.94546  21303589.8914                   21303586.9654
 -14776483.83248 -11501983.95746  21603727.0784                   21603725.1604
    562880.84846    449135.56643  23986603.1094                   23986601.1334
 -14706178.57046 -11448636.27344  23304156.6954                   23304155.0084
 -26044564.70748 -20282538.15247  20328970.6174                   20328967.7304
 -16003112.10248 -12458302.98846  21610472.1334                   21610471.9024
  -6233680.24247  -4847891.90645  22836569.8754                   22836568.6724
 -26405643.73848 -20563677.66846  21531146.2424                   21531141.0314
 11  8 19  2 12 30.0000000  0  8G12G30G26G10G05G25G29G02
 -22399667.68448 -17442733.43046  21309514.9064                   21309511.5474
 -14790409.87148 -11512835.40246  21601077.2194                   21601075.1644
    443620.78547    356205.68844  23963909.3364                   23963906.6094
 -14628665.63746 -11388236.57844  23318907.2974                   23318905.2584
 -26050685.36748 -20287307.48847  20327806.0004                   20327802.9384
 -16035658.51248 -12483663.80546  21604278.9844                   21604278.6524
  -6340203.20747  -4930896.79345  22816298.8054                   22816297.3134
 -26392508.99248 -20553442.79746  21533645.7274                   21533640.8284
 11  8 19  2 13  0.0000000  0  8G12G30G26G10G05G25G29G02
 -22368058.62148 -17418102.99646  21315529.7424                   21315526.7194
 -14803738.03948 -11523220.98446  21598540.7584                   21598538.3984
    324379.92246    263290.78544  23941218.4224                   23941216.2704
 -14550943.79747 -11327674.12144  23333697.3834                   23333695.1604
 -26056259.40248 -20291650.88347  20326745.2504                   20326742.1054
 -16067617.48848 -12508566.89146  21598197.1804                   21598196.7814
  -6446668.38347  -5013856.63745  22796039.7664                   22796037.6844
 -26379276.89148 -20543132.05946  21536163.2974                   21536158.5554
 11  8 19  2 13 30.0000000  0  8G12G30G26G10G05G25G29G02
 -22335979.41448 -17393106.21946  21321634.1954                   21321630.9414
 -14816470.38348 -11533142.27046  21596118.0164                   21596116.0004
    205160.53946    170392.61344  23918531.9064                   23918529.1174
 -14473017.17647 -11266952.06644  23348526.3204                   23348523.7034
 -26061289.30948 -20295570.27347  20325787.7664                   20325785.3444
 -16098990.31248 -12533013.22346  21592227.1564                   21592226.8404
  -6553075.28947  -5096771.07045  22775791.1724                   22775789.4024
 -26365948.82448 -20532746.54346  21538699.5864                   21538695.0904
 11  8 19  2 14  0.0000000  0  8G12G30G26G10G05G25G29G02
 -22303432.16048 -17367744.73046  21327827.6884                   21327824.6484
 -14828607.39148 -11542599.66846  21593808.3204                   21593805.8954
     85966.52346     77514.23444  23895849.3204                   23895848.2544
 -14394888.16847 -11206072.28943  23363393.8444                   23363392.0204
 -26065775.82448 -20299066.25847  20324934.2424                   20324931.5944
 -16129776.39148 -12557002.33646  21586368.5634                   21586368.3484
  -6659421.20347  -5179637.95745  22755554.3594                   22755552.3954
 -26352524.75448 -20522286.21546  21541254.7344                   21541249.5474
 11  8 19  2 14 30.0000000  0  8G12G30G26G10G05G25G29G02
 -22270418.32448 -17342019.67646  21334110.1254                   21334106.9184
 -14840149.62948 -11551593.61746  21591612.0944                   21591609.6054
    -33198.16846    -15341.30144  23873173.3914                   23873171.6334
 -14316558.90247 -11145036.49644  23378299.6024                   23378297.4384
 -26069719.81648 -20302139.48447  20324183.6954                   20324180.6524
 -16159975.37548 -12580533.98846  21580622.2664                   21580621.9414
  -6765704.09047  -5262455.73045  22735328.8984                   22735327.1804
 -26339004.27748 -20511750.77046  21543827.2274                   21543822.1994
 11  8 19  2 15  0.0000000  0  8G12G30G26G10G05G25G29G02
 -22236942.23048 -17315934.42246  21340480.2194                   21340477.1294
 -14851100.07048 -11560126.40246  21589528.1804                   21589525.6724
   -152332.34446   -108173.09444  23850502.5234                   23850500.7424
 -14238034.08246 -11083848.34043  23393241.6174                   23393240.2664
 -26073124.82048 -20304792.73847  20323535.8754                   20323532.7304
 -16189589.38348 -12603609.82046  21574986.6724                   21574986.5864
  -6871924.64547  -5345224.91045  22715115.5634                   22715114.2194
 -26325389.41848 -20501141.78546  21546418.2504                   21546413.2734
 11  8 19  2 15 30.0000000  0  8G12G30G26G10G05G25G29G02
 -22203003.65648 -17289488.78946  21346938.7344                   21346935.6214
 -14861457.30948 -11568196.96146  21587557.0474                   21587555.0864
   -271429.74646   -200976.19544  23827838.8204                   23827836.5984
 -14159313.84046 -11022507.90244  23408222.4454                   23408219.7304
 -26075989.39548 -20307024.86347  20322990.7114                   20322987.6414
 -16218615.96548 -12626227.91446  21569462.9534                   21569462.5084
  -6978078.19947  -5427941.87145  22694915.5554                   22694913.4454
 -26311678.00048 -20490457.55546  21549027.1954                   21549022.3134
 11  8 19  2 16  0.0000000  0  8G12G30G26G10G05G25G29G02
 -22168605.30948 -17262684.89846  21353484.4224                   21353481.5274
 -14871222.82448 -11575806.44146  21585698.9064                   21585696.6954
   -390487.47346   -293748.38343  23805182.5314                   23805181.1724
 -14080401.24247 -10961017.56244  23423239.1564                   23423237.1684
 -26078315.37948 -20308837.31247  20322547.7734                   20322545.0664
 -16247055.61348 -12648388.65646  21564051.0944                   21564050.5634
  -7084163.52047  -5510605.64545  22674728.0164                   22674725.9774
 -26297870.34048 -20479698.32046  21551654.9144                   21551649.9304
 11  8 19  2 16 30.0000000  0  8G12G30G26G10G05G25G29G02
 -22133750.33648 -17235525.18746  21360116.8364                   21360114.2734
 -14880398.71548 -11582956.46946  21583952.4064                   21583950.5594
   -509503.10546   -386487.76643  23782534.6804                   23782533.1564
 -14001299.87147 -10899380.14144  23438291.6884                   23438289.3134
 -26080105.30948 -20310232.04347  20322207.3834                   20322204.3794
 -16274909.51248 -12670092.97746  21558750.6174                   21558750.4304
  -7190179.74647  -5593215.60945  22654553.6954                   22654551.9924
 -26283967.97748 -20468865.27346  21554300.3674                   21554295.1724
 11  8 19  2 17  0.0000000  0  8G12G30G26G10G05G25G29G02
 -22098441.10248 -17208011.52046  21366836.4694                   21366833.1054
 -14888985.88748 -11589647.76246  21582318.6334                   21582316.6724
   -628472.91846   -479191.44544  23759895.9224                   23759893.7274
 -13922012.55947 -10837597.83644  23453379.8204                   23453377.1024
 -26081360.23448 -20311209.89547  20321968.7894                   20321965.5084
 -16302177.62948 -12691340.84846  21553561.7894                   21553561.6564
  -7296124.68747  -5675769.99245  22634392.7974                   22634391.1294
 -26269970.72348 -20457958.30146  21556963.9454                   21556959.1644
 11  8 19  2 17 30.0000000  0  8G12G30G26G10G05G25G29G02
 -22062680.17648 -17180145.86746  21373641.4534                   21373638.7304
 -14896985.88348 -11595881.52346  21580796.3834                   21580794.0204
   -747393.89146   -571857.06243  23737265.6254                   23737263.8714
 -13842542.13347 -10775672.82044  23468502.4384                   23468499.9614
 -26082081.86748 -20311772.19547  20321831.5314                   20321828.1954
 -16328860.57848 -12712132.73846  21548484.2034                   21548484.0594
  -7401996.98447  -5758267.80145  22614245.8134                   22614244.1484
 -26255879.66048 -20446978.23046  21559645.2194                   21559640.1764
 11  8 19  2 18  0.0000000  0  8G12G30G26G10G05G25G29G02
 -22026469.10548 -17151929.45746  21380532.0944                   21380529.2194
 -14904398.95748 -11601657.93446  21579385.2974                   21579383.7304
   -866261.77346   -664481.34043  23714646.0864                   23714643.6684
 -13762890.46947 -10713606.57444  23483659.3134                   23483656.8674
 -26082270.88748 -20311919.46147  20321795.0784                   20321792.3054
 -16354957.62948 -12732468.09446  21543518.1334                   21543518.1604
  -7507793.71147  -5840706.69145  22594113.3594                   22594111.7704
 -26241693.40648 -20435923.98046  21562344.7194                   21562339.6454
 11  8 19  2 18 30.0000000  0  8G12G30G26G10G05G25G29G02
 -21989812.36747 -17123365.76246  21387507.6094                   21387504.5354
 -14911228.53948 -11606979.67646  21578085.7194                   21578083.5664
   -985075.05946   -757063.08243  23692036.9384                   23692032.8874
 -13683062.64847 -10651403.05943  23498849.9774                   23498847.5004
 -26081930.66448 -20311654.34047  20321859.9774                   20321857.1094
 -16380471.25848 -12752348.83646  21538662.7344                   21538662.5314
  -7613515.32447  -5923087.06645  22573995.6644                   22573993.0274
 -26227414.41048 -20424797.46546  21565062.2664                   21565057.1054
 11  8 19  2 19  0.0000000  0  8G12G30G26G10G05G25G29G02
 -21952710.21947 -17094455.00846  21394567.8444                   21394565.4024
 -14917474.14548 -11611846.38746  21576897.7274                   21576895.4734
  -1103828.67646   -849598.34843  23669438.2584                   23669435.4494
 -13603059.32447 -10589062.81643  23514073.8364                   23514071.2304
 -26081061.19148 -20310976.80547  20322025.3054                   20322022.5984
 -16405400.10947 -12771773.91446  21533919.1804                   21533919.0664
  -7719158.31647  -6005406.17645  22553892.0784                   22553890.3794
 -26213041.19948 -20413597.55546  21567797.1804                   21567791.7504
 11  8 19  2 19 30.0000000  0  9G12G30G26G10G05G15G25G29G02
 -21915167.63747 -17065201.04746  21401712.1024                   21401708.9024
 -14923139.00448 -11616260.56646  21575819.6564                   21575817.0004
  -1222520.95346   -942085.78144  23646852.1484                   23646850.0474
 -13522885.38346 -10526589.61344  23529330.8364                   23529328.7344
 -26079666.09048 -20309889.68747  20322291.0164                   20322287.7774
   6131261.69956   4788210.06354  24555260.8834                   24555259.5394
 -16429746.36747 -12790745.02346  21529286.2664                   21529285.6334
  -7824722.51247  -6087663.88745  22533803.3364                   22533800.9654
 -26198575.87548 -20402325.87146  21570549.7974                   21570544.7734
 11  8 19  2 20  0.0000000  0  9G12G30G26G10G05G15G25G29G02
 -21877193.49248 -17035610.80146  21408938.5554                   21408935.3364
 -14928230.70748 -11620228.13346  21574850.8984                   21574848.3364
  -1341154.82846  -1034527.71544  23624277.0234                   23624274.3834
 -13442549.63746 -10463990.38743  23544616.8054                   23544615.7114
 -26077753.02748 -20308398.98047  20322654.9924                   20322652.1644
   6014127.48446   4696936.81344  24532970.9384                   24532969.8444
 -16453516.76247 -12809267.42246  21524763.0784                   21524762.4264
  -7930212.76647  -6169864.00045  22513729.3674                   22513727.9804
 -26184025.18448 -20390987.65646  21573318.7974                   21573313.4924
 11  8 19  2 20 30.0000000  0  9G12G30G26G10G05G15G25G29G02
 -21838792.30548 -17005687.80146  21416246.0864                   21416242.5634
 -14932752.90648 -11623751.93046  21573990.1564                   21573987.7814
  -1459728.98046  -1126923.09844  23601713.1804                   23601711.1134
 -13362057.23847 -10401269.05944  23559935.2584                   23559933.4184
 -26075325.73448 -20306507.56247  20323116.8524                   20323113.7664
   5896861.07846   4605560.55543  24510655.3054                   24510654.1684
 -16476713.98447 -12827343.17246  21520348.7114                   21520348.4534
  -8035629.51247  -6252006.84045  22493669.3984                   22493667.2544
 -26169391.16048 -20379584.50446  21576103.2894                   21576098.6564
 11  8 19  2 21  0.0000000  0  9G12G30G26G10G05G15G25G29G02
 -21799966.19547 -16975433.68746  21423633.9844                   21423631.2344
 -14936706.81248 -11626832.90246  21573237.8204                   21573235.1564
  -1578240.09446  -1219269.36744  23579161.1954                   23579159.3874
 -13281410.57447 -10338427.50844  23575281.8594                   23575279.9774
 -26072385.96548 -20304216.82047  20323676.3054                   20323672.7814
   5779465.04346   4514083.29343  24488315.7424                   24488314.6374
 -16499338.27047 -12844972.50446  21516043.3754                   21516042.8134
  -8140970.57447  -6334090.71545  22473623.7034                   22473621.2544
 -26154674.00848 -20368116.57846  21578903.6564                   21578899.0864
 11  8 19  2 21 30.0000000  0  9G12G30G26G10G05G15G25G29G02
 -21760715.58247 -16944848.78946  21431103.0784                   21431099.9884
 -14940091.52048 -11629470.35246  21572593.4454                   21572591.0824
  -1696681.98847  -1311561.71544  23556621.8594                   23556620.1254
 -13200609.82447 -10275465.88744  23590658.3674                   23590656.3754
 -26068932.75048 -20301525.98847  20324333.6094                   20324330.3014
   5661944.26645   4422508.81643  24465951.8914                   24465950.6334
 -16521387.74648 -12862153.91446  21511847.3054                   21511847.1334
  -8246231.73047  -6416112.34845  22453593.3054                   22453590.5514
 -26139871.35548 -20356582.04346  21581720.8914                   21581716.3714
 11  8 19  2 22  0.0000000  0  9G12G30G26G10G05G15G25G29G02
 -21721039.62547 -16913932.46146  21438653.0554                   21438650.0124
 -14942905.39548 -11631663.00046  21572058.1724                   21572055.7154
  -1815048.26647  -1403795.12944  23534097.7114                   23534096.0704
 -13119654.87547 -10212384.10944  23606063.1254                   23606060.6524
 -26064964.77348 -20298434.05547  20325088.2344                   20325085.5004
   5544304.11745   4330841.30943  24443564.7504                   24443564.1764
 -16542859.85548 -12878885.44546  21507761.6094                   21507761.4184
  -8351407.98447  -6498067.80945  22433578.7344                   22433576.5474
 -26124980.50848 -20344978.80146  21584554.3914                   21584549.7114
 11  8 19  2 22 30.0000000  0  9G12G30G26G10G05G15G25G29G02
 -21680941.20347 -16882686.93746  21446283.7504                   21446280.9304
 -14945150.02748 -11633412.07046  21571631.0634                   21571628.8634
  -1933335.76247  -1495967.14544  23511588.3834                   23511586.6764
 -13038548.80946 -10149184.58643  23621497.0634                   23621494.2854
 -26060483.73048 -20294942.31647  20325941.0474                   20325937.8874
   5426547.00846   4239082.67643  24421156.9224                   24421155.7304
 -16563755.32448 -12895167.63746  21503785.1254                   21503785.1174
  -8456497.62147  -6579955.78145  22413580.5704                   22413578.4964
 -26110001.83248 -20333307.09046  21587404.7344                   21587400.0474
 11  8 19  2 23  0.0000000  0  9G12G30G26G10G05G15G25G29G02
 -21640421.75847 -16851113.34446  21453994.1024                   21453991.3364
 -14946825.83248 -11634717.91446  21571312.3674                   21571310.2544
  -2051539.64847  -1588074.01244  23489094.8054                   23489093.4884
 -12957292.81246 -10085868.26243  23636958.7194                   23636956.8284
 -26055490.15248 -20291051.19947  20326891.3284                   20326888.0434
   5308676.61746   4147235.71943  24398726.7734                   24398724.4454
 -16584073.54748 -12911000.02046  21499919.0474                   21499918.3794
  -8561497.79347  -6661774.06245  22393599.5864                   22393597.5664
 -26094934.39548 -20321566.21946  21590272.1724                   21590267.0394
 11  8 19  2 23 30.0000000  0  9G12G30G26G10G05G15G25G29G02
 -21599483.02347 -16819213.03146  21461784.8204                   21461781.4774
 -14947933.30948 -11635580.90646  21571101.2584                   21571099.1524
  -2169655.34047  -1680112.17644  23466618.4144                   23466615.8364
 -12875888.69146 -10022436.48843  23652449.9534                   23652446.0704
 -26049984.99648 -20286761.45747  20327939.0314                   20327935.9024
   5190696.63346   4055303.41043  24376275.4844                   24376274.8914
 -16603814.12948 -12926382.30546  21496162.5634                   21496162.0394
  -8666405.57847  -6743520.33245  22373636.3594                   22373634.5434
 -26079777.00448 -20309755.25446  21593156.3754                   21593151.4694
 11  8 19  2 24  0.0000000  0  9G12G30G26G10G05G15G25G29G02
 -21558126.69147 -16786987.32446  21469654.7344                   21469651.6604
 -14948473.34048 -11636001.73046  21570999.0704                   21570996.5354
  -2287678.87947  -1772078.55144  23444158.7734                   23444155.9844
 -12794338.60947  -9958890.94143  23667968.3444                   23667965.6374
 -26043969.36348 -20282073.94947  20329083.7734                   20329080.4104
   5072610.29346   3963288.18843  24353805.1024                   24353803.2074
 -16622977.01648 -12941314.43446  21492515.6174                   21492515.2234
  -8771218.48047  -6825192.70345  22353691.4064                   22353688.6914
 -26064529.38748 -20297873.98446  21596057.7814                   21596053.2504
 11  8 19  2 24 30.0000000  0  9G12G30G26G10G05G15G25G29G02
 -21516354.49648 -16754437.55946  21477603.6024                   21477600.5634
 -14948446.78148 -11635981.03546  21571003.6174                   21571001.3014
  -2405605.95346  -1863969.71144  23421717.9144                   23421715.5204
 -12712644.50447  -9895233.19943  23683514.5164                   23683511.6884
 -26037443.90248 -20276989.15647  20330325.6334                   20330322.3444
   4954420.67246   3871192.48844  24331314.5554                   24331312.5434
 -16641562.08248 -12955796.31646  21488979.1564                   21488978.4734
  -8875933.67647  -6906788.91045  22333764.8134                   22333762.3634
 -26049190.89148 -20285921.89146  21598976.4774                   21598971.4694
 11  8 19  2 25  0.0000000  0  9G12G30G26G10G05G15G25G29G02
 -21474170.23448 -16721566.71546  21485631.6174                   21485628.0664
 -14947856.14848 -11635520.82846  21571116.1564                   21571114.0784
  -2523434.19946  -1955783.91043  23399295.8284                   23399293.9884
 -12630809.59447  -9831465.71144  23699087.6724                   23699085.2894
 -26030411.22348 -20271509.14147  20331663.7814                   20331660.5904
   4836129.35246   3779017.57844  24308803.9224                   24308802.9344
 -16659570.95348 -12969829.20346  21485552.1334                   21485552.1994
  -8980550.38347  -6988308.39145  22313856.4144                   22313854.3634
 -26033762.56648 -20273899.81246  21601912.3914                   21601907.7274
 11  8 19  2 25 30.0000000  0  9G12G30G26G10G05G15G25G29G02
 -21431575.80148 -16688376.24646  21493736.3674                   21493733.5164
 -14946702.19147 -11634621.66046  21571335.2034                   21571333.7544
  -2641158.90246  -2047517.39544  23376894.0164                   23376891.6764
 -12548835.97347  -9767590.16844  23714686.5944                   23714684.3364
 -26022872.66448 -20265634.93447  20333098.2894                   20333094.9534
   4717739.86346   3686766.16044  24286275.3284                   24286273.3524
 -16677003.47348 -12983412.98846  21482234.4924                   21482234.1094
  -9085065.61347  -7069748.80945  22293968.0084                   22293965.1954
 -26018243.75048 -20261807.21546  21604865.4844                   21604860.2704
 11  8 19  2 26  0.0000000  0  9G12G30G26G10G05G15G25G29G02
 -21388573.61348 -16654868.05146  21501919.5944                   21501916.3164
 -14944986.44148 -11633284.71946  21571662.3444                   21571659.9534
  -2758776.54346  -2139167.44943  23354511.7584                   23354509.6994
 -12466726.01647  -9703608.37544  23730311.4454                   23730309.4344
 -26014829.60948 -20259367.60947  20334628.7974                   20334625.5234
   4599255.17246   3594440.57844  24263728.0554                   24263726.9734
 -16693860.13748 -12996548.05146  21479027.1804                   21479026.6524
  -9189477.10947  -7151108.39145  22274099.2584                   22274096.9574
 -26002634.28947 -20249643.99246  21607835.9064                   21607831.1054
 11  8 19  2 26 30.0000000  0  9G12G30G26G10G05G15G25G29G02
 -21345165.84847 -16621043.82846  21510179.8674                   21510176.8094
 -14942710.14548 -11631510.99645  21572095.0164                   21572093.1054
  -2876283.10947  -2230730.97344  23332151.6884                   23332148.1764
 -12384481.93747  -9639522.10244  23745961.7274                   23745959.9304
 -26006283.41848 -20252708.23447  20336255.2424                   20336252.0944
   4480678.05146   3502042.94944  24241163.6804                   24241161.9614
 -16710141.37548 -13009234.73046  21475929.2424                   21475928.4024
  -9293783.02747  -7232385.68745  22254250.4614                   22254248.1294
 -25986934.05547 -20237410.02046  21610823.3834                   21610818.6564
 11  8 19  2 27  0.0000000  0  9G12G30G26G10G05G15G25G29G02
 -21301355.70347 -16586906.05946  21518516.7584                   21518513.5514
 -14939875.55948 -11629302.22346  21572634.6724                   21572632.2114
  -2993675.63746  -2322205.63743  23309812.1334                   23309809.8524
 -12302107.15647  -9575333.95743  23761636.9924                   23761635.3554
 -25997236.46548 -20245658.65247  20337976.7894                   20337973.5704
   4362010.36746   3409574.80943  24218581.1094                   24218580.2974
 -16725848.47347 -13021474.01646  21472939.9844                   21472939.4774
  -9397981.75847  -7313579.45745  22234421.7344                   22234419.8914
 -25971143.55147 -20225105.71946  21613828.3054                   21613823.4804
 11  8 19  2 27 30.0000000  0  9G12G30G26G10G05G15G25G29G02
 -21257145.86747 -16552456.84446  21526929.6724                   21526926.5664
 -14936484.50048 -11626659.84446  21573279.8284                   21573277.7114
  -3110950.65646  -2413588.71944  23287494.5634                   23287492.8794
 -12219604.43446  -9511046.13343  23777336.3204                   23777334.5394
 -25987691.04748 -20238220.64847  20339793.1254                   20339789.8954
   4243254.68446   3317038.06644  24195983.1334                   24195981.8984
 -16740982.34447 -13033266.64146  21470059.7974                   21470059.6914
  -9502071.29347  -7394688.13745  22214613.7344                   22214611.8284
 -25955263.29747 -20212731.48846  21616850.9224                   21616845.2814
 11  8 19  2 28  0.0000000  0  9G12G30G26G10G05G15G25G29G02
 -21212538.31247 -16517697.71146  21535418.0864                   21535415.1414
 -14932538.27347 -11623584.85946  21574030.8754                   21574028.8164
  -3228104.36747  -2504877.26644  23265201.1724                   23265199.0864
 -12136975.37946  -9446659.88342  23793059.9924                   23793057.9304
 -25977648.01248 -20230394.89847  20341704.3284                   20341701.1134
   4124414.23046   3224435.26644  24173368.1804                   24173367.1994
 -16755543.32848 -13044612.85546  21467289.1334                   21467288.8364
  -9606049.34447  -7475709.93745  22194827.8284                   22194825.6604
 -25939292.46147 -20200286.66445  21619889.6724                   21619884.4734
 11  8 19  2 28 30.0000000  0  9G12G30G26G10G05G15G25G29G02
 -21167536.88347 -16482631.66846  21543981.5554                   21543978.2894
 -14928039.32047 -11620079.18046  21574887.1334                   21574884.9104
  -3345133.65247  -2596068.86744  23242931.4844                   23242929.4654
 -12054223.84846  -9382178.14543  23808807.5164                   23808805.1764
 -25967110.24248 -20222183.63747  20343709.6644                   20343706.3984
   4005490.67646   3131767.71143  24150737.6254                   24150736.2894
 -16769532.98448 -13055513.89146  21464627.0084                   21464626.7584
  -9709914.71147  -7556643.93445  22175063.4064                   22175060.7774
 -25923231.98447 -20187772.00046  21622945.5634                   21622940.4654
 11  8 19  2 29  0.0000000  0  9G12G30G26G10G05G15G25G29G02
 -21122142.78947 -16447259.66046  21552619.9384                   21552616.6414
 -14922987.78547 -11616142.91046  21575847.9144                   21575846.4304
  -3462033.39147  -2687159.55544  23220686.4224                   23220683.3674
 -11971350.61346  -9317601.59443  23824577.7034                   23824575.6414
 -25956077.96548 -20213587.03147  20345808.8204                   20345805.7664
   3886488.62146   3039038.98043  24128093.1334                   24128091.1134
 -16782950.50848 -13065969.09046  21462073.7114                   21462073.1094
  -9813663.70747  -7637487.24245  22155320.4064                   22155317.4804
 -25907080.18747 -20175186.16446  21626019.4924                   21626014.4924
 11  8 19  2 29 30.0000000  0  9G12G30G26G10G05G15G25G29G02
 -19500942.67647 -15183986.85946  21861123.9304                   21861120.8014
 -13341968.49248 -10384179.82046  21876706.5944                   21876704.4614
  -2003379.06647  -1550545.75844  23498259.6334                   23498257.0004
 -10312943.93047  -8025336.59043  24140162.6334                   24140160.0474
 -24369136.24248 -18977009.04747  20647793.6334                   20647790.3634
   5342831.85246   4173852.04744  24405225.2424                   24405223.4924
 -15220379.26247 -11848381.10246  21759421.0704                   21759420.9964
  -8341873.78547  -6490637.87945  22435392.2034                   22435390.1294
 -24315420.36747 -18934931.74246  21928902.0164                   21928897.0514
 11  8 19  2 30  0.0000000  0  9G12G30G26G10G05G15G25G29G02
 -19454775.70348 -15148012.60546  21869909.1724                   21869906.2774
 -13335821.99647 -10379390.33246  21877876.3134                   21877874.2814
  -2120013.68747  -1641429.82044  23476063.8754                   23476061.9344
 -10229840.02047  -7960580.21143  24155976.5234                   24155974.1414
 -24357125.39148 -18967649.92247  20650079.3914                   20650076.0744
   5223675.89146   4081003.36343  24382550.3984                   24382549.0274
 -15232660.11348 -11857950.58246  21757084.2894                   21757083.8524
  -8445388.78547  -6571298.82845  22415693.9304                   22415691.6454
 -24299091.06247 -18922207.59046  21932009.2344                   21932004.3524
 11  8 19  2 30 30.0000000  0  9G12G30G26G10G05G15G25G29G02
 -19408224.60247 -15111739.03946  21878767.2344                   21878764.4924
 -13329129.02747 -10374175.02745  21879150.0784                   21879147.2854
  -2236508.76247  -1732205.17644  23453895.4844                   23453893.5004
 -10146622.50847  -7895735.39543  24171812.3204                   24171810.6134
 -24344626.13348 -18957910.21547  20652458.0864                   20652454.8364
   5104448.53146   3988099.07043  24359861.8984                   24359860.4614
 -15244372.20748 -11867076.87546  21754855.4454                   21754855.3204
  -8548782.06647  -6651864.91045  22396019.2584                   22396016.3834
 -24282671.48047 -18909413.10546  21935134.1024                   21935128.9104
 11  8 19  2 31  0.0000000  0  9G12G30G26G10G05G15G25G29G02
 -19361295.33247 -15075170.78146  21887698.0234                   21887695.1174
 -13321894.71148 -10368537.88346  21880526.4534                   21880524.4384
  -2352863.89147  -1822871.44544  23431754.6414                   23431751.6644
 -10063297.71146  -7830806.94944  24187668.6564                   24187666.3284
 -24331643.83648 -18947794.12147  20654928.4384                   20654925.1564
   4985149.22746   3895138.66843  24337159.1644                   24337158.1954
 -15255519.85948 -11875763.33646  21752733.7894                   21752733.7934
  -8652054.94947  -6732337.19145  22376366.2664                   22376364.0004
 -24266164.87947 -18896550.80546  21938275.3444                   21938270.1214
 11  8 19  2 31 30.0000000  0  9G12G30G26G10G05G15G25G29G02
 -19313987.69947 -15038307.69946  21896700.0634                   21896697.2544
 -13314118.12147 -10362478.20345  21882006.3834                   21882003.8134
  -2469072.46947  -1913423.57044  23409640.6954                   23409638.3954
  -9979865.16046  -7765794.58243  24203544.7114                   24203543.1684
 -24318177.35248 -18937300.73047  20657490.9614                   20657487.6884
   4865783.62546   3802126.62943  24314445.7814                   24314443.6094
 -15266101.14848 -11884008.49646  21750720.4064                   21750720.3674
  -8755202.40247  -6812711.72345  22356738.1414                   22356735.8324
 -24249568.11747 -18883618.25446  21941433.5704                   21941428.1764
 11  8 19  2 32  0.0000000  0  9G12G30G26G10G05G15G25G29G02
 -19266304.03147 -15001151.60546  21905773.8984                   21905770.8914
 -13305800.59048 -10355997.00045  21883588.8754                   21883586.6054
  -2585130.35947  -2003858.24644  23387555.8524                   23387552.9414
  -9896326.59846  -7700699.66843  24219440.9454                   24219440.0514
 -24304228.46548 -18926431.44147  20660145.3674                   20660141.9734
   4746354.75447   3709065.23044  24291719.4304                   24291716.8914
 -15276116.50448 -11891812.65246  21748814.6954                   21748814.5434
  -8858221.93447  -6892986.58245  22337134.4144                   22337131.4774
 -24232880.76647 -18870615.09046  21944608.8444                   21944603.7814
 11  8 19  2 32 30.0000000  0  9G12G30G26G10G05G15G25G29G02
 -19218250.24247 -14963707.10546  21914918.4304                   21914915.4184
 -13296947.02047 -10349098.10246  21885273.6334                   21885271.6484
  -2701037.07447  -2094175.12544  23365498.8204                   23365496.5434
  -9812687.31246  -7635526.25043  24235357.7344                   24235356.4064
 -24289801.91448 -18915189.96147  20662890.6414                   20662887.5354
   4626862.67647   3615954.62543  24268980.2114                   24268978.1884
 -15285569.89148 -11899178.91446  21747015.5234                   21747015.2734
  -8961114.07447  -6973162.17645  22317554.7584                   22317551.5514
 -24216106.02347 -18857543.85545  21947801.0474                   21947796.2234
 11  8 19  2 33  0.0000000  0  9G12G30G26G10G05G15G25G29G02
 -19169827.07847 -14925974.78946  21924133.4454                   21924130.7584
 -13287557.55948 -10341781.62546  21887060.2274                   21887058.1294
  -2816786.96947  -2184369.80544  23343472.2664                   23343470.4654
  -9728948.36346  -7570275.13743  24251292.8204                   24251290.1024
 -24274897.78148 -18903576.33647  20665727.1024                   20665723.7934
   4507311.55547   3522797.94943  24246230.4924                   24246228.7384
 -15294460.70748 -11906106.80146  21745323.8674                   21745323.2504
  -9063875.38747  -7053235.84046  22297999.2504                   22297997.5864
 -24199242.10947 -18844403.12145  21951009.9924                   21951005.0824
 11  8 19  2 33 30.0000000  0  9G12G30G26G10G05G15G25G29G02
 -19121039.20748 -14887958.27046  21933417.2584                   21933414.3404
 -13277635.79748 -10334050.38745  21888948.3984                   21888946.2774
  -2932378.10547  -2274440.77044  23321475.9384                   23321474.1954
  -9645114.13747  -7504949.77343  24267246.0944                   24267243.5864
 -24259519.56648 -18891593.30147  20668653.2114                   20668649.9534
   4387702.62547   3429596.24244  24223469.8134                   24223467.4534
 -15302791.54748 -11912598.35546  21743738.7734                   21743738.3714
  -9166505.24647  -7133207.07046  22278469.5474                   22278466.9844
 -24182290.53147 -18831194.10545  21954235.9694                   21954230.8834
 11  8 19  2 34  0.0000000  0  9G12G30G26G10G05G15G25G29G02
 -19071887.92247 -14849658.58646  21942770.6884                   21942767.6684
 -13267182.67648 -10325905.09446  21890937.3204                   21890935.2894
  -3047805.84847  -2364384.42244  23299510.7734                   23299508.7234
  -9561185.91846  -7439551.17243  24283217.2814                   24283214.7664
 -24243668.53948 -18879241.84047  20671669.5554                   20671666.0474
   4268039.78947   3336352.55144  24200699.1644                   24200695.6914
 -15310562.49248 -11918653.62146  21742259.9534                   21742259.5164
  -9269000.69147  -7213073.57846  22258965.5704                   22258962.7114
 -24165250.06248 -18817915.80945  21957478.5944                   21957473.1724
 11  8 19  2 34 30.0000000  0  9G12G30G26G10G05G15G25G29G02
 -19022375.16448 -14811077.22746  21952192.1484                   21952189.0234
 -13256199.07848 -10317346.45346  21893027.7344                   21893025.2194
  -3163065.57447  -2454197.17244  23277577.3204                   23277575.5354
  -9477164.91047  -7374080.18043  24299205.5554                   24299202.8954
 -24227345.34048 -18866522.44547  20674775.9224                   20674772.0864
   4148326.82047   3243069.78944  24177917.8054                   24177915.8794
 -15317773.57448 -11924272.62546  21740887.4454                   21740887.2274
  -9371358.38747  -7292832.73846  22239487.3914                   22239484.9064
 -24148119.51647 -18804567.30945  21960738.0554                   21960732.8444
 11  8 19  2 35  0.0000000  0  9G12G30G26G10G05G15G25G29G02
 -18972505.97348 -14772218.13346  21961682.0084                   21961678.7704
 -13244689.18048 -10308377.69946  21895218.0084                   21895215.9844
  -3278155.60247  -2543877.66844  23255676.6024                   23255674.7584
  -9393055.62547  -7308540.43042  24315211.4384                   24315207.4454
 -24210554.39148 -18853438.57847  20677970.7664                   20677967.5004
   4028564.44147   3149748.54344  24155127.8754                   24155125.9534
 -15324428.02348 -11929457.89846  21739621.0554                   21739620.6844
  -9473578.51247  -7372484.71146  22220035.2734                   22220032.8014
 -24130901.19147 -18791150.41845  21964014.5864                   21964009.4264
 11  8 19  2 35 30.0000000  0  9G12G30G26G10G05G15G25G29G02
 -18922282.05148 -14733082.60546  21971239.4224                   21971236.6914
 -13232653.98848 -10298999.63346  21897508.3444                   21897506.0514
  -3393071.22747  -2633422.25444  23233808.6724                   23233806.6524
  -9308859.51246  -7242933.05143  24331233.2814                   24331229.5594
 -24193296.51648 -18839990.87547  20681255.1644                   20681251.6484
   3908756.40647   3056391.74644  24132328.5704                   24132327.3794
 -15330526.03148 -11934209.57846  21738460.6414                   21738460.2234
  -9575657.65247  -7452026.84446  22200610.0634                   22200607.6644
 -24113593.81247 -18777664.12145  21967308.1094                   21967303.0394
 11  8 19  2 36  0.0000000  0  9G12G30G26G10G05G15G25G29G02
 -18871707.55148 -14693673.90646  21980863.3524                   21980860.3914
 -13220097.05948 -10289215.01245  21899897.9694                   21899895.7034
  -3507810.39847  -2722829.34844  23211973.9844                   23211973.4694
  -9224580.81646  -7177261.29342  24347270.4694                   24347267.2584
 -24175575.43748 -18826182.23847  20684627.2194                   20684623.7894
   3788903.95746   2963000.32444  24109521.2344                   24109519.9384
 -15336070.30148 -11938529.77346  21737405.8204                   21737405.3714
  -9677595.48447  -7531458.87546  22181212.0704                   22181209.8484
 -24096199.05547 -18764109.75445  21970617.9064                   21970613.4614
 11  8 19  2 36 30.0000000  0  9G12G30G26G10G05G15G25G29G02
 -18820784.69148 -14653993.75846  21990553.6334                   21990550.4304
 -13207019.90248 -10279025.02745  21902386.6334                   21902384.1844
  -3622368.74647  -2812095.53944  23190174.7734                   23190173.2234
  -9140221.07446  -7111526.44543  24363323.5944                   24363321.2734
 -24157392.18448 -18812013.45347  20688087.1024                   20688084.3404
   3669010.49646   2869576.96544  24086706.8204                   24086704.7734
 -15341061.37548 -11942418.91846  21736456.2584                   21736455.5784
  -9779389.20747  -7610778.62146  22161841.5634                   22161838.9774
 -24078716.28948 -18750486.83246  21973945.4844                   21973939.9264
 11  8 19  2 37  0.0000000  0  9G12G30G26G10G05G15G25G29G02
 -18769516.46148 -14614044.50046  22000309.5784                   22000306.9494
 -13193424.41448 -10268431.13745  21904973.2034                   21904970.7234
  -3736742.49647  -2901217.91044  23168410.6724                   23168408.4264
  -9055782.57846  -7045730.22743  24379390.9224                   24379389.8834
 -24138748.43448 -18797485.84847  20691635.1024                   20691631.6954
   3549079.22346   2776124.14544  24063883.9454                   24063882.9414
 -15345500.36348 -11945877.85946  21735611.3054                   21735611.0004
  -9881036.08247  -7689983.93746  22142498.9304                   22142496.3914
 -24061145.10547 -18736795.00046  21977289.1334                   21977283.5084
 11  8 19  2 37 30.0000000  0  9G12G30G26G10G05G15G25G29G02
 -18717904.08248 -14573827.07046  22010130.8284                   22010128.1884
 -13179311.23048 -10257433.85946  21907659.3054                   21907656.7344
  -3850926.32447  -2990192.27344  23146682.0704                   23146679.6804
  -8971266.46946  -6979873.59043  24395474.5944                   24395472.9344
 -24119645.59447 -18782600.50447  20695270.4224                   20695266.8054
   3429114.17646   2682644.98844  24041055.3204                   24041053.8954
 -15349387.00448 -11948906.39546  21734871.6484                   21734871.2384
  -9982533.05947  -7769072.47346  22123184.0634                   22123181.7584
 -24043483.93447 -18723033.04345  21980649.9304                   21980644.6724
 11  8 19  2 38  0.0000000  0  9G12G30G26G10G05G15G25G29G02
 -18665950.52048 -14533343.78546  22020017.6414                   22020014.1764
 -13164682.80148 -10246035.08646  21910442.9224                   21910440.8284
  -3964916.94147  -3079016.09844  23124989.8204                   23124987.7344
  -8886675.38346  -6913958.50443  24411572.4064                   24411570.8244
 -24100085.69147 -18767359.00447  20698992.6954                   20698989.0314
   3309118.12547   2589141.67244  24018220.9614                   24018218.7154
 -15352722.88748 -11951505.77046  21734237.1094                   21734236.2274
 -10083878.00447  -7848042.53546  22103898.9224                   22103896.3094
 -24025733.14547 -18709201.27345  21984027.8754                   21984022.5354
 11  8 19  2 38 30.0000000  0  9G12G30G26G10G05G15G25G29G02
 -18613659.24248 -14492597.33646  22029968.2584                   22029965.1094
 -13149541.70748 -10234236.83246  21913323.8054                   21913321.7074
  -4078711.01247  -3167686.75444  23103335.6254                   23103333.9844
  -8802011.99246  -6847987.03543  24427682.9924                   24427680.3244
 -24080071.08248 -18751763.18047  20702800.7034                   20702797.6334
   3189093.24247   2495615.91844  23995380.9614                   23995378.6804
 -15355509.74648 -11953677.33246  21733706.6724                   21733705.8984
 -10185069.22347  -7926892.82446  22084642.8834                   22084640.6254
 -24007892.81247 -18695299.70745  21987422.6414                   21987417.8914
 11  8 19  2 39  0.0000000  0  9G12G30G26G10G05G15G25G29G02
 -18561033.34447 -14451590.14846  22039982.8754                   22039979.7384
 -13133890.58248 -10222041.15245  21916302.2114                   21916300.2464
  -4192305.49247  -3256201.90244  23081719.7274                   23081717.0904
  -8717279.19946  -6781961.50843  24443806.6024                   24443805.4064
 -24059604.40648 -18735815.10947  20706695.3914                   20706692.2974
   3069041.80546   2402069.46544  23972535.8524                   23972533.3634
 -15357749.39548 -11955422.51646  21733280.2114                   21733279.7934
 -10286105.00047  -8005621.98046  22065416.5314                   22065413.6134
 -23989963.37547 -18681328.70745  21990834.4454                   21990829.2074
 11  8 19  2 39 30.0000000  0  9G12G30G26G10G05G15G25G29G02
 -18508074.39847 -14410323.44546  22050060.6024                   22050057.2734
 -13117730.14848 -10209448.61346  21919377.7114                   21919375.5594
  -4305695.10247  -3344557.41444  23060142.4614                   23060140.3134
  -8632478.07846  -6715882.75843  24459944.1414                   24459942.2894
 -24038686.36748 -18719515.31647  20710675.8444                   20710672.4654
   2948968.27747   2308505.77044  23949686.4144                   23949684.4694
 -15359441.64548 -11956741.13746  21732958.1334                   21732958.0394
 -10386981.46947  -8084226.99646  22046220.1484                   22046217.6094
 -23971943.27347 -18667287.07845  21994263.5004                   21994258.0394
 11  8 19  2 40  0.0000000  0  9G12G30G26G10G05G15G25G29G02
 -18454786.64847 -14368800.52746  22060200.9844                   22060197.8014
 -13101063.95748 -10196461.96946  21922548.9774                   21922546.7664
  -4418877.45747  -3432751.42644  23038603.9694                   23038602.2304
  -8547611.94546  -6649753.31643  24476093.8594                   24476091.6724
 -24017320.24248 -18702866.37947  20714742.2274                   20714738.4804
   2828874.10547   2214925.98444  23926833.6724                   23926831.2704
 -15360589.28148 -11957635.39846  21732740.0784                   21732739.2074
 -10487698.00447  -8162707.38746  22027054.4694                   22027052.0354
 -23953833.79347 -18653175.81245  21997709.8054                   21997704.9654
 11  8 19  2 40 30.0000000  0  9G12G30G26G10G05G15G25G29G02
 -18401174.07047 -14327024.49246  22070403.0784                   22070399.7774
 -13083895.90248 -10183084.26246  21925815.9144                   21925813.7624
  -4531850.34447  -3520782.19544  23017106.0704                   23017104.0234
  -8462684.80946  -6583576.30943  24492254.7504                   24492251.9184
 -23995510.07848 -18685871.43446  20718892.5394                   20718889.0084
   2708760.44947   2121331.02344  23903976.5314                   23903974.4694
 -15361195.32448 -11958107.63746  21732624.4694                   21732623.6484
 -10588254.01647  -8241062.68746  22007919.3204                   22007916.5824
 -23935636.45347 -18638996.05945  22001172.1724                   22001167.1564
 11  8 19  2 41  0.0000000  0  9G12G30G26G10G05G15G25G29G02
 -18347239.09447 -14284997.24646  22080666.6094                   22080663.7274
 -13066226.98447 -10169316.27345  21929178.1954                   21929176.0904
  -4644609.10947  -3608646.12544  22995648.8914                   22995647.5824
  -8377698.25046  -6517352.97743  24508427.1334                   24508424.4494
 -23973256.71148 -18668531.14146  20723127.0164                   20723123.4384
   2588631.59047   2027724.21944  23881116.8444                   23881114.2774
 -15361260.03148 -11958158.05946  21732612.3284                   21732612.0634
 -10688646.04347  -8319290.19946  21988815.1954                   21988812.7274
 -23917350.01647 -18624746.87945  22004652.3754                   22004647.5744
 11  8 19  2 41 30.0000000  0  9G12G30G26G10G05G15G25G29G02
 -18292984.18747 -14242720.70346  22090990.7034                   22090987.9774
 -13048059.16047 -10155159.52745  21932635.4924                   21932633.7304
  -4757149.39847  -3696339.81645  22974233.2974                   22974231.1684
  -8292654.09846  -6451084.82043  24524611.0474                   24524607.9024
 -23950561.87148 -18650846.84446  20727445.4534                   20727442.1804
   2468490.75047   1934108.08644  23858254.3914                   23858252.4344
 -15360784.42248 -11957787.44946  21732703.0234                   21732702.5164
 -10788871.46947  -8397387.87946  21969742.9454                   21969740.5634
 -23898973.70348 -18610427.66445  22008149.4614                   22008143.9534
 11  8 19  2 42  0.0000000  0 10G12G30G26G10G05G15G25G29G02G21
 -18238414.43047 -14200198.83246  22101375.0474                   22101372.4184
 -13029397.21547 -10140617.74245  21936186.6254                   21936184.7894
  -4869470.27047  -3783862.53944  22952859.1644                   22952857.0124
  -8207557.03546  -6384775.47743  24540804.2894                   24540801.2274
 -23927430.36348 -18632822.28946  20731847.4384                   20731844.1094
   2348338.17646   1840482.77744  23835390.7504                   23835387.7114
 -15359772.46548 -11956998.91046  21732895.4924                   21732895.1374
 -10888930.78947  -8475356.12546  21950702.4534                   21950699.8134
 -23880510.04747 -18596040.39845  22011662.7034                   22011657.6054
   7760570.38716                  25207444.258
 11  8 19  2 42 30.0000000  0 10G12G30G26G10G05G15G25G29G02G21
 -18183536.49647 -14157436.82046  22111817.8444                   22111815.2424
 -13010247.57047 -10125695.93745  21939831.1644                   21939828.5664
  -4981572.02347  -3871214.51244  22931526.8444                   22931524.5124
  -8122413.61746  -6318430.00843  24557006.8054                   24557003.3674
 -23903868.02748 -18614462.02046  20736331.3914                   20736327.6954
   2228172.73447   1746847.47744  23812523.0704                   23812521.3594
 -15358229.80148 -11955796.83246  21733188.6804                   21733188.8204
 -10988825.62547  -8553196.19146  21931692.5784                   21931690.6604
 -23861962.98448 -18581588.14145  22015192.5164                   22015187.1564
   7680420.89846   5992218.29353  25192191.4224                   25192190.3674
 11  8 19  2 43  0.0000000  0 10G12G30G26G10G05G15G25G29G02G21
 -18128358.01247 -14114440.62146  22122318.2894                   22122315.3674
 -12990616.47348 -10110398.96545  21943566.0704                   21943564.1334
  -5093454.85247  -3958395.90645  22910236.3834                   22910234.0634
  -8037229.80146  -6252053.01643  24573216.4614                   24573213.2464
 -23879881.22748 -18595771.00446  20740895.8674                   20740892.3014
   2107993.39547   1653201.31344  23789653.6954                   23789651.8054
 -15356161.84048 -11954185.42246  21733582.1804                   21733581.4304
 -11088557.93747  -8630909.62546  21912714.4614                   21912712.3094
 -23843336.19948 -18567073.76245  22018736.5864                   22018731.4064
   7600275.92646   5929767.76643  25176940.1254                   25176938.9774
 11  8 19  2 43 30.0000000  0 10G12G30G26G10G05G15G25G29G02G21
 -18072880.98847 -14071211.78946  22132875.2194                   22132872.5124
 -12970505.66847 -10094728.19945  21947393.6024                   21947391.1604
  -5205114.55147  -4045403.44144  22888988.4144                   22888985.4774
  -7952007.59846  -6185646.10243  24589433.4534                   24589431.1024
 -23855471.62548 -18576750.53946  20745540.5394                   20745537.0944
   1987803.62147   1559547.02344  23766782.1414                   23766780.3444
 -15353569.50848 -11952165.43446  21734075.8284                   21734075.6054
 -11188124.96547  -8708494.25846  21893767.5634                   21893765.0554
 -23824629.08247 -18552496.78145  22022296.3914                   22022291.4024
   7520135.48446   5867320.80943  25161690.3674                   25161688.7194
 11  8 19  2 44  0.0000000  0 10G12G30G26G10G05G15G25G29G02G21
 -18017104.16847 -14027749.35246  22143488.9844                   22143486.0904
 -12949913.50448 -10078682.34845  21951311.8364                   21951309.2854
  -5316543.22747  -4132230.93745  22867784.1884                   22867781.5204
  -7866745.07046  -6119207.76243  24605658.4614                   24605656.1764
 -23830637.23448 -18557399.05946  20750266.7034                   20750263.0394
   1867610.26646   1465889.96144  23743909.7974                   23743908.0044
 -15350450.39848 -11949734.95746  21734669.3054                   21734668.9844
 -11287520.08248  -8785944.93446  21874853.0554                   21874850.8054
 -23805837.21548 -18537853.75045  22025872.6884                   22025867.2464
   7440003.13346   5804879.98842  25146441.7114                   25146439.7424
 11  8 19  2 44 30.0000000  0  9G12G30G26G05G15G25G29G02G21
 -17961029.52347 -13984054.84046  22154159.6334                   22154156.3674
 -12928841.27048 -10062262.42645  21955321.6334                   21955319.1254
  -5427736.13747  -4218874.72344  22846624.0314                   22846622.5554
 -23805379.18448 -18537717.44946  20755072.8914                   20755069.6644
   1747417.49247   1372233.34444  23721038.5864                   23721036.2384
 -15346804.92248 -11946894.32446  21735362.8134                   21735362.6524
 -11386739.89548  -8863259.01646  21855972.2734                   21855969.7114
 -23786959.77347 -18523144.05145  22029464.6954                   22029459.5164
   7359879.35946   5742445.97342  25131194.7974                   25131191.8634
 11  8 19  2 45  0.0000000  0  9G12G30G26G05G15G25G29G02G21
 -17904657.06647 -13940128.26646  22164887.0164                   22164884.1994
 -12907288.74647 -10045468.24245  21959423.3444                   21959420.3054
  -5538686.85247  -4305329.79344  22825511.1954                   22825509.0394
 -23779697.09848 -18517705.42646  20759960.1484                   20759956.8444
   1627230.82047   1278581.46544  23698167.6254                   23698165.4264
 -15342632.10548 -11943642.78146  21736157.0164                   21736156.6374
 -11485779.82447  -8940432.93046  21837125.4924                   21837122.4534
 -23767993.52347 -18508365.15245  22033073.7424                   22033068.5634
   7279765.88346   5680019.95342  25115949.2504                   25115946.6764
 11  8 19  2 45 30.0000000  0  9G12G30G26G05G15G25G29G02G21
 -17847984.28547 -13895967.68046  22175671.9844                   22175668.6094
 -12885252.29347 -10028296.97345  21963616.4694                   21963614.4144
  -5649385.85547  -4391588.71545  22804446.0394                   22804444.3524
 -23753587.45748 -18497360.24646  20764928.6484                   20764925.1484
   1507059.26247   1184941.37944  23675300.0164                   23675297.4534
 -15337927.53548 -11939976.89146  21737052.1254                   21737051.9804
 -11584631.44147  -9017460.11346  21818314.4064                   21818311.8244
 -23748932.33647 -18493512.27045  22036700.8594                   22036696.1024
   7199668.62146   5617606.61342  25100708.1174                   25100705.8054
 11  8 19  2 46  0.0000000  0  9G12G30G26G05G15G25G29G02G21
 -17791009.55948 -13851571.80946  22186513.8914                   22186510.5634
 -12862730.11347 -10010747.22745  21967902.4774                   21967900.0904
  -5759825.00847  -4477645.18045  22783430.6254                   22783427.7814
 -23727047.98048 -18476680.12947  20769978.8364                   20769975.3204
   1386910.03147   1091318.67244  23652436.2584                   23652434.2274
 -15332688.53148 -11935894.55146  21738049.0864                   21738048.8674
 -11683288.24247  -9094335.48446  21799540.8444                   21799538.1134
 -23729771.66047 -18478581.84845  22040346.9064                   22040342.0394
   7119591.37946   5555208.81342  25085469.4844                   25085467.3444
 11  8 19  2 46 30.0000000  0  9G12G30G26G05G15G25G29G02G21
 -17733737.71947 -13806944.41046  22197412.0634                   22197408.8874
 -12839726.69547  -9992822.48445  21972280.0004                   21972277.2234
  -5870002.48047  -4563497.71545  22762463.9924                   22762461.5274
 -23700082.71148 -18455668.21946  20775110.2584                   20775106.8714
   1266783.87547    997713.94944  23629576.4844                   23629574.4574
 -15326918.87148 -11931398.72346  21739147.1564                   21739147.0164
 -11781749.94547  -9171058.83246  21780803.9534                   21780801.7544
 -23710513.47748 -18463575.44545  22044011.7734                   22044007.0704
   7039531.40645   5492824.53542  25070233.8674                   25070231.7234
 11  8 19  2 47  0.0000000  0  9G12G30G26G05G15G25G29G02G21
 -17676173.83247 -13762089.44145  22208366.2274                   22208362.6174
 -12816246.35547  -9974526.12145  21976747.8834                   21976745.4694
  -5979916.78147  -4649145.17645  22741547.6024                   22741545.7974
 -23672696.33648 -18434328.17246  20780322.0864                   20780318.3834
   1146681.73447    904127.94144  23606722.0084                   23606719.5824
 -15320622.17648 -11926492.21146  21740345.1094                   21740345.1414
 -11880016.35248  -9247630.00846  21762104.9144                   21762102.1954
 -23691159.59448 -18448494.49245  22047694.7734                   22047689.5554
   6959486.34446   5430451.86342  25055001.1414                   25054999.4774
 11  8 19  2 47 30.0000000  0  9G12G30G26G05G15G25G29G02G21
 -17618322.61347 -13717010.58645  22219374.9064                   22219371.7304
 -12792293.71148  -9955861.71145  21981306.0474                   21981303.3324
  -6089565.80947  -4734585.93745  22720682.1644                   22720679.7704
 -23644892.70348 -18412662.99246  20785612.3134                   20785608.9924
   1026604.96147    810561.69544  23583871.8134                   23583869.5744
 -15313802.14548 -11921177.90646  21741643.2424                   21741642.7974
 -11978087.00448  -9324048.65246  21743442.4614                   21743439.8134
 -23671711.47348 -18433340.10945  22051395.7664                   22051390.9964
   6879453.48845   5368088.67642  25039771.0554                   25039769.5004
 11  8 19  2 48  0.0000000  0  9G12G30G26G05G15G25G29G02G21
 -17560188.98847 -13671711.67245  22230437.5944                   22230433.9534
 -12767872.70748  -9936832.36345  21985952.9384                   21985950.9774
  -6198947.80947  -4819818.64145  22699867.8134                   22699865.3714
 -23616675.68448 -18390675.68446  20790981.9924                   20790978.5004
    906554.94546    717016.31344  23561027.1804                   23561024.7734
 -15306462.09047 -11915458.37546  21743039.8364                   21743039.9184
 -12075961.15648  -9400314.19146  21724817.6334                   21724814.8794
 -23652171.06648 -18418113.82046  22055114.2974                   22055109.1724
   6799430.79345   5305733.42243  25024544.1094                   25024542.1294
 11  8 19  2 48 30.0000000  0  9G12G30G26G05G15G25G29G02G21
 -17501779.25447 -13626197.59845  22241552.3204                   22241549.4024
 -12742989.23848  -9917442.65245  21990688.4534                   21990685.7304
  -6308062.14147  -4904842.77045  22679104.2664                   22679101.7774
 -23588051.03148 -18368370.74246  20796428.9844                   20796426.0354
    786530.98046    623491.20344  23538187.2424                   23538185.4144
 -15298607.07048 -11909337.59046  21744534.7194                   21744534.5434
 -12173640.10248  -9476427.62546  21706229.4614                   21706226.8794
 -23632541.31248 -18402817.91046  22058850.0864                   22058844.3834
   6719414.42246   5243383.10942  25009318.0314                   25009314.9184
 11  8 19  2 49  0.0000000  0  9G12G30G26G05G15G25G29G02G21
 -17443092.41847 -13580467.60545  22252720.0704                   22252717.3874
 -12717642.25447  -9897691.75045  21995511.9454                   21995509.0594
  -6416901.35247  -4989652.52345  22658392.4064                   22658389.9924
 -23559017.44148 -18345747.16046  20801953.8444                   20801950.5664
    666539.84046    529991.70744  23515353.3204                   23515351.1914
 -15290235.25448 -11902814.09846  21746128.0004                   21746127.7464
 -12271117.87548  -9552384.30946  21687680.4454                   21687677.1454
 -23612817.99648 -18387449.06245  22062602.6414                   22062597.7814
   6639407.47346   5181040.09443  24994091.9844                   24994089.9024
 11  8 19  2 49 30.0000000  0  9G12G30G26G05G15G25G29G02G21
 -17384132.41047 -13534524.75845  22263939.9224                   22263936.7384
 -12691835.50847  -9877582.60245  22000422.9924                   22000419.9184
  -6525463.33647  -5074246.25845  22637733.6804                   22637731.6414
 -23529578.47748 -18322807.69146  20807555.7274                   20807552.7384
    546583.12146    436518.99244  23492526.9304                   23492524.4184
 -15281349.73848 -11895890.32446  21747818.7274                   21747818.3714
 -12368393.16448  -9628183.18046  21669169.2974                   21669166.7034
 -23593002.25448 -18372008.21945  22066373.5084                   22066368.5904
   6559407.98046   5118702.90643  24978868.7194                   24978867.9574
 11  8 19  2 50  0.0000000  0  9G12G30G26G05G15G25G29G02G21
 -17324903.41447 -13488372.31245  22275210.8134                   22275207.6644
 -12665572.08647  -9857117.60245  22005420.5864                   22005418.0124
  -6633744.65247  -5158621.27345  22617128.3524                   22617126.3054
 -23499736.73448 -18299554.38346  20813234.4224                   20813231.1724
    426663.30946    343075.07444  23469706.6024                   23469703.7304
 -15271952.77048 -11888568.00046  21749606.6804                   21749606.0234
 -12465464.35948  -9703823.03946  21650697.3204                   21650694.8874
 -23573094.55548 -18356495.71945  22070161.8054                   22070156.5044
   6479415.30946   5056371.03143  24963647.3754                   24963645.5784
 11  8 19  2 50 30.0000000  0  9G12G30G26G05G15G25G29G02G21
 -17265407.73047 -13442012.03945  22286531.9844                   22286529.4574
 -12638854.04348  -9836298.34045  22010504.9614                   22010502.4614
  -6741741.13747  -5242774.35945  22596577.2034                   22596575.0824
 -23469493.96148 -18275988.57447  20818989.6094                   20818986.5004
    306784.20347    249662.85244  23446894.4454                   23446891.0554
 -15262045.73848 -11880848.24246  21751492.0944                   21751491.5744
 -12562328.38348  -9779301.45746  21632264.8674                   21632261.9184
 -23553094.03148 -18340910.89545  22073967.8444                   22073962.4614
   6399429.45346   4994044.47343  24948426.1804                   24948424.7424
 11  8 19  2 51  0.0000000  0  9G12G30G26G05G15G25G29G02G21
 -17205648.67647 -13395446.56245  22297904.1884                   22297901.2624
 -12611684.42647  -9815127.20745  22015674.7974                   22015672.1994
  -6849449.35947  -5326702.81645  22576081.6254                   22576078.9064
 -23438852.89148 -18252112.40247  20824820.5474                   20824817.3014
    186948.24646    156284.27344  23424090.1254                   23424087.6414
 -15251630.92648 -11872732.79346  21753474.1254                   21753473.8444
 -12658983.74648  -9854617.28946  21613872.2114                   21613869.1724
 -23533000.68048 -18325253.72745  22077791.6484                   22077785.5864
   6319448.98446   4931722.13743  24933206.1024                   24933204.3984
 11  8 19  2 51 30.0000000  0  9G12G30G26G05G15G25G29G02G21
 -17145628.97747 -13348677.97345  22309325.3364                   22309322.6684
 -12584065.43747  -9793605.92245  22020930.4384                   22020928.3674
  -6956865.28947  -5410403.51245  22555640.5634                   22555638.5784
 -23407815.70348 -18227927.56246  20830726.5784                   20830723.2624
     67158.74246     62941.86744  23401295.2894                   23401292.8284
 -15240709.78548 -11864222.80546  21755552.0394                   21755551.8554
 -12755427.43448  -9929768.16846  21595519.2664                   21595516.6054
 -23512814.31648 -18309524.10245  22081632.6484                   22081627.9144
   6239473.84446   4869403.93443  24917987.6024                   24917985.4734
 11  8 19  2 52  0.0000000  0  9G12G30G26G05G15G25G29G02G21
 -17085353.59047 -13301710.14845  22320795.8134                   22320792.6994
 -12556001.59847  -9771737.99245  22026270.7584                   22026268.3834
  -7063987.34047  -5493875.20745  22535256.1884                   22535253.7274
 -23376386.41048 -18203437.20346  20836707.6804                   20836704.3674
    -52583.12547    -30363.41844  23378508.2344                   23378506.5394
 -15229286.21548 -11855321.31246  21757725.9694                   21757725.9024
 -12851659.24648 -10004753.95346  21577206.7424                   21577203.5904
 -23492536.15248 -18293722.94945  22085491.3984                   22085486.0434
   6159501.87146   4807088.19543  24902769.6334                   24902767.9104
 11  8 19  2 52 30.0000000  0  9G12G30G26G05G15G25G29G02G21
 -17024823.92247 -13254544.19145  22332314.3834                   22332311.0004
 -12527494.48447  -9749524.65645  22031695.6024                   22031693.1454
  -7170810.51247  -5577114.01645  22514928.2344                   22514925.8484
 -23344566.42248 -18178642.39147  20842762.6484                   20842759.0204
   -172273.37146   -123628.48444  23355731.7734                   23355730.1054
 -15217360.90648 -11846028.85546  21759995.2424                   21759994.7464
 -12947675.53548 -10079571.79746  21558935.5004                   21558932.4654
 -23472164.89848 -18277849.25445  22089367.9304                   22089363.3874
   6079533.62546   4744775.35943  24887552.0314                   24887550.1724
 11  8 19  2 53  0.0000000  0  9G12G30G26G05G15G25G29G02G21
 -16964044.03947 -13207183.25446  22343880.0004                   22343877.2624
 -12498547.33247  -9726968.43445  22037204.3054                   22037201.9774
  -7277331.63347  -5660117.45745  22494657.6724                   22494655.7464
 -23312358.70348 -18153545.46146  20848891.4844                   20848888.3134
   -291909.30947   -216851.23444  23332966.2424                   23332963.8594
 -15204936.60248 -11836347.56646  21762359.7504                   21762359.2624
 -13043474.84048 -10154220.57446  21540705.5394                   21540702.7934
 -23451700.97347 -18261903.30145  22093262.4694                   22093256.7854
   5999568.05947   4682464.61344  24872335.0234                   24872332.8794
 11  8 19  2 53 30.0000000  0  9G12G30G26G05G15G25G29G02G21
 -16903017.20347 -13159629.88345  22355492.8754                   22355489.9774
 -12469163.19147  -9704071.70345  22042795.9224                   22042793.3984
  -7383547.44147  -5742882.99245  22474446.3444                   22474443.0594
 -23279765.64148 -18128148.26246  20855093.8914                   20855090.6414
   -411488.56646   -310029.82844  23310211.3444                   23310208.1374
 -15192015.44148 -11826279.11346  21764818.3914                   21764818.0594
 -13139054.73848 -10228698.38346  21522517.1174                   21522514.1994
 -23431144.46948 -18245885.23445  22097173.9614                   22097169.4184
   5919604.02747   4620155.10944  24857118.4064                   24857116.6914
 11  8 19  2 54  0.0000000  0  9G12G30G26G05G15G25G29G02G21
 -16841746.64547 -13111886.60545  22367152.6024                   22367149.6684
 -12439344.96147  -9680836.71145  22048470.1334                   22048467.9024
  -7489454.46147  -5825407.91045  22454292.1804                   22454289.9454
 -23246789.96548 -18102452.92246  20861368.8674                   20861365.3594
   -531008.26647   -403162.00444  23287467.1254                   23287465.1174
 -15178599.71948 -11815825.29346  21767371.0004                   21767371.0204
 -13234413.46948 -10303003.84446  21504371.0944                   21504368.1564
 -23410495.41047 -18229795.05545  22101103.4064                   22101098.1564
   5839640.95347   4557846.33644  24841901.8444                   24841900.1454
 11  8 19  2 54 30.0000000  0  9G12G30G26G05G15G25G29G02G21
 -16780234.91447 -13063955.41445  22378858.0784                   22378854.9104
 -12409094.73048  -9657265.10545  22054226.2664                   22054224.4884
  -7595048.35947  -5907688.82845  22434198.7114                   22434196.3554
 -23213433.66048 -18076460.98846  20867716.3594                   20867713.1334
   -650464.60946   -496244.78944  23264735.6254                   23264733.6994
 -15164690.91048 -11804987.25446  21770018.0784                   21770017.9144
 -13329548.05548 -10377134.65646  21486267.4774                   21486264.5084
 -23389752.80148 -18213631.96945  22105050.5004                   22105046.3794
   5759678.47747   4495538.00843  24826685.1724                   24826683.3524
 11  8 19  2 55  0.0000000  0  9G12G30G26G05G15G25G29G02G21
 -16718483.47747 -13015837.42645  22390608.5314                   22390605.9654
 -12378413.90247  -9633357.96145  22060064.4844                   22060062.2304
  -7700324.16047  -5989721.86745  22414164.7664                   22414162.8324
 -23179697.46948 -18050173.03546  20874136.1724                   20874132.7934
   -769853.08647   -589274.71945  23242016.3364                   23242014.1844
 -15150289.59448 -11793765.44546  21772758.3674                   21772758.0124
 -13424454.57048 -10451087.74646  21468207.0234                   21468204.4884
 -23368915.19148 -18197394.87945  22109016.0004                   22109010.9024
   5679717.75846   4433231.04343  24811469.3674                   24811466.5514
 11  8 19  2 55 30.0000000  0  9G12G30G26G05G15G25G29G02G21
 -16656496.84047 -12967536.18045  22402404.3524                   22402401.6994
 -12347306.56647  -9609118.48045  22065984.5394                   22065981.8444
  -7805279.58247  -6071505.28545  22394192.9774                   22394190.6174
 -23145585.07048 -18023591.94146  20880627.3054                   20880624.4654
   -889172.35247   -682250.70345  23219310.6954                   23219308.7344
 -15135399.22348 -11782162.55546  21775592.0004                   21775591.3914
 -13519132.31648 -10524862.57046  21450190.4694                   21450187.7934
 -23347983.50448 -18181084.45345  22112999.1094                   22112994.2034
   5599756.85546   4370923.91043  24796253.0474                   24796250.5824
 11  8 19  2 56  0.0000000  0  9G12G30G26G05G15G25G29G02G21
 -16594279.38747 -12919055.05945  22414244.2034                   22414241.1414
 -12315776.97747  -9584549.95345  22071984.1254                   22071981.8244
  -7909912.41047  -6153037.31645  22374281.6094                   22374279.4144
 -23111100.64148 -17996720.96546  20887189.6884                   20887186.6134
  -1008420.71947   -775171.43745  23196618.5474                   23196616.0124
 -15120023.36748 -11770181.35946  21778518.2114                   21778517.7464
 -13613580.32048 -10598458.38346  21432218.1804                   21432214.9024
 -23326959.02048 -18164701.73845  22116999.8914                   22116994.8554
   5519793.91046   4308615.19943  24781037.0554                   24781034.0314
 11  8 19  2 56 30.0000000  0  9G12G30G26G05G15G25G29G02G21
 -16531834.29747 -12870396.57045  22426127.2894                   22426123.8554
 -12283827.84847  -9559654.54745  22078064.1334                   22078061.5944
  -8014218.82847  -6234315.01645  22354433.0164                   22354429.9104
 -23076246.38348 -17969561.79746  20893822.1724                   20893818.8674
  -1127595.32847   -868034.73845  23173940.7114                   23173937.3484
 -15104164.04748 -11757823.45346  21781535.9844                   21781535.5984
 -13707796.18048 -10671873.31246  21414289.1954                   21414286.2154
 -23305841.19147 -18148246.27745  22121018.3444                   22121013.4884
   5439828.20346   4246304.38743  24765819.2504                   24765817.3914
 11  8 19  2 57  0.0000000  0  9G12G30G26G05G15G25G29G02G21
 -16469161.44947 -12821560.59045  22438053.0944                   22438050.4064
 -12251458.91447  -9534431.99245  22084223.6804                   22084221.2584
  -8118192.24647  -6315333.24645  22334647.5004                   22334644.6334
 -23041021.41847 -17942113.76646  20900525.2034                   20900521.9184
  -1246689.80947   -960835.57845  23151277.7584                   23151274.7344
 -15087820.35948 -11745088.10946  21784646.0784                   21784645.5984
 -13801774.39848 -10745103.05146  21396405.7034                   21396402.5474
 -23284626.71948 -18131715.50845  22125055.4224                   22125050.4454
   5359862.54746   4183993.55143  24750601.9064                   24750599.9024
 11  8 19  2 57 30.0000000  0  9G12G30G26G05G15G25G29G02G21
 -16406264.88347 -12772550.29345  22450022.2504                   22450018.7544
 -12218673.85947  -9508885.21945  22090462.4224                   22090460.2114
  -8221829.73847  -6396089.69545  22314925.4454                   22314923.1724
 -23005429.15248 -17914379.53146  20907298.0784                   20907295.0124
  -1365702.05547  -1053572.34845  23128630.2034                   23128627.9224
 -15070995.38748 -11731977.73446  21787847.5164                   21787847.6884
 -13895513.78548 -10818146.68746  21378567.5234                   21378564.9654
 -23263316.57847 -18115110.20345  22129110.6804                   22129105.6454
   5279895.25446   4121681.42243  24735384.0394                   24735382.6254
 11  8 19  2 58  0.0000000  0  9G12G30G26G05G15G25G29G02G21
 -16343149.37147 -12723369.39145  22462032.5004                   22462029.6884
 -12185477.14847  -9483017.65645  22096779.4454                   22096776.7274
  -8325129.50847  -6476582.98445  22295267.9844                   22295265.7274
 -22969473.75048 -17886362.33647  20914140.9694                   20914137.2034
  -1484630.44947  -1146243.76245  23105998.5554                   23105995.9454
 -15053692.94148 -11718495.32046  21791140.1254                   21791140.2344
 -13989013.35548 -10891003.45746  21360775.1884                   21360772.2544
 -23241911.99247 -18098431.30145  22133183.7274                   22133178.2664
   5199924.41046   4059366.56642  24720165.9774                   24720163.8794
 11  8 19  2 58 30.0000000  0  9G12G30G26G05G15G25G29G02G21
 -16279815.35547 -12674018.23045  22474084.6024                   22474081.2464
 -12151869.47747  -9456829.87145  22103174.9064                   22103172.5634
  -8428085.54347  -6556808.43045  22275676.2584                   22275673.7274
 -22933155.32448 -17858062.27046  20921051.3754                   20921048.1054
  -1603470.41447  -1238846.27345  23083384.5004                   23083381.9774
 -15035913.02348 -11704640.84046  21794523.8134                   21794523.3634
 -14082268.94148 -10963670.10946  21343029.2974                   21343026.2664
 -23220410.37947 -18081676.82045  22137275.1254                   22137270.1054
   5119951.50446   3997050.05942  24704948.6414                   24704946.1564
 11  8 19  2 59  0.0000000  0  9G12G30G26G05G15G25G29G02G21
 -16216267.66447 -12624500.57845  22486177.6174                   22486174.6724
 -12117854.82047  -9430324.94945  22109647.7114                   22109645.2544
  -8530695.55547  -6636764.25845  22256150.3984                   22256147.8134
 -22896477.64148 -17829482.25846  20928030.8834                   20928027.6724
  -1722219.43047  -1331377.92644  23060787.1334                   23060784.2974
 -15017658.94548 -11690416.88746  21797997.2114                   21797996.8874
 -14175279.14848 -11036145.56246  21325330.0474                   21325326.8444
 -23198812.64547 -18064847.42645  22141385.1414                   22141380.3674
   5039974.82046   3934730.68442  24689728.8204                   24689727.3554
 11  8 19  2 59 30.0000000  0  9G12G30G26G05G15G25G29G02G21
 -16152508.60547 -12574818.22345  22498310.7034                   22498307.4534
 -12083435.50047  -9403504.69945  22116197.4924                   22116195.1094
  -8632955.40247  -6716447.23445  22236691.0944                   22236688.6374
 -22859442.59847 -17800623.78146  20935078.3524                   20935075.0944
  -1840874.28147  -1423836.18045  23038207.7114                   23038205.3444
 -14998932.43748 -11675824.80546  21801560.6884                   21801560.3674
 -14268040.98848 -11108427.47346  21307677.8674                   21307674.9884
 -23177117.96548 -18047942.46545  22145513.6024                   22145508.1454
   4959994.37946   3872408.30542  24674508.9454                   24674507.1254
 11  8 19  3  0  0.0000000  0  9G12G30G26G05G15G25G29G02G21
 -16088541.43747 -12524973.68745  22510482.9614                   22510479.7424
 -12048614.89547  -9376371.77345  22122823.2274                   22122821.1884
  -8734861.81247  -6795854.79345  22217298.5704                   22217296.1844
 -22822053.00848 -17771489.03946  20942193.8524                   20942190.3054
  -1959432.36347  -1516219.04745  23015646.4844                   23015644.3834
 -14979736.25048 -11660866.74646  21805214.0864                   21805213.8674
 -14360552.89848 -11180514.64146  21290073.7814                   21290070.4024
 -23155326.51248 -18030962.11345  22149660.1644                   22149655.3954
   4880008.98846   3810082.12542  24659288.9844                   24659285.9104
 11  8 19  3  0 30.0000000  0  9G12G30G26G05G15G25G29G02G21
 -16024369.90647 -12474969.92245  22522694.1094                   22522691.1134
 -12013396.10947  -9348928.58645  22129525.6254                   22129523.0904
  -8836411.35247  -6874984.28145  22197974.7734                   22197972.3244
 -22784311.66448 -17742080.19146  20949375.7344                   20949372.1884
  -2077890.55547  -1608524.07445  22993105.1644                   22993102.2274
 -14960072.87948 -11645544.63746  21808955.3364                   21808955.1484
 -14452812.35948 -11252405.09046  21272517.0314                   21272514.3054
 -23133438.16047 -18013906.27045  22153825.3204                   22153820.3054
   4800018.09446   3747751.52742  24644066.2114                   24644064.1374
 11  8 19  3  1  0.0000000  0  9G12G30G26G05G15G25G29G02G21
 -15959996.42647 -12424808.80145  22534944.1174                   22534941.4304
 -11977781.63347  -9321177.05945  22136302.9224                   22136300.6604
  -8937600.13747  -6953832.65245  22178718.8134                   22178716.4064
 -22746220.28548 -17712398.59846  20956624.1254                   20956620.4304
  -2196245.29347  -1700748.51244  22970582.9924                   22970579.9844
 -14939944.08248 -11629859.85246  21812785.9844                   21812785.4224
 -14544816.39548 -11324096.50446  21255009.3984                   21255006.1484
 -23111452.10248 -17996774.28945  22158009.4454                   22158004.4384
   4720021.85946   3685416.90643  24628843.5394                   24628841.6564
 11  8 19  3  1 30.0000000  0  9G12G30G26G05G15G25G29G02G21
 -15895426.19547 -12374494.35245  22547231.2814                   22547228.5784
 -11941776.45747  -9293121.09445  22143154.1884                   22143151.6454
  -9038426.59847  -7032398.69945  22159532.6724                   22159529.6994
 -22707783.68448 -17682448.00446  20963938.4924                   20963934.9384
  -2314495.93047  -1792891.82845  22948080.3284                   22948077.9104
 -14919354.40248 -11613815.95746  21816703.8674                   21816703.0984
 -14636565.50848 -11395589.28546  21237549.6564                   21237546.9104
 -23089370.43748 -17979567.80545  22162211.2814                   22162206.4654
   4640017.21546   3623075.68843  24613620.3134                   24613617.1134
 11  8 19  3  2  0.0000000  0  9G12G30G26G05G15G25G29G02G21
 -15830658.79347 -12324026.27045  22559556.6644                   22559553.3094
 -11905379.78147  -9264760.07045  22150080.1334                   22150077.5594
  -9138883.66447  -7110676.91045  22140416.0554                   22140413.9304
 -22669000.50448 -17652227.34046  20971318.3524                   20971315.2894
  -2432635.66847  -1884948.72345  22925599.3284                   22925596.4924
 -14898302.51248 -11597411.88746  21820710.3054                   21820709.4304
 -14728053.37948 -11466878.49246  21220139.9924                   21220137.0124
 -23067189.13348 -17962283.68745  22166432.3674                   22166427.4224
   4560007.30146   3560730.34843  24598394.2344                   24598392.0984
 11  8 19  3  2 30.0000000  0  9G12G30G26G05G15G25G29G02G21
 -14190279.58647 -11045808.72345  22871710.3984                   22871707.0554
 -10293176.29347  -8008497.61745  22456872.3984                   22456869.9304
  -7663544.57047  -5961061.99645  22421163.5634                   22421161.4574
 -21054454.78948 -16394139.76646  21278555.8834                   21278553.0354
   -975238.02747   -749314.16845  23202932.2814                   23202930.0634
 -13301371.72348 -10353050.23446  22124595.9614                   22124595.4224
 -13243854.71548 -10310360.00846  21502573.8914                   21502570.9184
 -21469488.91048 -16717322.48845  22470464.6644                   22470459.6914
   6055414.07446   4725982.48843  24882961.0784                   24882958.6954
 11  8 19  3  3  0.0000000  0  9G12G30G26G05G15G25G29G02G21
 -14125128.66447 -10995041.79745  22884107.9924                   22884104.9734
 -10256007.51647  -7979534.94945  22463945.2894                   22463942.9264
  -7763253.49647  -6038757.23445  22402189.5704                   22402187.5084
 -21014987.66448 -16363386.15646  21286066.6094                   21286063.5554
  -1093148.89547   -841192.71144  23180495.0634                   23180492.1254
 -13279404.16848 -10335932.68046  22128776.5474                   22128776.1524
 -13334814.73048 -10381237.90246  21485264.8594                   21485261.7544
 -21447108.80947 -16699883.44945  22474723.6334                   22474718.4264
   5975390.65647   4663626.68044  24867733.0474                   24867730.9144
 11  8 19  3  3 30.0000000  0  9G12G30G26G05G15G25G29G02G21
 -14059791.20747 -10944129.52045  22896541.3834                   22896538.4804
 -10218458.07447  -7950275.64545  22471090.2424                   22471088.4774
  -7862584.22747  -6116157.77345  22383287.1954                   22383284.8284
 -20975183.47748 -16332369.89846  21293640.9064                   21293637.7624
  -1210941.38347   -932979.02745  23158079.8204                   23158076.9104
 -13256983.33648 -10318461.90646  22133042.6414                   22133042.7774
 -13425508.41048 -10451908.26646  21468006.2664                   21468003.3634
 -21424630.14147 -16682367.61745  22479000.8674                   22478996.1174
   5895358.30947   4601263.90644  24852503.4224                   24852500.8204
 11  8 19  3  4  0.0000000  0  9G12G30G26G05G15G25G29G02G21
 -13994270.20347 -10893074.21545  22909010.1484                   22909006.9064
 -10180530.15247  -7920721.43445  22478308.0394                   22478305.7664
  -7961532.37147  -6193260.19545  22364458.8984                   22364456.2234
 -20935043.95348 -16301092.33246  21301279.2894                   21301275.9224
  -1328612.07847  -1024670.43045  23135687.6564                   23135684.6724
 -13234110.93048 -10300639.25846  22137395.1484                   22137394.7704
 -13515932.54748 -10522368.59046  21450799.0234                   21450796.2074
 -21402051.61747 -16664773.97345  22483297.4144                   22483292.1994
   5815317.63746   4538894.64544  24837271.7194                   24837270.0594
 11  8 19  3  4 30.0000000  0  9G12G30G26G05G15G25G29G02G21
 -13928569.21147 -10841878.66445  22921511.7504                   22921509.0864
 -10142227.56647  -7890875.28145  22485597.0864                   22485594.7664
  -8060095.10547  -6270062.28545  22345702.3524                   22345700.2074
 -20894572.03148 -16269555.76646  21308981.2194                   21308977.9734
  -1446158.23447  -1116264.78945  23113319.2034                   23113316.3714
 -13210790.00448 -10282467.10946  22141833.0394                   22141832.4414
 -13606085.40648 -10592617.53946  21433643.2274                   21433640.5904
 -21379373.71947 -16647102.89845  22487612.3204                   22487607.8714
   5735267.52347   4476518.05144  24822039.2974                   24822036.1804
 11  8 19  3  5  0.0000000  0 10G12G30G26G18G05G15G25G29G02G21
 -13862692.10547 -10790545.87145  22934048.0004                   22934045.4964
 -10103553.91847  -7860739.98045  22492956.5864                   22492954.4144
  -8158269.39847  -6346561.70745  22327020.7504                   22327018.6024
   9287518.18856   7247490.19953  24802906.5084                   24802905.6294
 -20853771.00448 -16237762.74646  21316745.1724                   21316742.1374
  -1563577.73847  -1207760.45745  23090975.3204                   23090972.0594
 -13187023.68048 -10263947.90646  22146356.1644                   22146355.3014
 -13695965.53148 -10662653.96146  21416539.6804                   21416536.9494
 -21356596.71547 -16629354.60245  22491947.3054                   22491942.4574
   5655206.48446   4414132.96944  24806803.3834                   24806801.2814
 11  8 19  3  5 30.0000000  0 10G12G30G26G18G05G15G25G29G02G21
 -13796647.75047 -10739082.77045  22946616.1954                   22946613.1254
 -10064518.12947  -7830322.48045  22500384.7114                   22500382.0394
  -8256057.94147  -6422760.54345  22308411.5864                   22308409.1524
   9174309.53146   7159275.90243  24781363.1094                   24781362.2464
 -20812649.27348 -16205719.83646  21324570.1254                   21324567.3134
  -1680873.30147  -1299159.53945  23068654.9064                   23068651.7464
 -13162820.43448 -10245088.23046  22150961.5394                   22150961.5354
 -13785576.41048 -10732480.58246  21399487.3834                   21399484.1954
 -21333726.27747 -16611533.48445  22496299.3364                   22496293.7704
   5575127.98846   4351734.25843  24791565.0864                   24791562.8284
 11  8 19  3  6  0.0000000  0 10G12G30G26G18G05G15G25G29G02G21
 -13730442.98447 -10687494.65245  22959214.3754                   22959211.2544
 -10025126.93747  -7799628.05545  22507880.2344                   22507878.1684
  -8353460.68747  -6498658.75845  22289876.7114                   22289874.0084
   9061258.78946   7071184.65243  24759849.7344                   24759849.6684
 -20771213.00848 -16173431.83246  21332455.5704                   21332452.3634
  -1798045.60247  -1390462.59845  23046357.4144                   23046354.6684
 -13138186.31648 -10225892.83246  22155649.2034                   22155648.8364
 -13874919.25048 -10802098.35246  21382485.9224                   21382483.1604
 -21310765.59847 -16593642.03545  22500668.0944                   22500663.5824
   5495027.98846   4289318.84444  24776322.2114                   24776320.3874
 11  8 19  3  6 30.0000000  0 10G12G30G26G18G05G15G25G29G02G21
 -13664077.12547 -10635781.00045  22971843.1724                   22971840.1994
  -9985379.57847  -7768656.09045  22515444.1724                   22515441.6844
  -8450470.35247  -6574250.66045  22271416.1724                   22271414.2854
   8948370.94146   6983220.31643  24738369.0944                   24738367.2814
 -20729460.91048 -16140897.71946  21340400.3524                   21340397.5204
  -1915088.02347  -1481664.44145  23024084.5784                   23024081.1524
 -13113120.11748 -10206360.72346  22160419.2034                   22160419.1724
 -13963988.10948 -10871502.63746  21365536.9774                   21365533.7274
 -21287710.89147 -16575677.34045  22505055.6724                   22505051.1604
   5414909.91846   4226889.28943  24761076.2114                   24761073.3204
 11  8 19  3  7  0.0000000  0 10G12G30G26G18G05G15G25G29G02G21
 -13597552.70747 -10583943.82045  22984502.6804                   22984499.3404
  -9945278.57847  -7737408.55545  22523074.9224                   22523072.5274
  -8547083.02747  -6649533.23045  22253031.5864                   22253029.1294
   8835647.71545   6895384.30143  24716917.5004                   24716916.3874
 -20687394.88348 -16108118.99646  21348405.2664                   21348401.8754
  -2031996.34047  -1572761.79745  23001837.8204                   23001835.1454
 -13087623.70748 -10186493.39546  22165271.2344                   22165270.0944
 -14052779.91048 -10940691.02346  21348640.3054                   21348637.0744
 -21264561.15647 -16557638.59445  22509461.4384                   22509455.9614
   5334773.60946   4164445.57843  24745827.0314                   24745824.0744
 11  8 19  3  7 30.0000000  0 10G12G30G26G18G05G15G25G29G02G21
 -13530871.69947 -10531984.59445  22997191.5784                   22997188.8204
  -9904825.89147  -7705886.97745  22530773.0634                   22530770.3484
  -8643294.16447  -6724502.91845  22234723.5864                   22234720.9964
   8723091.94545   6807678.76642  24695499.3674                   24695497.6334
 -20645016.60247 -16075096.96146  21356469.6644                   21356466.5084
  -2148766.84847  -1663751.75045  22979617.4454                   22979614.6914
 -13061698.60548 -10166292.02046  22170204.3674                   22170203.7544
 -14141291.37948 -11009660.96946  21331797.3134                   21331794.0984
 -21241314.83247 -16539524.59445  22513884.5084                   22513879.5004
   5254619.53946   4101988.00043  24730573.6174                   24730570.7624
 11  8 19  3  8  0.0000000  0 10G12G30G26G18G05G15G25G29G02G21
 -13464033.76647 -10479903.08245  23009910.3754                   23009907.1094
  -9864020.87147  -7674090.85545  22538538.1724                   22538535.6254
  -8739096.40247  -6799153.97745  22216492.8594                   22216490.3794
   8610707.99645   6720107.10942  24674111.6094                   24674111.6564
 -20602324.41847 -16041830.31646  21364593.6564                   21364590.4264
  -2265392.87147  -1754629.14845  22957423.8524                   22957421.0204
 -13035343.62548 -10145755.67246  22175219.5784                   22175218.8524
 -14229516.46148 -11078407.76646  21315008.3444                   21315005.5514
 -21217968.22747 -16521332.45345  22518327.6564                   22518322.2304
   5174450.79346   4039518.96543  24715318.2504                   24715315.6374
 11  8 19  3  8 30.0000000  0 10G12G30G26G18G05G15G25G29G02G21
 -13397042.54747 -10427702.16445  23022658.5314                   23022655.3054
  -9822867.33647  -7642023.17645  22546369.1564                   22546367.2544
  -8834487.23847  -6873484.46945  22198340.1644                   22198337.8634
   8498496.60245   6632669.78942  24652758.5944                   24652757.2854
 -20559321.85248 -16008321.82446  21372776.8834                   21372773.5354
  -2381871.86347  -1845391.97745  22935258.2114                   22935255.8404
 -13008562.02748 -10124886.89846  22180316.0234                   22180315.6414
 -14317453.38348 -11146930.02046  21298274.3674                   21298271.4384
 -21194521.37147 -16503062.18045  22522789.4064                   22522784.4844
   5094266.39846   3977037.76243  24700058.0394                   24700056.3244
 11  8 19  3  9  0.0000000  0 10G12G30G26G18G05G15G25G29G02G21
 -13329898.94547 -10375382.47745  23035435.9454                   23035432.4574
  -9781366.23847  -7609684.66845  22554266.7344                   22554264.4344
  -8929460.90247  -6947489.88745  22180267.5474                   22180264.9024
   8386461.09045   6545369.59442  24631439.3914                   24631437.1724
 -20516009.05148 -15974571.58646  21381019.1954                   21381015.5904
  -2498198.60547  -1936036.16045  22913122.1644                   22913118.9384
 -12981354.32448 -10103686.09046  22185493.4774                   22185492.8404
 -14405098.00848 -11215224.50846  21281596.2194                   21281593.1914
 -21170971.96547 -16484712.00845  22527271.1094                   22527265.7424
   5014067.93046   3914545.56343  24684797.9224                   24684794.5824
 11  8 19  3  9 30.0000000  0 10G12G30G26G18G05G15G25G29G02G21
 -13262607.08247 -10322947.28145  23048240.2424                   23048237.2894
  -9739521.73447  -7577078.57045  22562229.2194                   22562227.1914
  -9024015.21147  -7021168.54345  22162274.3054                   22162271.3714
   8274601.44145   6458206.37942  24610151.8054                   24610150.5354
 -20472389.86348 -15940582.60246  21389319.4534                   21389315.8554
  -2614371.05947  -2026560.10545  22891015.4454                   22891012.6414
 -12953724.13348 -10082156.08246  22190751.2274                   22190750.9064
 -14492448.96548 -11283290.15646  21264974.0784                   21264970.4924
 -21147320.61347 -16466282.38745  22531771.3284                   22531766.2544
   4933853.66846   3852041.09443  24669532.4144                   24669530.2774
 11  8 19  3 10  0.0000000  0 10G12G30G26G18G05G15G25G29G02G21
 -13195169.91847 -10270398.85545  23061073.7344                   23061070.4024
  -9697336.66847  -7544207.09445  22570257.3444                   22570254.6884
  -9118146.23847  -7094517.36745  22144361.5164                   22144358.9344
   8162919.45746   6371181.68842  24588901.2034                   24588898.5824
 -20428466.32448 -15906356.46946  21397677.7344                   21397674.4804
  -2730385.78947  -2116961.16045  22868938.7194                   22868935.8714
 -12925673.73048 -10060298.62146  22196088.9384                   22196089.0864
 -14579503.34448 -11351124.71546  21248408.1334                   21248404.7464
 -21123566.86747 -16447772.97345  22536291.2974                   22536286.0044
   4853623.55946   3789524.25043  24654265.9064                   24654263.3674
 11  8 19  3 10 30.0000000  0 10G12G30G26G18G05G15G25G29G02G21
 -13127588.74647 -10217738.21545  23073934.3284                   23073931.0554
  -9654812.28947  -7511071.21545  22578349.2814                   22578347.1604
  -9211849.07847  -7167532.53545  22126530.4454                   22126528.3054
   8051418.29746   6284297.77343  24567683.7894                   24567681.1094
 -20384239.52347 -15871894.02046  21406093.7504                   21406090.4844
  -2846238.03147  -2207235.59045  22846892.2894                   22846889.7274
 -12897203.96548 -10038114.39546  22201506.4614                   22201506.3984
 -14666257.12548 -11418725.03946  21231899.3754                   21231896.2974
 -21099708.19947 -16429181.81245  22540831.3834                   22540826.3554
   4773378.91846   3726996.10243  24638995.5784                   24638993.3714
 11  8 19  3 11  0.0000000  0 10G12G30G26G18G05G15G25G29G02G21
 -13059867.58247 -10164968.50045  23086820.6884                   23086817.9844
  -9611952.87147  -7477674.28545  22586505.0004                   22586502.9384
  -9305121.02348  -7240211.94945  22108781.7894                   22108779.0744
   7940097.88346   6197554.74243  24546499.5474                   24546497.6134
 -20339712.40648 -15837197.56246  21414566.8594                   21414563.7774
  -2961925.87947  -2297381.92245  22824877.6254                   22824875.5204
 -12868318.52048 -10015606.26646  22207003.4924                   22207002.8874
 -14752709.18448 -11486090.25046  21215448.2814                   21215444.7774
 -21075745.92647 -16410509.90245  22545391.0784                   22545386.6564
   4693118.07446   3664455.28943  24623723.2894                   24623720.3554
 11  8 19  3 11 30.0000000  0 10G12G30G26G18G05G15G25G29G02G21
 -12992007.98847 -10112090.89545  23099733.9694                   23099731.0314
  -9568759.70347  -7444017.29345  22594724.2344                   22594722.2624
  -9397957.14547  -7312551.75045  22091115.5474                   22091113.0314
   7828961.19946   6110954.82843  24525350.6954                   24525348.3634
 -20294886.14147 -15802267.99646  21423097.1644                   21423093.9924
  -3077443.69147  -2387395.75445  22802895.3984                   22802892.8794
 -12839018.31248  -9992774.94146  22212578.7584                   22212578.7664
 -14838855.39148 -11553217.14546  21199054.8984                   21199051.9264
 -21051677.62147 -16391755.39845  22549971.6564                   22549966.5394
   4612842.25846   3601902.85543  24608446.6484                   24608443.0664
 11  8 19  3 12  0.0000000  0 10G12G30G26G18G05G15G25G29G02G21
 -12924015.43047 -10059109.71945  23112672.6884                   23112670.3834
  -9525238.45347  -7410104.64845  22603006.5164                   22603004.3014
  -9490356.48448  -7384551.20345  22073532.6094                   22073529.7664
   7718007.05946   6024497.19543  24504236.0394                   24504234.2544
 -20249765.43447 -15767109.00046  21431683.3134                   21431680.0514
  -3192791.96147  -2477277.47345  22780945.3204                   22780942.9884
 -12809308.50048  -9969624.44546  22218232.5704                   22218232.1024
 -14924695.68048 -11620105.64546  21182720.1484                   21182717.0044
 -21027505.62147 -16372920.07045  22554571.4844                   22554566.1764
   4532548.33646   3539336.30143  24593168.0314                   24593164.8594
 11  8 19  3 12 30.0000000  0 10G12G30G26G18G05G15G25G29G02G21
 -12855892.92247 -10006027.25445  23125635.5004                   23125632.8524
  -9481391.93447  -7375938.53945  22611350.0864                   22611347.9064
  -9582315.47747  -7456207.53545  22056033.1644                   22056030.7814
   7607236.62946   5938182.70343  24483157.8524                   24483155.6334
 -20204352.75848 -15731722.48446  21440325.0314                   21440321.9344
  -3307967.59847  -2567024.66045  22759028.1254                   22759025.3754
 -12779191.50848  -9946156.67246  22223963.3984                   22223963.4774
 -15010227.48448 -11686753.77746  21166443.8054                   21166440.8984
 -21003229.13747 -16354003.34445  22559191.0704                   22559186.5204
   4452236.26647   3476755.60543  24577884.5394                   24577880.9694
 11  8 19  3 13  0.0000000  0 10G12G30G26G18G05G15G25G29G02G21
 -12787642.41847  -9952845.05145  23138623.1174                   23138621.0554
  -9437222.49247  -7341520.82845  22619754.8914                   22619752.3954
  -9673829.96147  -7527517.50445  22038618.4774                   22038615.4064
   7496652.32446   5852013.26243  24462113.4694                   24462112.1414
 -20158649.70748 -15696109.71546  21449022.2974                   21449018.6954
  -3422965.52347  -2656633.39145  22737144.8364                   22737141.9454
 -12748669.07448  -9922372.97346  22229771.8444                   22229771.6454
 -15095447.89848 -11753159.25846  21150226.8054                   21150223.9104
 -20978846.69547 -16335004.05145  22563831.0084                   22563826.2194
   4371906.23447   3414160.86343  24562597.5944                   24562595.3984
 11  8 19  3 13 30.0000000  0 10G12G30G26G18G05G15G25G29G02G21
 -12719267.69547  -9899566.05145  23151634.3984                   23151631.7114
  -9392733.79746  -7306854.32845  22628220.9224                   22628218.1054
  -9764896.94947  -7598478.76645  22021288.9534                   22021286.5274
   7386254.42646   5765989.05543  24441105.5944                   24441104.1564
 -20112659.42247 -15660273.12546  21457774.1094                   21457770.0824
  -3537783.85547  -2746102.18745  22715295.1024                   22715292.9964
 -12717744.49648  -9898275.90646  22235656.7664                   22235656.4304
 -15180355.35248 -11819320.87946  21134069.7344                   21134066.7234
 -20954358.81647 -16315922.57845  22568491.1334                   22568486.2114
   4291557.50847   3351551.60543  24547307.7504                   24547305.3914
 11  8 19  3 14  0.0000000  0 10G12G30G26G18G05G15G25G29G02G21
 -12650770.74247  -9846191.84045  23164669.5474                   23164666.3594
  -9347927.71147  -7271940.48845  22636747.1094                   22636744.6994
  -9855511.82447  -7669087.73045  22004045.5084                   22004043.3484
   7276045.56646   5680112.21544  24420133.3364                   24420131.4224
 -20066383.10248 -15624213.66046  21466579.9144                   21466576.5164
  -3652417.93447  -2835427.40245  22693481.8364                   22693478.9224
 -12686419.25048  -9873866.64146  22241617.3134                   22241617.4534
 -15264945.60247 -11885235.32046  21117972.5164                   21117969.2814
 -20929763.92247 -16296757.72345  22573170.9844                   22573166.4884
   4211190.65646   3288928.24244  24532014.4774                   24532011.8834
 11  8 19  3 14 30.0000000  0 10G12G30G26G18G05G15G25G29G02G21
 -12582156.12947  -9792725.91445  23177726.4924                   23177723.5634
  -9302809.07047  -7236783.12545  22645333.1024                   22645330.6724
  -9945673.10947  -7739343.24245  21986888.7424                   21986885.8484
   7166025.28546   5594382.25443  24399197.4924                   24399195.1524
 -20019824.81648 -15587934.46946  21475439.6884                   21475436.1254
  -3766866.46147  -2924608.01245  22671702.1024                   22671699.5984
 -12654697.68448  -9849148.54346  22247654.1954                   22247653.2704
 -15349218.16848 -11950902.22346  21101935.9844                   21101932.7544
 -20905063.12547 -16277510.37945  22577871.0554                   22577866.4384
   4130803.76247   3226289.22343  24516717.6174                   24516714.6954
 11  8 19  3 15  0.0000000  0 10G12G30G26G18G05G15G25G29G02G21
 -12513424.57447  -9739168.87145  23190805.3674                   23190802.9534
  -9257379.02347  -7201383.09845  22653978.0554                   22653975.8244
 -10035375.38747  -7809241.08645  21969819.1564                   21969816.3054
   7056196.84446   5508801.80543  24378297.3984                   24378296.0354
 -19972985.07448 -15551435.97346  21484353.0394                   21484349.3244
  -3881124.23447  -3013640.00045  22649960.0314                   22649956.9304
 -12622580.47748  -9824122.17246  22253766.0944                   22253765.0904
 -15433168.53948 -12016318.06646  21085960.8054                   21085957.5664
 -20880254.27347 -16258178.82845  22582592.0554                   22582587.4414
   4050398.53147   3163635.93043  24501416.5634                   24501414.0354
 11  8 19  3 15 30.0000000  0 10G12G30G26G18G05G15G25G29G02G21
 -12444579.57847  -9685523.43745  23203905.7504                   23203903.6454
  -9211640.99647  -7165743.08245  22662681.7584                   22662679.8984
 -10124615.54347  -7878778.84445  21952837.0164                   21952833.7114
   6946560.94146   5423371.36743  24357434.0314                   24357432.2114
 -19925866.64548 -15514720.31246  21493319.5474                   21493315.7344
  -3995188.35547  -3102521.10545  22628253.8914                   22628251.2034
 -12590070.71547  -9798789.90246  22259952.2584                   22259951.9224
 -15516795.03548 -12081481.54746  21070047.0784                   21070044.2384
 -20855336.91847 -16238762.72745  22587334.0634                   22587328.8984
   3969973.63747   3100967.27343  24486112.3984                   24486109.0204
 11  8 19  3 16  0.0000000  0 10G12G30G26G18G05G15G25G29G02G21
 -12375624.33247  -9631792.08645  23217027.6484                   23217025.1024
  -9165597.83647  -7129865.32045  22671443.4774                   22671441.7774
 -10213390.01247  -7947953.71545  21935943.5394                   21935941.1454
   6837118.97346   5338092.07843  24336607.4224                   24336605.8984
 -19878471.59048 -15477789.10246  21502338.5084                   21502334.8524
  -4109055.47747  -3191248.69145  22606586.0234                   22606583.5004
 -12557170.68747  -9773153.52746  22266213.2034                   22266212.6414
 -15600094.74648 -12146390.39146  21054195.7344                   21054192.7544
 -20830310.44147 -16219261.56245  22592096.7814                   22592091.1524
   3889529.29346   3038283.50043  24470803.6954                   24470800.6764
 11  8 19  3 16 30.0000000  0 10G12G30G26G18G05G15G25G29G02G21
 -12306562.76247  -9577977.88745  23230169.5314                   23230166.9694
  -9119253.88347  -7093753.15645  22680262.5084                   22680260.5474
 -10301696.71147  -8016764.10545  21919139.4224                   21919136.3674
   6727871.22346   5252964.06643  24315819.0084                   24315816.8794
 -19830803.70348 -15440645.28546  21511409.0944                   21511405.8324
  -4222723.55947  -3279821.18745  22584955.8054                   22584952.8714
 -12523884.41448  -9747216.19146  22272547.1484                   22272546.5514
 -15683066.60247 -12211043.76246  21038406.7114                   21038403.1644
 -20805175.70347 -16199676.05545  22596879.5004                   22596874.2344
   3809063.71946   2975583.17243  24455491.4384                   24455488.0984
 11  8 19  3 17  0.0000000  0 10G12G30G26G18G05G15G25G29G02G21
 -12237396.88347  -9524082.41845  23243331.9844                   23243328.9184
  -9072611.22347  -7057408.23445  22689138.1724                   22689136.0354
 -10389531.40247  -8085206.69545  21902424.9534                   21902422.1684
   6618819.61746   5167988.89143  24295067.6484                   24295063.9844
 -19782864.32048 -15403289.93046  21520531.8834                   21520528.5164
  -4336188.82447  -3368235.62945  22563364.0634                   22563361.4574
 -12490213.62948  -9720979.21946  22278954.6414                   22278953.8404
 -15765707.21148 -12275439.02046  21022680.6804                   21022677.9804
 -20779931.28147 -16180005.09445  22601683.2504                   22601678.2384
   3728577.57047   2912866.79743  24440176.2034                   24440172.9144
 11  8 19  3 17 30.0000000  0 10G12G30G26G18G05G15G25G29G02G21
 -12168131.46547  -9470109.37544  23256512.2194                   23256509.7034
  -9025675.00047  -7020834.55945  22698069.9224                   22698067.6844
 -10476892.65647  -8153280.38345  21885800.3444                   21885797.8014
   6509963.43846   5083165.99643  24274352.2034                   24274349.6844
 -19734657.72348 -15365726.36346  21529705.4614                   21529701.8794
  -4449450.07047  -3456491.11345  22541810.6174                   22541807.5274
 -12456162.95347  -9694446.23446  22285434.0784                   22285433.7274
 -15848016.09047 -12339575.78146  21007017.7274                   21007014.4964
 -20754578.59047 -16160249.77345  22606507.8284                   22606502.2344
   3648068.59446   2850132.64543  24424855.4454                   24424852.2464
